GFSSW_700_spd_000.txt.gz
Wind_Speed
25 23 20 20 20 20 20 18 18 16 15 16 16 16 18 18 19 21 21 18 20 22 21 22 23 23 25 28 27 27 31 38 39 36 32 23 18 18 18 16 15 13 12 11 11
26 24 21 21 19 18 19 18 17 16 14 14 15 12 12 15 16 17 15 19 20 22 21 19 20 21 23 26 28 31 36 40 39 34 34 28 26 14 21 20 19 17 17 14 12
26 25 21 21 21 18 18 19 17 15 13 12 14 14 12 15 17 14 19 18 19 21 21 19 18 20 23 26 29 33 40 37 38 36 34 33 29 25 27 28 22 17 13 14 13
27 24 23 21 22 19 18 18 18 16 13 11 12 13 15 16 13 13 10 18 19 19 19 17 18 20 23 24 27 33 35 35 37 36 36 35 33 32 33 32 28 23 21 16 17
25 26 23 21 23 20 19 19 18 16 14 10 10 13 15 18 21 19 14 8 4 5 10 16 19 20 23 21 24 29 31 34 36 36 36 37 39 37 38 32 31 29 27 25 21
27 25 22 23 22 22 21 20 18 18 17 13 12 13 15 17 18 19 20 21 19 18 17 14 17 19 22 24 24 25 23 29 34 37 38 39 40 39 40 34 34 33 29 26 26
27 25 22 23 24 23 22 21 19 20 19 17 15 14 15 11 17 16 17 19 18 18 19 18 20 21 22 21 24 26 28 31 32 30 32 35 46 48 41 38 38 36 36 32 30
29 25 25 22 26 24 23 22 22 22 21 20 19 18 18 15 14 15 16 16 14 15 16 19 23 25 27 27 24 18 22 27 26 27 32 28 45 33 15 35 39 39 38 39 37
27 28 27 24 27 27 25 23 23 22 23 24 21 20 21 20 20 18 17 17 17 18 18 20 23 24 26 25 26 26 26 21 16 6 16 26 40 38 32 35 34 37 42 42 41
40 23 30 27 26 27 26 25 25 24 25 22 23 19 21 13 18 22 19 21 20 20 20 21 24 26 26 24 21 24 23 22 19 13 19 28 34 36 39 38 39 40 39 41 44
43 40 32 30 29 29 32 27 27 27 27 22 10 14 19 12 20 18 17 16 17 21 22 26 28 32 28 26 28 26 19 19 18 15 22 28 37 40 35 42 46 45 44 42 41
37 45 37 34 31 34 33 32 29 26 22 23 25 25 24 22 19 17 18 22 23 23 23 27 35 31 29 28 26 27 28 32 32 26 30 36 52 44 43 46 45 48 45 42 40
34 44 43 39 32 39 33 26 26 24 25 27 25 26 23 26 30 30 25 25 24 23 25 28 27 13 21 31 30 32 33 32 33 29 32 34 60 52 47 48 45 46 44 43 39
28 43 48 38 28 40 41 30 21 20 12 16 19 26 30 31 35 27 27 26 24 21 19 22 28 31 26 25 26 34 32 30 28 21 12 4 15 31 25 25 33 41 41 45 40
22 37 45 37 32 47 34 31 19 14 2 8 16 20 20 26 21 12 16 20 22 19 19 17 17 12 27 37 28 21 16 14 14 18 22 26 17 19 15 26 35 34 34 37 39
25 32 47 37 28 43 28 27 20 10 6 8 12 13 15 20 14 11 13 15 14 18 24 26 27 27 24 18 21 28 13 13 15 14 12 25 22 37 25 36 38 29 28 26 31
20 21 38 29 30 34 35 34 19 9 7 9 12 16 15 19 15 12 15 20 17 10 20 23 29 32 31 27 23 18 18 3 6 8 7 8 20 43 12 12 17 18 23 22 24
14 18 37 34 22 41 36 35 8 9 14 9 14 17 19 14 16 17 13 20 21 22 20 14 11 22 27 34 25 26 29 9 6 3 4 18 12 19 12 16 16 25 23 25 26
11 17 34 22 23 42 42 31 18 16 23 16 13 17 18 17 11 14 22 25 24 24 16 7 11 14 13 11 23 17 29 32 14 18 6 10 22 31 27 31 34 34 25 26 28
5 12 24 26 37 49 39 27 22 16 9 15 16 14 11 15 17 11 14 7 16 23 21 15 21 25 19 17 24 30 15 9 15 5 5 12 27 25 22 18 19 28 33 28 23
8 12 29 18 35 48 37 28 23 21 14 11 15 11 11 11 16 14 10 6 6 8 12 24 22 14 16 25 30 26 32 13 9 8 4 3 11 18 22 22 20 27 25 28 29
3 10 21 21 37 41 38 30 26 21 15 13 13 13 11 7 11 18 19 12 5 9 14 21 13 22 34 28 21 26 31 34 17 9 13 16 35 25 19 13 23 22 21 25 31
9 10 14 37 36 36 30 25 24 19 23 17 14 15 14 14 10 15 13 14 13 16 7 13 12 10 9 19 24 28 34 37 35 20 24 8 16 3 8 22 24 28 12 18 22
21 13 25 49 12 33 31 29 20 21 13 15 12 18 13 11 15 10 12 7 6 8 15 22 22 23 16 13 10 20 32 39 35 26 32 36 38 36 25 28 24 25 11 12 21
11 30 40 47 28 32 27 20 22 14 15 16 16 15 11 10 14 21 24 20 22 22 17 20 28 29 35 36 32 25 19 32 41 41 24 39 35 44 32 18 19 23 10 13 17
14 22 35 29 33 29 28 16 19 12 9 14 17 9 10 19 20 9 7 13 15 14 18 26 32 27 32 32 34 42 38 29 29 40 46 46 43 32 19 15 12 18 6 14 19
11 16 31 18 35 30 31 26 14 11 7 9 9 8 8 13 11 15 16 13 11 18 24 26 27 15 15 19 15 23 40 42 37 33 34 36 18 15 10 19 13 2 13 15 16

GFSSW_700_spd_003.txt.gz
Wind_Speed
22 21 21 21 20 19 17 18 18 17 17 18 17 17 18 21 22 21 19 22 21 21 22 22 22 23 25 27 28 27 29 34 37 33 34 25 19 18 21 17 16 18 15 11 14
24 23 18 22 20 19 17 17 16 17 16 17 17 16 13 17 18 19 19 19 21 20 20 20 21 21 22 25 26 29 34 37 36 32 32 29 28 23 18 22 20 19 17 15 14
24 24 21 23 20 19 19 18 17 16 15 16 16 16 13 14 15 15 15 18 18 19 20 18 18 20 21 23 26 31 34 34 35 29 31 32 30 27 26 27 24 23 19 20 17
20 23 23 22 22 20 19 18 17 16 15 15 16 17 17 20 14 12 12 16 18 17 18 18 20 20 21 22 25 29 30 32 33 33 33 33 32 31 31 32 29 28 25 21 23
16 22 22 21 22 21 20 18 17 16 15 14 14 16 18 22 22 12 6 4 7 12 17 16 18 18 20 18 22 25 27 30 33 34 34 35 37 36 37 33 32 34 31 27 24
28 21 24 22 22 24 20 19 17 17 16 16 15 15 16 17 15 16 14 15 15 12 11 11 13 16 18 19 22 22 22 27 31 34 36 37 37 36 37 34 34 35 36 34 31
34 30 25 24 23 24 23 20 18 19 18 18 17 16 15 10 11 14 11 10 12 14 15 16 16 16 16 17 20 21 25 27 28 28 29 29 39 42 31 32 34 37 38 38 37
29 37 21 28 24 24 26 21 19 19 19 19 18 17 16 13 12 13 12 11 9 10 12 15 16 19 19 20 19 20 23 26 24 27 30 28 39 17 12 21 32 37 38 39 39
32 40 29 29 27 26 23 25 21 20 20 20 18 17 18 18 17 13 14 13 12 13 14 15 17 20 21 21 22 22 23 23 23 18 22 26 33 28 27 32 33 29 33 42 43
32 33 44 29 33 27 24 26 25 24 23 19 18 15 19 10 15 17 18 17 17 17 18 19 22 23 23 21 19 16 21 24 22 17 22 31 43 39 32 35 36 34 34 38 45
30 31 35 45 32 30 29 36 29 28 24 20 8 15 13 9 14 14 17 21 21 20 19 21 23 27 22 20 21 22 22 20 20 18 28 35 42 40 37 40 42 41 42 41 43
29 27 32 50 45 34 34 45 34 27 21 19 23 23 15 14 16 14 16 17 18 16 19 23 28 24 23 23 23 24 26 29 32 28 29 38 53 48 45 44 43 44 44 44 43
13 16 26 39 36 41 40 35 36 23 23 25 22 20 23 24 22 19 19 20 21 23 23 25 21 13 12 13 19 22 25 23 26 28 29 35 58 50 45 44 43 43 43 43 43
17 15 17 28 39 39 37 37 35 21 12 13 20 26 27 26 27 24 26 26 25 21 21 20 23 26 27 26 19 24 24 23 26 25 16 7 15 30 35 32 26 23 33 40 41
20 19 16 22 29 39 31 37 33 21 0 10 18 20 24 28 22 12 18 27 27 21 19 12 11 11 15 18 18 22 21 16 14 14 21 24 14 25 17 18 16 15 24 28 30
15 16 18 23 23 32 30 44 33 16 6 10 11 16 19 21 17 14 12 13 13 15 18 20 23 20 19 18 17 14 18 19 14 14 12 25 19 41 24 22 22 17 22 21 20
30 21 22 20 23 37 25 40 21 8 12 11 14 15 13 19 16 12 16 19 12 9 14 16 22 21 23 21 19 19 13 4 7 9 9 8 19 40 13 9 23 30 12 15 18
38 20 18 21 23 24 39 42 6 15 16 11 15 17 14 16 16 12 10 15 19 17 10 6 6 8 11 12 17 19 29 9 6 5 5 16 12 23 10 11 25 25 17 10 16
8 11 16 19 28 48 47 30 12 19 26 16 19 20 16 17 11 15 16 17 17 21 10 4 8 9 9 8 12 15 26 29 16 16 4 9 25 39 39 37 18 16 15 20 23
7 10 14 18 32 33 41 16 14 16 18 25 11 11 19 19 16 12 11 5 12 16 16 11 12 12 18 20 21 24 14 10 13 5 5 10 17 29 25 25 24 18 17 20 24
2 4 14 23 26 39 30 17 18 16 11 15 17 15 10 15 14 16 7 4 5 3 12 16 14 13 17 17 25 25 32 23 14 8 3 4 10 16 8 14 9 16 17 16 16
3 4 29 20 50 41 21 22 15 19 19 12 11 14 11 11 12 13 14 7 5 5 11 12 11 19 30 28 27 24 31 34 20 8 11 10 29 26 27 24 21 16 18 18 15
7 7 9 1 30 36 23 21 20 19 18 15 14 12 11 10 8 10 9 8 15 12 6 9 11 9 9 11 26 32 36 36 35 24 27 11 16 10 20 8 17 23 29 28 16
12 13 12 19 21 35 28 25 23 17 17 17 13 13 9 9 10 7 5 6 8 6 10 18 21 24 19 25 21 17 33 37 39 24 27 39 42 43 38 33 17 20 21 17 14
8 21 30 34 21 29 22 24 20 17 14 13 12 8 12 8 8 13 13 16 16 13 20 20 27 30 38 41 39 36 32 27 36 42 27 32 30 34 29 22 24 22 16 12 15
7 22 27 33 24 29 25 17 19 13 15 13 13 10 10 12 12 8 10 9 13 14 17 23 28 31 39 37 29 35 40 37 35 31 36 43 50 30 35 29 21 9 21 2 21
2 18 20 32 18 23 21 9 19 17 7 6 10 9 9 4 9 7 11 16 14 13 14 19 22 22 26 25 23 13 16 32 39 40 34 33 12 13 11 12 9 20 19 13 26

GFSSW_700_spd_006.txt.gz
Wind_Speed
18 20 20 20 22 22 21 19 16 17 17 17 16 18 20 23 24 22 20 23 23 22 22 27 26 25 26 28 28 27 21 25 27 23 22 27 25 26 25 23 21 22 21 21 20
22 18 20 19 20 23 23 20 18 17 17 15 15 16 17 20 22 21 22 22 23 22 23 24 24 22 25 27 29 29 24 26 22 24 20 22 25 21 20 19 23 23 23 24 22
26 22 18 20 20 24 23 22 19 18 17 16 15 16 16 16 18 18 18 19 21 22 22 23 22 21 22 24 27 28 28 23 28 28 28 27 29 28 29 28 23 22 21 29 27
27 26 22 19 21 24 25 24 20 18 18 17 16 16 16 17 13 20 17 17 19 18 20 21 21 21 21 23 27 27 28 29 27 27 30 29 24 29 31 30 22 31 32 30 29
27 27 24 21 22 21 25 24 21 20 19 18 17 17 19 23 24 10 11 16 19 21 18 18 19 21 20 21 23 25 25 29 30 32 31 33 35 34 32 31 33 33 35 33 29
27 33 35 29 24 23 25 24 23 20 19 19 18 17 19 22 22 23 14 8 13 18 17 19 20 19 19 21 22 20 21 24 28 29 31 34 35 29 33 31 36 35 37 38 36
30 31 33 35 31 25 26 25 23 21 20 19 19 18 17 19 16 22 21 20 21 17 17 14 15 16 18 18 19 18 21 23 23 25 28 27 33 35 30 31 35 34 38 40 42
34 31 32 35 38 27 27 26 24 21 20 20 20 19 19 16 17 19 17 16 16 17 16 16 18 19 20 18 15 13 17 13 17 19 22 24 30 15 17 21 31 35 38 42 43
36 32 29 32 40 30 29 25 25 23 21 22 20 19 20 19 18 16 18 17 14 14 15 16 17 19 18 17 13 15 12 13 15 17 17 22 20 16 22 29 31 27 29 37 43
36 35 27 32 38 27 30 24 25 28 24 21 19 15 17 19 22 19 19 16 17 16 16 17 17 17 17 17 9 9 10 12 14 10 21 28 33 30 31 34 37 36 36 38 35
30 38 25 30 39 25 31 27 36 30 29 22 9 20 8 22 13 17 21 19 18 19 19 19 19 22 16 17 17 20 18 16 16 21 28 34 42 36 37 40 39 40 41 40 41
24 19 12 19 33 44 27 41 36 19 21 22 21 18 12 15 13 14 16 19 21 20 20 19 21 16 20 21 22 22 21 22 21 19 22 27 48 41 43 46 44 43 40 40 41
20 14 13 13 23 38 39 29 35 30 17 20 19 21 22 18 14 13 14 17 16 19 17 17 14 12 12 14 17 19 20 19 20 20 23 29 49 29 18 26 30 37 38 40 41
20 15 17 15 18 30 51 18 41 37 19 21 25 25 24 23 22 22 19 19 19 16 18 17 21 24 22 20 19 19 16 17 16 13 10 4 17 25 23 28 31 33 28 23 29
16 12 17 12 13 20 26 45 32 28 7 13 23 23 29 25 17 23 24 24 24 21 18 11 10 9 14 14 13 13 16 11 12 15 17 23 12 29 19 22 22 7 14 22 22
20 16 16 20 18 18 20 36 30 20 6 14 22 23 26 30 26 17 19 20 20 19 24 20 20 17 15 13 13 12 10 11 13 13 10 34 22 33 36 29 23 21 6 16 22
34 35 34 26 20 29 20 30 30 8 12 16 21 23 22 28 21 21 19 19 11 9 12 10 19 19 19 14 16 14 7 3 5 8 9 14 15 36 29 20 16 17 21 12 15
40 25 18 23 18 32 25 44 8 12 16 14 21 21 14 22 15 15 14 19 18 14 5 5 4 12 7 13 6 16 18 8 7 11 15 11 15 33 29 26 17 19 25 23 24
19 11 4 18 28 33 27 30 11 20 24 23 23 20 17 18 15 17 15 17 16 20 10 7 6 10 8 7 11 9 23 21 25 25 15 22 27 28 33 35 33 28 19 13 18
15 4 11 20 31 25 30 13 11 21 22 26 15 11 13 22 13 17 13 7 15 18 14 7 7 13 17 17 22 23 10 10 14 7 17 13 22 26 18 18 20 20 16 21 16
25 6 14 17 27 32 32 10 23 21 25 15 10 13 11 20 15 16 8 6 10 8 18 12 11 6 12 16 16 19 28 24 20 15 7 14 18 15 7 7 9 9 17 15 19
24 4 13 14 19 20 24 31 23 22 17 13 9 9 11 14 17 14 13 12 10 12 15 17 9 13 22 18 19 21 24 27 18 12 12 17 35 27 22 22 25 22 19 25 19
17 14 25 21 10 22 20 25 24 18 14 11 9 8 9 11 7 13 8 13 13 12 5 11 10 7 8 6 9 20 26 36 39 29 28 14 31 7 13 19 19 22 30 20 22
9 10 23 24 13 26 19 18 18 13 12 9 9 9 10 10 12 6 8 7 9 12 14 12 14 18 16 25 22 23 26 28 34 26 32 37 47 33 30 32 29 21 18 21 28
9 13 20 19 21 21 19 16 16 15 10 9 8 9 9 9 8 12 11 11 10 12 15 13 22 25 33 35 35 37 37 36 33 38 29 42 31 31 26 23 24 29 20 21 28
13 16 10 14 22 25 18 18 14 10 7 8 5 7 7 9 9 5 8 12 10 14 25 25 23 24 36 34 26 33 36 30 34 38 39 36 40 17 21 19 19 13 7 9 13
11 15 14 11 18 20 22 14 13 9 6 9 11 9 10 5 7 11 15 17 17 12 14 17 16 19 18 18 32 14 19 12 15 22 31 35 18 16 18 22 7 10 9 5 15

GFSSW_700_spd_009.txt.gz
Wind_Speed
20 21 17 21 21 22 23 23 21 20 19 20 19 19 20 23 22 22 23 26 30 28 24 27 29 27 27 27 27 24 23 28 27 26 26 18 22 19 18 19 19 16 20 22 27
23 29 26 20 23 22 24 22 22 22 19 19 19 18 18 20 18 19 22 25 27 26 24 24 25 24 24 26 27 24 24 26 21 20 24 20 20 14 15 18 21 19 21 28 27
26 26 25 27 24 23 22 23 24 22 20 19 18 17 17 15 15 15 22 24 23 24 24 24 21 18 19 23 24 19 29 19 22 23 21 20 22 20 21 21 17 19 17 17 28
28 28 29 27 28 25 22 24 23 23 21 19 19 17 16 13 12 17 20 21 21 20 22 20 20 19 18 21 22 23 18 25 22 20 24 22 19 24 24 26 21 20 21 22 27
31 30 29 30 29 27 25 24 24 24 22 20 20 18 18 21 24 15 8 18 18 20 18 18 17 15 15 13 16 20 20 18 21 28 27 24 26 25 25 24 23 25 28 37 31
26 30 31 30 31 29 26 26 22 24 23 21 21 20 21 24 25 22 11 12 20 22 21 20 19 15 13 17 18 7 18 22 22 24 24 26 30 25 27 28 31 31 31 32 32
29 27 29 31 33 38 36 28 24 26 24 22 21 20 23 22 25 27 23 13 9 22 21 22 22 20 14 14 17 19 22 21 25 24 22 18 28 32 26 27 30 30 30 34 38
33 30 30 30 30 35 40 30 27 26 23 22 22 21 23 23 23 21 26 26 22 20 19 17 16 17 19 16 14 11 13 12 6 15 18 20 25 14 13 15 19 26 28 31 34
32 37 34 33 28 33 40 40 28 26 25 23 23 22 23 23 22 24 20 21 19 26 26 21 17 17 18 13 9 13 12 13 13 13 11 17 17 10 14 23 22 21 20 23 26
34 30 32 32 28 31 36 40 31 33 28 25 26 20 22 25 24 22 23 22 17 20 21 22 20 16 15 15 10 11 15 12 14 7 13 19 26 26 24 27 26 27 29 28 26
32 27 20 23 17 28 35 36 33 28 30 31 18 29 11 22 26 25 22 18 19 18 19 20 18 19 16 17 18 12 9 15 15 15 22 26 29 27 27 32 35 35 34 35 36
26 18 20 15 12 13 34 36 19 35 34 30 23 16 25 12 18 26 25 21 20 18 15 16 21 16 14 15 16 15 17 19 19 18 21 25 40 33 34 36 36 36 37 37 35
23 17 15 16 14 13 22 44 16 32 23 32 29 25 16 17 17 20 19 21 19 17 19 15 11 12 16 15 16 17 18 17 18 19 24 28 43 11 11 13 19 22 27 28 27
21 19 16 13 11 14 15 41 21 25 16 21 35 28 26 20 15 17 18 19 17 17 15 15 19 21 18 18 15 15 14 16 15 13 10 3 16 17 15 14 20 23 28 27 28
24 16 15 16 10 6 12 32 22 24 5 14 30 19 24 22 18 22 20 19 13 14 18 8 12 16 13 13 13 9 10 7 9 14 20 22 14 21 14 26 27 28 21 18 15
22 24 22 14 17 7 17 13 35 9 5 14 23 27 30 24 22 18 25 22 20 13 16 15 15 16 12 12 13 9 7 7 10 9 10 24 23 35 26 20 19 21 19 20 18
22 36 27 24 20 16 18 19 12 6 9 15 23 26 28 27 18 22 26 26 17 13 17 15 22 16 18 11 11 12 5 2 5 7 9 7 12 32 31 26 29 23 18 16 20
33 17 16 15 26 28 23 24 3 10 12 11 24 22 22 25 15 19 19 21 18 11 7 10 6 19 11 19 5 16 15 7 6 9 15 22 14 27 21 26 25 25 24 23 19
28 19 7 13 28 35 19 27 10 19 18 26 23 23 15 23 15 19 19 18 18 19 11 7 4 11 10 7 14 7 18 17 23 27 19 21 29 33 35 31 29 26 22 23 21
34 7 10 13 25 23 19 11 9 12 20 26 13 12 15 25 13 18 18 14 16 20 14 5 3 5 9 13 15 17 5 7 11 6 12 17 27 29 22 28 18 18 19 18 16
33 6 10 17 27 19 17 4 16 18 25 10 10 14 12 24 14 19 15 5 17 14 18 8 6 4 10 11 11 13 24 20 15 16 7 12 22 20 17 8 8 11 11 13 14
21 10 11 21 14 20 16 11 21 26 21 12 8 7 16 20 13 14 11 4 15 12 19 11 5 10 18 15 12 17 22 21 18 11 17 25 38 28 25 25 21 20 18 14 21
8 16 16 15 8 20 14 17 17 19 11 10 9 10 13 17 9 11 11 12 10 12 10 14 7 5 4 2 12 19 23 28 35 35 36 19 27 7 13 13 16 19 23 26 24
19 15 11 10 15 19 18 22 23 18 10 9 10 9 12 13 6 12 6 7 11 11 15 10 12 15 12 15 16 22 29 29 30 29 36 41 46 40 27 24 22 24 22 20 19
19 19 14 12 18 17 9 10 11 10 7 8 7 7 8 6 7 4 8 7 7 11 15 15 18 19 27 28 27 31 34 34 39 44 37 53 35 33 25 26 28 22 22 23 18
22 18 5 15 11 8 7 8 7 7 6 6 4 8 8 5 4 5 7 9 7 9 13 17 15 16 31 21 17 27 35 27 21 23 33 39 45 29 23 18 18 15 22 14 19
15 21 11 11 14 10 6 7 8 4 5 8 7 5 7 8 8 11 10 11 11 9 11 17 14 10 10 13 26 13 17 17 14 12 16 25 21 18 22 25 28 28 15 21 26

GFSSW_700_spd_012.txt.gz
Wind_Speed
24 23 23 25 23 24 24 22 24 23 21 21 20 20 20 21 23 25 25 24 27 28 26 26 28 26 25 24 22 20 25 27 28 25 24 16 22 17 24 25 18 15 23 16 19
25 25 24 25 29 27 26 23 24 24 22 21 20 20 19 20 21 24 21 26 24 22 23 23 23 25 25 23 24 27 31 30 21 19 19 22 23 22 19 17 23 19 19 23 25
22 24 25 26 26 28 29 27 23 24 22 21 19 19 18 18 19 19 22 22 21 21 20 21 20 19 23 18 22 25 32 20 24 20 24 25 21 16 19 17 15 14 18 22 24
24 24 25 26 27 26 29 26 26 20 24 21 19 18 18 16 10 14 18 15 16 17 20 22 24 21 20 21 18 23 15 19 26 20 18 28 31 28 22 25 23 19 18 19 23
30 26 24 26 27 26 28 29 28 25 25 22 20 19 18 19 21 10 5 12 15 18 18 20 22 19 16 13 16 18 20 21 17 27 31 30 26 34 34 27 28 30 28 31 29
31 29 27 26 28 27 27 33 30 27 23 22 21 21 20 22 18 20 20 13 16 20 18 16 18 19 16 18 14 10 20 22 24 21 28 31 35 32 32 26 29 31 35 38 41
22 23 26 26 27 27 29 32 37 28 25 22 21 22 24 22 22 23 16 17 13 20 22 19 21 20 23 14 19 22 22 20 24 25 30 26 33 35 27 26 30 30 30 35 41
32 27 28 28 30 29 28 34 36 33 27 20 21 24 25 26 26 21 25 16 11 15 18 22 19 20 17 18 9 15 14 18 14 11 16 20 34 24 6 15 19 24 28 33 32
38 33 30 28 29 31 28 32 39 36 29 20 22 25 23 25 24 21 19 23 26 18 17 17 15 19 20 20 10 10 11 14 11 11 10 17 22 3 7 18 22 18 20 20 27
32 31 27 26 25 23 22 29 30 32 29 24 28 22 25 23 22 19 22 19 22 20 22 21 16 16 19 17 9 9 15 12 12 10 14 17 25 24 22 21 25 28 26 29 28
29 25 22 17 19 14 13 16 25 33 35 35 18 26 11 25 22 21 20 20 15 18 17 20 22 25 18 13 17 12 11 10 13 12 18 25 32 32 30 31 31 34 34 33 32
22 19 20 17 17 13 9 18 24 31 32 32 25 26 24 9 19 23 21 23 21 20 16 19 25 19 13 13 14 15 15 19 19 15 19 27 35 34 32 33 32 31 33 32 31
21 19 19 17 12 10 11 10 28 24 22 32 25 24 26 17 17 19 25 22 21 20 20 14 7 13 18 14 16 15 15 16 19 20 26 29 34 6 9 12 11 12 17 18 22
22 22 20 16 11 6 5 8 34 17 13 29 30 23 18 21 12 18 21 23 18 19 16 14 15 10 9 14 9 9 11 15 15 13 6 3 11 28 26 26 16 19 23 27 27
20 16 22 21 12 6 8 1 39 7 6 19 32 21 21 20 17 20 23 20 17 16 21 10 13 17 13 12 9 10 12 13 13 11 19 20 10 35 17 20 21 23 17 21 25
20 20 28 22 17 8 9 4 34 5 4 18 32 26 30 19 16 22 26 22 15 13 16 12 9 11 10 7 13 11 9 10 9 10 7 11 21 45 20 17 11 16 22 21 19
28 35 23 15 16 14 13 13 14 7 20 19 30 33 31 23 18 23 28 25 16 13 17 19 18 18 15 13 10 13 6 2 3 4 7 2 14 36 13 20 18 29 27 19 14
33 23 12 8 12 17 15 25 3 4 8 18 28 28 26 24 17 20 22 23 21 9 4 11 3 18 14 20 7 15 13 5 5 3 4 19 12 12 9 16 25 25 32 34 27
22 17 12 3 22 27 22 15 5 10 18 26 28 28 21 24 15 19 19 20 18 19 8 8 3 4 8 12 15 8 17 6 9 19 11 12 15 26 19 19 22 15 18 21 21
10 11 15 16 26 29 19 6 12 14 16 30 15 15 18 27 15 18 17 11 16 19 14 6 2 6 11 10 19 14 4 6 7 3 6 7 18 19 22 23 24 28 24 19 16
13 17 14 12 23 18 9 2 12 18 15 4 10 14 13 28 12 18 10 1 17 17 19 8 7 6 15 13 16 20 23 13 7 8 3 6 5 11 21 21 20 16 18 19 18
12 17 15 13 8 13 9 17 18 16 15 15 9 10 17 26 13 14 11 2 12 11 21 12 6 10 18 9 8 16 14 18 9 8 13 18 31 22 9 13 18 23 31 30 28
14 18 18 12 7 5 5 18 21 16 11 9 12 11 9 19 8 9 11 13 20 17 18 16 8 3 2 3 14 16 17 21 30 32 31 14 24 23 29 33 39 23 21 21 25
20 16 17 1 11 10 9 14 17 15 12 12 14 13 17 15 8 13 11 13 13 17 13 9 10 11 7 5 9 17 22 24 28 21 29 43 57 54 45 40 32 26 26 26 22
21 22 9 10 12 4 9 13 13 13 12 9 10 10 10 11 7 10 8 8 12 17 18 17 13 15 20 22 23 25 23 21 30 38 35 51 46 44 38 38 40 38 29 23 28
15 15 14 16 7 14 7 9 10 9 8 6 6 10 11 8 6 9 10 7 6 9 14 15 10 12 25 9 8 19 21 23 26 24 28 30 35 28 19 9 9 20 24 24 27
7 15 11 16 10 4 4 4 5 4 3 6 8 7 9 11 10 9 11 9 8 10 9 13 9 10 8 10 20 9 8 14 22 15 20 30 34 30 22 17 24 30 31 36 30

GFSSW_700_spd_015.txt.gz
Wind_Speed
22 21 21 20 21 23 25 24 26 24 24 25 22 22 22 23 24 26 27 20 27 26 22 25 24 24 26 27 28 26 30 32 33 28 28 18 21 12 13 19 21 22 17 20 17
23 23 23 22 23 24 26 28 27 26 24 24 22 22 21 22 23 27 21 25 23 23 23 23 19 21 27 25 28 33 36 36 29 28 23 16 20 21 14 21 20 22 22 19 23
27 25 25 25 25 24 26 29 30 27 23 23 22 21 20 21 23 20 22 22 21 22 21 20 20 19 25 26 30 33 37 32 28 20 19 26 27 23 26 17 22 22 21 18 21
33 31 28 28 28 27 25 27 30 27 25 22 22 20 20 21 14 16 18 17 17 20 20 21 23 22 22 29 28 30 31 26 26 21 28 27 31 32 23 29 23 24 29 22 21
31 32 29 29 28 29 27 26 30 28 25 22 17 21 21 23 21 9 8 16 14 17 15 18 23 23 24 22 23 24 25 20 20 23 30 30 33 36 37 28 31 31 32 32 23
33 31 19 25 28 31 28 26 30 32 26 26 24 23 22 25 19 19 12 11 13 16 15 16 23 22 17 15 20 13 18 18 26 27 30 34 37 35 35 32 38 37 35 37 36
33 32 28 27 33 32 30 27 29 35 29 26 24 23 25 20 22 19 19 14 12 18 18 16 18 20 19 20 21 22 21 24 27 26 29 29 38 39 32 26 30 35 35 35 44
36 34 32 28 27 28 32 29 28 31 32 31 20 24 25 23 26 23 20 15 14 17 20 20 19 19 18 19 18 23 20 26 19 16 20 25 40 28 19 18 24 26 31 36 36
28 26 26 23 22 24 22 26 27 34 39 29 25 26 22 24 27 22 17 19 12 12 19 22 22 20 21 16 14 17 13 13 7 11 12 18 24 13 17 23 23 23 22 22 28
26 25 22 20 18 16 13 14 23 30 26 26 29 22 22 25 23 22 21 20 23 15 20 19 23 23 24 24 18 14 17 11 12 6 12 17 24 24 19 22 25 25 26 27 25
21 18 18 20 16 17 13 11 12 24 35 33 24 25 8 15 23 22 21 21 17 23 22 14 17 20 18 19 18 15 7 14 15 13 16 20 26 29 25 28 31 31 32 31 28
21 18 18 19 17 14 6 3 17 23 31 33 19 22 10 19 18 24 23 24 21 21 23 21 22 19 13 10 11 15 16 18 15 18 19 29 38 35 32 29 28 27 31 31 28
18 15 12 19 16 12 8 5 26 13 26 34 25 21 23 13 21 25 25 24 20 21 20 15 8 13 18 18 17 20 20 19 16 18 22 30 40 31 19 17 11 9 9 13 15
11 12 11 15 14 8 3 6 31 18 12 25 27 23 23 18 18 21 25 19 21 20 17 11 10 5 18 23 19 15 15 13 12 13 8 7 12 32 21 22 22 26 24 22 21
10 15 16 18 16 10 5 5 18 18 5 29 31 22 24 24 20 26 27 19 20 20 19 10 11 14 12 13 16 11 11 13 16 18 20 22 13 19 21 21 15 16 20 21 27
14 23 18 19 16 12 12 3 22 4 4 17 28 28 32 16 20 28 27 18 17 14 16 10 9 10 15 13 15 11 13 10 10 11 5 16 18 8 1 1 2 13 23 22 22
20 20 15 9 2 13 9 7 8 5 13 23 33 34 29 24 20 33 27 23 16 15 20 17 15 14 12 12 13 16 9 1 2 3 6 4 11 26 14 12 21 21 23 25 29
23 17 13 3 12 19 15 14 6 1 10 24 34 35 27 23 21 26 23 24 16 11 17 16 5 22 17 22 10 18 12 5 6 3 4 3 11 8 8 14 15 21 23 25 29
13 16 11 15 23 21 17 9 3 9 24 29 33 33 23 19 16 22 20 21 23 16 7 8 5 4 6 10 15 12 15 5 5 7 4 9 14 24 19 13 14 18 21 22 20
15 20 20 20 17 16 8 5 8 11 22 32 18 16 22 23 16 20 18 13 19 25 10 8 3 4 5 12 19 10 5 6 4 2 5 9 13 22 20 20 19 24 22 20 21
17 24 22 19 17 14 9 7 15 31 20 10 14 13 22 26 13 19 12 2 11 18 17 9 7 8 11 11 18 19 13 6 4 5 4 4 7 14 16 20 28 18 19 19 21
15 24 19 16 8 5 3 6 28 16 18 15 5 14 23 24 15 17 10 5 14 11 24 13 6 10 15 4 5 15 17 18 6 5 12 9 20 10 9 6 12 19 35 32 19
18 23 18 14 8 12 9 23 20 16 13 12 7 2 17 21 11 11 12 9 13 14 21 16 8 3 3 4 12 13 15 18 21 26 28 8 16 12 24 44 50 47 35 34 28
17 14 17 13 9 11 16 13 16 18 17 16 17 21 26 10 6 14 14 13 16 15 12 9 7 6 6 4 4 11 19 21 23 20 29 43 49 53 48 43 35 31 33 27 25
12 9 11 12 10 10 12 10 15 16 16 18 19 14 14 9 12 12 11 14 16 20 11 14 9 12 16 17 18 21 23 23 28 35 30 49 45 37 38 40 35 24 27 25 32
11 17 17 16 14 13 17 16 13 10 10 10 17 14 13 10 5 11 9 11 9 20 19 18 9 11 17 5 5 14 14 14 18 22 31 34 41 31 38 28 23 25 24 20 23
13 13 6 7 8 7 9 7 7 7 8 8 11 11 7 10 8 9 8 7 5 8 11 14 8 6 5 6 15 7 0 8 15 15 18 25 30 26 22 21 25 26 30 32 33

GFSSW_700_spd_018.txt.gz
Wind_Speed
31 31 30 30 28 28 29 31 31 29 24 21 22 23 23 24 25 28 28 21 25 25 23 26 27 28 30 30 29 28 32 35 34 30 29 20 23 20 11 10 22 22 23 23 19
34 35 34 33 32 31 31 30 31 28 30 23 21 22 23 24 24 30 19 25 25 25 25 23 23 28 32 30 32 34 38 39 35 32 28 23 22 24 19 15 21 22 20 23 18
39 37 35 34 34 33 32 32 32 34 28 29 21 22 23 23 25 22 24 24 22 24 22 23 25 29 30 30 34 36 41 38 34 29 25 27 25 25 17 20 22 23 23 27 26
31 28 26 27 33 33 31 31 30 32 34 30 20 23 23 23 15 19 23 22 21 22 25 25 28 29 30 33 32 34 36 35 30 27 27 26 28 31 27 22 26 28 27 29 25
27 29 28 29 26 27 31 28 28 28 31 30 25 24 27 27 22 9 13 18 19 21 22 24 27 27 29 31 29 35 33 32 29 28 27 32 33 33 37 30 24 30 32 32 37
27 31 30 28 27 27 30 28 28 25 29 32 26 28 28 29 17 18 12 19 17 19 20 24 25 23 24 19 26 20 27 25 28 27 30 35 39 40 40 36 33 34 35 34 40
30 30 28 27 27 25 29 33 30 26 27 31 34 19 27 20 22 23 17 17 17 18 18 19 21 23 19 17 19 22 16 20 25 27 33 31 42 48 40 32 39 41 41 39 39
26 23 21 19 20 23 22 22 25 28 28 36 28 25 28 22 23 24 25 20 15 16 18 16 19 24 21 16 14 18 17 23 24 21 23 25 46 37 33 36 38 38 43 46 45
21 19 18 15 15 18 17 16 19 26 29 36 29 27 26 26 27 22 19 19 15 17 22 22 18 18 19 21 13 14 19 21 20 21 22 25 34 24 23 29 33 31 31 39 45
17 15 13 14 15 14 14 12 14 19 29 39 26 19 19 29 25 25 23 22 18 16 24 27 27 27 23 21 17 16 22 22 19 9 19 26 29 26 22 23 25 30 32 31 31
15 12 11 11 12 12 10 4 7 16 30 43 17 21 10 18 22 27 24 26 24 20 25 27 27 23 24 21 17 15 9 9 19 17 21 27 32 32 25 28 29 28 27 27 27
12 10 8 5 11 10 6 2 9 14 28 24 15 30 12 21 29 26 26 27 25 23 22 15 18 23 16 15 16 16 20 18 19 18 23 28 37 34 31 30 29 29 32 33 33
10 7 7 9 13 8 8 4 13 13 26 30 18 21 18 21 26 31 29 26 22 19 19 19 7 16 17 14 14 12 15 17 19 21 25 31 41 36 30 28 26 23 18 17 24
11 12 14 15 13 6 4 6 17 18 10 15 24 24 22 25 23 30 25 24 24 23 19 14 10 9 21 18 17 15 17 19 20 18 11 13 11 31 25 24 20 18 21 23 24
18 18 21 17 22 11 5 6 8 18 5 17 27 23 25 24 29 30 28 21 21 20 17 10 15 11 18 20 17 15 15 13 14 18 22 25 12 18 13 19 13 17 22 16 18
20 21 18 12 13 11 9 5 12 7 3 13 23 32 27 13 33 30 24 19 18 15 17 11 11 13 14 12 14 18 15 13 15 14 5 11 15 4 6 2 2 7 13 18 21
25 16 9 5 2 12 11 13 9 2 5 30 33 32 28 24 25 33 25 23 15 16 14 14 12 9 9 13 14 16 10 3 3 1 6 6 8 21 7 4 16 19 15 21 22
20 14 7 10 18 17 16 11 1 5 4 35 33 33 28 23 29 33 24 25 19 15 17 12 7 17 13 14 6 13 14 5 5 2 4 4 9 1 3 10 13 16 19 18 22
20 17 20 22 16 15 15 6 4 5 23 37 37 30 24 21 22 27 24 22 19 16 8 14 6 7 9 11 15 11 14 11 4 4 3 8 9 18 18 19 17 15 17 21 26
22 26 25 22 19 14 8 6 12 20 26 39 20 18 21 20 22 21 22 20 24 18 8 9 6 5 7 9 17 8 10 6 4 1 4 6 10 18 8 15 21 24 26 23 21
23 32 24 20 12 6 6 13 23 32 30 13 7 16 25 24 15 21 15 5 19 22 11 11 5 6 9 10 18 18 10 7 5 6 3 4 8 7 21 20 19 26 21 22 24
23 27 20 13 15 15 16 24 21 21 16 12 3 12 25 24 15 17 13 6 9 15 24 11 6 6 11 5 3 12 20 17 6 4 7 3 15 3 8 15 21 36 46 46 41
23 19 15 19 21 25 27 27 21 17 13 8 5 11 19 22 12 11 12 5 15 13 23 15 6 4 3 9 17 15 21 24 22 20 16 3 12 5 18 41 35 37 42 41 32
16 13 15 21 19 15 20 20 18 16 12 9 10 13 23 15 8 14 15 11 13 12 17 11 7 6 6 2 6 13 14 17 19 15 19 31 42 39 36 40 38 38 38 34 30
8 11 11 14 13 12 10 14 14 15 17 17 22 24 15 10 13 17 15 15 16 15 15 13 7 13 15 16 17 19 20 20 25 31 27 39 40 37 31 33 37 32 32 33 30
7 13 14 13 14 13 17 12 11 10 11 14 14 12 7 15 3 16 15 16 13 21 18 16 8 9 15 11 14 19 18 17 20 24 33 32 35 26 30 27 29 28 31 32 30
6 8 6 8 8 8 10 7 7 7 8 14 12 11 9 7 6 6 6 12 7 10 23 17 9 4 5 3 12 14 5 9 9 14 17 22 24 25 26 27 29 30 28 23 18

GFSSW_700_spd_021.txt.gz
Wind_Speed
38 39 41 41 37 38 37 37 36 37 33 34 24 23 25 26 27 30 32 21 24 26 28 29 32 31 31 30 29 30 33 35 34 31 28 23 22 21 24 16 16 21 23 22 21
42 38 33 39 39 39 38 35 37 36 36 32 28 17 25 25 28 33 20 23 27 28 29 28 28 31 34 32 31 33 39 37 32 31 27 28 24 27 25 18 17 21 23 24 23
40 33 28 29 27 23 30 35 34 32 30 30 35 24 22 24 29 27 24 25 25 27 27 26 30 33 35 35 37 38 41 33 32 31 29 28 25 29 28 27 20 20 24 25 24
30 28 29 30 29 30 25 23 26 27 26 33 33 30 22 25 18 19 22 22 23 24 28 30 32 33 35 37 37 37 37 33 34 32 30 27 31 32 32 31 27 24 25 27 25
26 26 25 28 33 26 28 26 19 20 24 30 34 31 24 33 26 7 14 19 22 26 28 30 31 31 32 34 34 37 35 34 33 29 30 31 34 30 36 34 29 29 30 30 29
19 20 22 22 22 22 25 29 29 23 20 25 34 34 29 28 17 21 11 19 22 24 26 30 30 27 26 27 32 28 36 32 29 29 30 32 32 34 38 34 34 35 32 33 33
18 19 19 19 20 20 17 20 23 24 22 24 32 35 33 26 22 23 15 18 22 22 24 25 25 27 21 25 20 30 17 26 31 28 30 29 38 43 38 32 35 40 37 34 36
17 15 14 14 15 17 16 18 17 17 21 27 34 27 34 28 25 27 19 22 20 20 20 21 25 25 19 17 14 17 24 19 22 24 27 25 46 36 33 35 38 37 42 43 41
18 17 13 11 13 15 13 11 12 15 18 30 36 22 17 18 28 30 26 21 17 20 22 23 23 23 21 18 13 17 10 19 20 19 21 27 37 30 25 30 33 32 37 43 48
20 18 17 12 11 14 11 13 12 9 19 30 34 21 18 24 24 29 29 22 19 21 24 26 25 26 27 25 17 14 17 19 22 14 16 22 33 30 25 26 28 30 34 37 41
24 20 17 13 10 12 9 6 8 11 24 29 38 13 21 19 30 26 25 26 21 22 27 27 29 28 24 22 21 14 16 14 16 21 26 27 28 29 27 32 33 32 29 28 29
22 17 15 9 12 13 7 4 1 5 22 31 25 22 25 20 32 26 29 25 22 24 27 26 27 22 23 22 20 12 13 14 16 16 20 28 34 31 31 32 30 29 28 27 29
21 12 15 11 17 14 6 4 3 9 21 31 19 22 15 24 28 30 27 23 23 19 25 28 15 23 21 18 20 18 19 18 17 16 21 25 36 29 25 27 26 24 25 28 34
20 17 17 19 18 9 3 2 12 15 16 22 19 22 21 20 25 30 23 20 19 18 7 7 9 14 17 16 16 15 12 12 15 16 9 10 10 30 25 22 23 22 20 13 16
20 20 18 17 18 12 1 4 17 17 6 15 23 22 25 24 26 27 25 24 17 18 12 8 14 13 17 20 17 13 11 10 12 14 16 20 10 15 20 17 15 19 17 19 22
21 14 11 1 6 4 9 13 20 4 4 12 16 23 29 16 31 30 25 21 17 14 14 8 14 9 14 17 16 12 11 10 13 14 4 6 9 9 4 4 4 4 8 12 16
21 12 9 9 12 15 15 16 6 3 8 18 27 30 26 26 28 27 25 20 12 12 13 11 13 13 11 12 13 15 11 2 3 1 5 4 5 12 9 7 5 15 16 18 16
28 22 22 21 22 23 16 5 5 7 3 21 32 29 26 28 26 27 21 21 14 11 17 12 6 12 9 15 10 15 12 4 4 2 4 7 7 1 4 16 12 15 17 18 20
27 25 25 25 21 17 13 7 4 5 24 30 31 27 25 24 17 26 22 21 17 12 8 13 5 12 8 13 12 10 11 11 1 1 2 5 9 16 13 13 14 15 18 21 23
18 23 27 22 16 9 11 12 20 25 36 32 21 15 18 21 20 21 22 19 21 16 12 8 6 8 14 13 16 13 10 5 6 1 3 5 10 13 6 7 14 17 22 26 30
18 21 13 9 8 16 22 23 29 30 28 14 8 17 22 24 20 25 18 7 23 19 11 13 4 10 10 12 16 16 12 6 5 2 3 3 7 4 9 10 12 17 32 39 39
16 21 21 21 21 22 22 24 23 19 18 13 6 18 22 22 18 25 15 5 13 23 16 11 6 6 10 5 8 13 12 10 4 4 4 3 11 1 6 14 24 44 36 35 37
15 18 21 23 29 28 25 21 17 12 11 11 8 11 17 18 10 15 14 14 10 25 19 14 6 5 3 8 13 13 17 19 16 8 8 2 8 9 24 33 32 33 32 30 29
7 8 13 16 18 20 21 16 13 8 5 9 8 9 18 18 5 15 13 9 11 11 16 10 8 5 4 1 4 9 16 15 19 9 11 26 30 25 31 30 32 32 31 30 33
6 7 8 8 10 10 9 11 9 9 10 6 12 16 17 13 12 13 17 12 12 12 17 14 4 9 12 11 13 12 11 11 20 24 20 27 33 27 26 29 29 30 30 30 29
2 4 8 9 8 10 10 8 7 6 4 16 22 17 5 11 5 14 17 15 11 16 15 15 6 7 11 11 16 21 22 25 27 29 35 33 31 19 23 24 23 29 30 24 24
6 4 2 2 6 7 6 4 5 6 8 10 10 7 6 6 2 8 6 8 5 7 17 14 6 8 5 3 9 16 15 19 18 15 15 20 19 18 19 22 26 28 26 22 18

GFSSW_700_spd_024.txt.gz
Wind_Speed
42 38 36 33 30 38 42 44 35 37 37 40 40 29 20 24 28 31 35 27 23 27 28 28 32 32 33 32 31 31 34 36 36 31 29 24 22 23 25 26 22 19 20 18 16
34 34 31 30 31 30 31 27 34 30 34 34 37 37 25 23 27 34 29 23 24 29 29 30 32 33 34 33 33 34 38 38 32 27 29 27 25 23 24 27 24 21 22 21 19
33 27 21 21 23 29 32 28 28 24 26 30 35 40 37 17 26 29 24 25 28 29 29 27 29 32 34 33 35 37 40 35 28 27 30 32 25 25 25 25 25 21 20 21 20
26 21 19 18 20 23 30 32 29 26 20 23 31 41 36 21 17 12 25 25 28 28 29 30 33 35 36 38 37 35 37 31 27 30 33 33 30 26 25 25 27 26 22 22 23
20 18 18 18 19 22 22 21 23 25 19 18 27 34 38 36 24 5 16 25 28 29 31 32 34 35 35 36 36 37 35 31 29 33 34 35 33 29 29 29 30 32 29 24 23
20 17 17 19 19 19 21 20 19 21 21 20 26 36 36 39 23 20 9 23 26 28 30 31 32 31 28 31 34 28 36 33 31 33 34 34 33 31 32 28 28 34 33 29 26
19 20 17 18 17 17 17 19 20 18 16 21 24 38 32 40 24 28 16 21 24 25 28 28 28 27 26 27 25 31 22 29 34 32 29 30 36 38 32 28 26 31 38 36 32
21 21 21 18 19 16 16 17 16 14 14 17 23 38 36 29 32 28 21 21 25 23 22 22 27 25 21 19 16 18 26 22 22 27 29 26 39 16 20 27 30 30 34 39 40
27 25 25 20 18 18 15 15 12 11 12 17 24 34 28 36 26 23 21 25 27 26 23 23 26 26 20 18 14 17 12 25 25 20 20 27 32 26 25 29 30 30 31 35 39
28 28 23 19 15 16 15 13 15 11 10 17 19 23 17 22 26 28 22 28 28 27 28 28 24 28 25 22 17 15 17 14 18 17 22 27 31 32 28 28 30 28 27 29 33
29 19 19 12 11 15 14 12 7 9 11 18 26 15 21 24 27 37 26 22 17 23 33 32 26 33 31 24 16 13 13 12 13 17 25 28 32 32 25 28 30 29 26 26 26
27 12 11 10 11 14 13 8 7 5 14 15 26 19 15 18 33 32 26 21 21 23 21 29 27 22 19 22 20 16 12 12 11 16 20 26 34 32 27 29 27 26 25 25 25
26 21 14 11 13 17 6 4 4 5 20 19 18 13 19 24 32 28 28 26 21 22 22 29 19 23 19 21 19 16 12 14 17 18 19 24 30 24 21 23 22 21 21 19 23
23 21 16 8 11 6 2 4 7 20 12 22 18 13 22 25 33 21 20 18 15 22 29 18 12 19 21 26 21 18 16 14 12 10 6 8 9 20 17 11 15 19 21 20 16
21 17 13 6 6 8 6 9 20 14 5 16 15 21 17 21 27 22 12 20 10 10 7 7 15 12 16 16 17 11 9 7 8 9 12 11 6 11 14 12 14 15 13 13 18
28 22 14 8 8 11 14 21 11 3 3 8 15 23 23 12 27 25 14 11 11 12 8 7 9 7 10 13 12 8 7 6 9 10 2 4 5 9 1 2 4 3 1 4 11
33 30 31 29 23 20 22 12 5 6 14 15 17 29 21 20 23 26 17 14 8 9 11 14 12 9 8 13 13 13 7 2 3 1 4 1 5 7 4 4 6 4 11 12 14
33 27 29 28 25 20 10 8 10 7 7 16 25 24 19 19 18 21 19 14 9 6 16 9 6 12 11 13 7 14 11 3 4 1 3 6 7 1 4 5 11 11 16 17 18
25 23 20 21 18 11 7 12 5 7 14 28 26 25 21 18 13 18 19 16 10 7 3 7 5 14 11 12 11 11 10 10 1 1 2 4 7 7 4 5 7 11 13 19 22
15 11 11 8 7 13 23 20 15 24 34 27 15 12 14 17 15 17 15 13 14 9 7 5 6 10 13 13 13 9 6 5 5 1 3 5 7 4 2 4 10 12 22 26 30
14 15 13 15 15 18 25 25 28 24 20 11 9 17 18 22 12 18 14 7 14 13 11 7 5 7 12 10 12 12 12 6 5 3 3 2 3 3 3 10 14 17 28 34 31
17 11 10 9 12 18 23 20 21 16 11 8 5 11 18 22 17 18 15 11 14 16 13 10 4 4 9 5 8 11 10 13 4 4 3 2 5 2 1 21 27 28 28 29 28
11 12 12 9 17 22 20 17 13 11 9 6 3 6 11 18 10 17 18 16 4 22 12 10 2 5 2 6 9 13 19 16 12 6 8 4 4 4 18 24 20 24 27 31 33
7 2 6 6 14 17 16 10 8 4 7 9 7 7 11 14 7 15 11 12 12 11 17 10 8 4 6 1 4 11 17 18 20 9 7 19 20 14 19 22 22 23 32 33 31
6 3 3 4 4 5 7 7 4 4 5 5 7 7 14 12 10 8 11 9 9 13 19 11 5 8 11 11 12 11 8 12 22 22 13 13 23 20 18 21 22 26 31 30 26
3 2 5 3 2 2 2 4 3 2 4 4 10 13 8 8 8 5 12 12 8 12 16 13 6 5 7 10 14 18 18 20 20 19 24 22 21 13 15 18 22 24 26 27 23
6 6 2 3 1 2 2 2 3 3 7 9 13 6 6 5 3 7 9 8 2 6 15 11 8 5 3 5 9 14 10 18 22 20 17 19 11 13 17 18 19 21 24 23 24

GFSSW_700_spd_027.txt.gz
Wind_Speed
41 37 35 33 31 28 23 24 23 24 30 33 33 45 39 20 28 32 37 31 22 22 28 30 33 34 34 33 34 36 34 38 39 35 32 27 21 21 23 22 20 18 16 16 14
37 33 32 27 20 19 20 26 26 31 27 27 32 41 46 38 23 28 29 26 24 28 28 33 35 36 36 34 33 35 39 40 35 31 29 28 25 19 23 24 23 21 21 18 20
37 32 27 19 15 15 15 20 26 30 27 24 24 38 46 43 27 35 23 23 25 29 30 29 29 34 36 34 36 38 40 35 31 25 26 30 26 22 24 26 25 23 24 25 23
33 26 21 17 17 15 16 17 19 24 23 27 19 31 44 43 16 16 21 26 28 30 29 31 34 37 37 37 37 35 38 33 27 25 28 30 28 27 25 25 25 27 26 25 25
31 21 26 20 18 17 17 17 20 20 19 19 18 25 40 40 35 11 21 28 30 30 31 33 34 38 38 38 35 36 34 33 26 29 29 33 32 29 28 26 26 27 27 26 24
28 18 23 21 18 14 15 16 18 18 18 21 19 23 34 42 41 16 16 25 29 30 31 31 35 34 33 33 35 29 33 27 28 29 31 35 33 31 30 25 27 29 29 29 29
23 24 23 25 23 16 14 13 16 16 17 16 20 21 31 48 39 28 19 22 27 28 30 31 29 29 28 29 27 30 21 30 31 29 31 34 37 39 26 28 29 29 30 33 31
24 23 25 23 24 17 14 12 16 15 13 13 17 20 33 35 37 31 18 19 27 25 26 26 26 25 22 20 20 25 23 23 25 30 32 30 35 12 18 27 28 27 30 32 35
26 27 27 21 19 12 9 13 16 12 9 12 15 18 31 21 35 24 23 19 25 25 25 25 24 25 22 21 17 22 16 29 23 19 18 26 29 24 25 28 26 25 27 31 33
25 26 21 12 11 5 7 11 12 10 10 10 11 13 24 33 23 33 31 19 29 29 28 29 27 29 22 26 21 20 17 14 22 24 25 26 29 27 22 23 24 24 23 26 29
28 24 13 4 5 6 6 13 6 6 8 8 13 13 15 25 16 31 24 26 30 35 38 32 32 39 30 22 10 18 16 18 14 18 18 22 26 28 24 27 25 23 22 21 22
28 23 15 3 7 7 9 6 3 4 10 12 25 16 23 20 25 25 23 30 26 29 32 33 26 25 26 21 17 14 12 11 11 14 18 22 27 27 24 25 23 24 23 21 19
22 20 10 2 4 6 2 3 5 17 16 13 21 19 14 23 27 32 27 16 26 35 35 33 22 25 24 26 21 16 12 10 10 11 15 22 23 20 16 15 18 21 19 18 20
24 20 11 6 6 6 4 10 22 19 11 8 12 13 13 27 25 33 19 21 20 22 28 29 19 20 22 24 20 16 13 12 12 8 3 6 6 8 10 14 14 14 17 18 18
32 22 19 16 15 13 12 24 18 12 6 12 11 20 20 24 23 21 16 17 16 20 19 10 19 25 22 25 21 15 15 11 8 5 4 5 2 3 4 8 9 8 8 7 11
39 37 30 28 25 27 24 14 10 5 4 3 11 24 19 9 22 14 13 21 19 21 15 17 19 16 19 22 24 12 11 6 6 4 1 3 8 2 5 9 6 6 5 2 4
33 30 27 27 23 18 16 12 7 9 6 8 22 23 14 20 19 11 18 15 9 13 22 16 10 9 13 19 14 12 11 1 1 1 3 5 7 5 4 5 8 7 2 4 7
23 20 16 12 18 15 13 12 12 7 13 23 22 18 15 16 15 14 11 10 7 11 19 7 6 12 13 13 8 15 11 3 4 3 2 6 7 4 1 4 8 9 10 13 15
15 15 11 16 16 9 14 19 9 13 19 23 20 13 13 11 11 17 10 8 7 8 3 6 7 12 15 12 11 13 10 8 3 1 1 3 3 1 5 5 1 6 13 17 21
19 15 10 9 10 11 20 16 15 23 24 17 10 10 9 13 13 11 13 10 9 7 5 8 8 12 11 11 11 6 11 6 5 2 2 3 5 7 6 3 7 13 18 23 26
20 13 13 11 11 18 27 28 27 25 15 8 3 10 13 14 11 12 9 8 12 10 7 6 3 9 12 12 13 12 10 5 4 2 3 1 3 10 6 4 16 20 23 23 23
18 17 13 7 12 21 22 20 15 15 6 5 4 5 9 15 12 16 12 5 11 8 7 7 6 7 11 7 10 13 12 13 6 5 5 2 3 6 5 16 20 20 22 24 26
12 12 14 7 13 16 13 10 8 7 4 1 2 2 7 13 6 12 12 9 5 11 6 9 5 7 4 6 10 13 16 15 12 6 7 3 2 5 9 18 16 19 22 25 26
9 3 6 9 10 11 9 7 4 2 5 5 2 1 5 10 7 9 11 11 10 4 14 9 6 3 5 2 4 8 13 19 18 8 6 14 7 6 14 15 14 16 21 25 25
3 3 2 3 4 1 3 3 2 2 3 4 6 6 7 10 9 4 12 11 10 12 16 12 5 6 8 8 8 7 7 12 24 24 11 6 11 10 10 14 16 20 21 22 25
3 1 2 1 2 2 1 1 1 5 6 3 2 4 8 7 7 1 8 10 6 9 14 16 5 4 5 9 12 17 16 17 16 19 24 21 13 6 8 12 15 19 22 21 21
7 7 5 1 1 3 2 1 1 2 5 8 10 4 3 4 3 7 8 7 2 3 12 12 9 3 2 3 8 15 15 22 22 21 15 16 4 8 6 11 17 18 21 20 20

GFSSW_700_spd_030.txt.gz
Wind_Speed
43 38 38 36 31 30 31 29 24 22 24 20 25 34 42 43 28 22 33 35 27 24 30 32 33 35 35 35 39 42 28 34 33 28 24 28 22 23 23 23 20 20 20 19 15
40 37 37 29 21 21 18 17 22 29 23 22 21 18 36 45 38 31 35 26 27 30 28 35 35 33 35 36 37 39 33 33 25 25 25 28 22 24 21 24 24 22 21 20 18
34 35 31 20 20 21 20 19 13 19 27 24 24 23 23 43 47 44 22 29 27 30 31 33 33 31 36 37 39 38 33 28 30 31 28 28 23 24 20 21 25 26 24 24 23
29 31 26 21 24 22 20 16 13 13 15 17 20 25 24 35 42 48 35 21 32 32 33 31 35 33 35 38 39 35 38 26 30 29 28 27 26 26 23 20 23 25 24 26 24
27 28 25 21 21 16 17 15 12 12 15 17 18 21 26 31 51 29 28 28 34 36 35 35 37 35 33 38 39 38 33 34 25 30 27 29 27 26 27 26 25 26 25 26 26
25 27 25 26 19 19 19 11 10 11 12 14 18 22 24 29 46 31 22 31 38 38 34 34 35 34 27 31 36 35 31 28 30 27 30 28 29 31 31 26 25 26 26 27 27
22 24 22 24 23 14 13 12 9 9 11 13 18 21 25 24 44 45 22 17 37 34 33 29 34 35 29 34 33 23 26 26 28 32 30 32 33 37 30 25 27 27 29 29 30
28 25 21 23 21 16 10 9 8 8 12 12 15 18 24 17 42 42 21 15 32 29 30 26 27 27 25 24 24 24 19 19 29 30 31 30 24 16 18 31 27 29 31 32 31
32 26 22 19 11 7 6 5 7 11 9 8 11 12 9 22 33 46 22 17 28 30 28 28 24 24 26 22 17 22 17 25 14 26 30 31 20 25 27 18 23 28 30 31 30
29 23 14 8 5 1 3 4 8 8 7 8 8 6 14 26 31 35 27 19 26 31 28 30 26 24 21 25 25 23 23 18 21 21 22 25 24 25 22 21 26 29 27 27 29
27 21 8 2 1 2 3 5 3 2 4 6 8 7 21 22 30 31 35 25 26 32 36 34 31 35 28 23 12 15 20 14 17 25 23 23 22 26 22 24 25 24 23 24 26
27 20 13 5 7 8 6 3 2 3 9 8 20 17 26 24 21 36 26 24 31 39 36 35 32 25 22 22 12 15 17 15 15 16 19 15 21 20 20 23 24 25 24 22 23
29 21 15 11 7 8 8 4 7 16 12 12 19 19 21 19 20 26 29 20 44 40 39 36 27 28 25 24 17 13 14 16 9 12 13 16 16 17 18 20 23 23 22 21 24
30 29 21 15 13 13 11 20 20 14 8 6 8 13 17 20 17 25 17 16 37 37 38 21 22 24 25 24 20 14 14 12 11 5 7 4 2 9 9 12 12 14 16 19 21
30 35 39 39 35 28 24 18 13 5 4 5 11 15 21 16 20 16 16 16 19 36 24 16 23 24 23 24 20 12 16 12 8 8 5 5 5 5 10 10 11 11 12 14 19
24 24 27 29 28 23 16 13 11 5 6 9 14 23 21 20 22 15 2 14 22 29 14 18 28 28 25 26 23 15 13 10 7 5 4 8 8 5 10 13 12 12 10 10 12
21 21 21 27 22 14 14 12 8 9 5 15 23 19 19 20 15 15 18 16 13 12 18 18 19 17 24 29 25 20 15 5 4 4 1 7 7 3 12 16 13 12 11 9 8
23 23 21 20 11 8 11 14 13 13 18 16 18 15 21 21 19 18 15 18 12 13 15 7 7 13 26 25 16 19 14 3 3 4 3 8 6 4 11 13 14 13 10 10 12
21 24 19 18 8 9 7 9 6 11 18 15 15 13 15 14 10 11 13 12 14 16 4 6 6 9 11 12 18 16 11 10 3 1 1 5 4 6 10 11 10 9 10 14 17
21 19 18 17 6 7 7 14 11 17 19 11 3 4 6 9 9 10 8 8 10 9 6 9 10 9 12 12 12 11 14 5 6 4 4 4 4 6 15 11 5 5 12 17 22
17 17 16 13 6 7 23 20 15 12 8 2 2 7 8 11 10 13 10 10 11 10 5 9 6 12 13 11 11 12 13 7 6 3 2 2 3 13 13 4 6 13 17 20 20
12 13 15 9 7 16 16 13 12 8 4 5 5 3 8 12 14 9 7 6 12 10 7 6 7 7 8 11 15 17 15 12 5 4 4 1 3 14 13 6 14 16 17 19 20
8 6 12 10 9 11 10 8 6 5 2 4 5 2 4 9 4 12 10 9 8 8 7 8 6 7 4 7 14 17 21 19 18 7 7 3 4 12 8 12 15 16 17 19 20
4 1 6 8 11 10 6 3 2 4 5 5 2 2 4 10 4 11 9 8 6 7 10 11 8 5 5 3 7 13 17 21 18 8 6 9 4 10 8 12 12 13 17 17 19
2 1 3 6 4 3 4 4 1 1 4 4 5 5 5 7 9 2 10 9 9 9 11 10 7 9 7 5 4 5 8 17 25 21 10 6 10 6 8 9 10 13 16 18 19
6 4 4 4 6 5 4 3 1 2 4 1 2 6 8 6 6 3 5 8 8 11 13 15 7 7 7 9 11 14 16 17 17 22 28 22 15 7 6 10 11 15 14 15 15
8 9 7 6 4 5 4 4 2 1 4 9 8 4 2 4 3 7 6 8 3 4 9 14 11 5 3 5 7 14 17 24 23 22 18 17 4 7 6 9 11 11 10 11 13

GFSSW_700_spd_033.txt.gz
Wind_Speed
33 31 32 33 35 30 23 22 22 27 25 26 25 27 40 43 42 36 32 29 27 26 29 33 37 37 37 38 39 35 29 31 30 28 23 18 20 16 19 15 20 16 20 18 17
34 30 29 29 29 22 20 23 21 20 27 30 25 22 28 38 43 47 35 31 25 27 27 33 34 34 36 36 38 38 34 32 24 24 21 20 22 16 23 23 18 22 24 23 18
33 26 28 27 28 25 22 23 22 20 20 31 26 16 17 28 41 44 40 27 24 27 31 30 30 30 31 35 35 38 37 29 22 26 22 19 18 15 18 16 17 21 24 25 24
26 25 26 27 26 23 21 15 20 17 16 17 26 19 17 16 20 39 45 29 29 32 33 31 32 33 27 36 37 27 35 23 26 30 34 22 17 18 20 14 16 18 27 24 26
27 25 24 26 25 23 21 14 12 14 16 14 13 14 13 20 26 22 44 43 36 36 37 34 35 36 26 27 20 33 16 26 19 29 30 19 20 20 17 18 25 25 23 24 27
33 29 24 23 20 22 15 10 11 15 13 13 16 17 17 17 18 30 32 49 40 36 35 33 36 34 22 17 26 21 19 21 23 23 24 25 18 22 25 17 26 24 24 25 27
34 30 25 21 19 21 10 9 10 8 9 9 11 14 19 19 19 30 32 37 26 29 34 29 26 32 22 18 24 13 24 14 21 28 15 24 24 26 24 15 23 25 24 27 29
28 26 19 15 17 12 8 9 7 6 8 10 12 13 22 15 23 26 34 35 34 31 28 26 24 30 19 17 18 16 19 20 27 28 26 23 21 17 23 25 25 23 24 25 31
28 25 16 5 7 5 2 3 6 7 10 9 9 11 12 16 25 36 37 33 33 34 28 29 28 30 21 20 17 23 20 24 15 31 24 26 17 19 18 15 23 29 28 30 31
28 21 14 7 7 4 2 2 3 5 4 5 5 6 6 13 21 43 32 23 41 38 33 29 29 28 21 24 28 25 26 21 24 17 26 25 23 16 24 23 23 23 23 28 31
32 24 16 10 7 6 2 3 1 1 3 6 6 7 9 16 21 35 26 18 29 39 40 38 30 34 35 31 19 19 24 16 20 21 16 21 20 21 21 25 24 25 25 28 28
40 27 19 11 10 12 5 3 4 4 4 4 9 8 15 24 17 26 23 21 36 40 27 32 32 26 21 22 19 10 19 18 13 21 23 13 18 19 21 23 25 26 27 26 27
40 40 33 24 18 15 12 9 10 13 9 10 12 15 15 16 12 14 18 22 31 32 32 30 25 23 21 24 19 17 19 19 8 15 12 13 19 20 21 23 26 27 26 26 28
33 36 34 32 30 27 25 24 19 10 8 10 13 14 14 12 10 13 17 13 28 32 28 21 25 23 23 21 20 17 15 15 14 8 10 8 3 12 17 20 23 23 24 26 28
28 29 29 25 18 13 9 6 9 6 2 6 8 13 15 8 18 11 11 8 34 40 20 18 31 28 25 23 20 10 17 11 10 7 4 8 6 9 13 12 16 18 19 21 24
23 26 25 19 14 11 10 12 10 5 7 10 12 18 14 14 13 6 7 9 36 30 31 19 30 25 24 21 19 14 14 9 5 4 5 12 11 11 15 15 15 15 16 17 18
22 20 19 15 11 8 13 11 8 8 7 14 18 15 11 13 6 8 12 21 12 16 16 25 24 21 29 24 23 17 18 7 6 5 3 10 9 2 14 16 13 14 15 15 14
18 19 18 12 6 5 10 15 11 12 17 18 14 10 15 15 14 11 14 16 10 15 16 7 8 21 28 29 22 21 18 4 6 6 6 7 8 5 12 18 17 16 13 12 12
20 18 18 9 4 4 6 11 6 7 13 10 9 6 6 11 13 8 8 9 16 9 4 7 5 8 25 26 23 17 12 7 1 2 1 9 7 8 14 19 17 15 15 16 17
17 16 16 7 3 1 3 11 9 13 14 5 3 3 4 5 5 5 3 6 13 7 8 8 9 7 16 20 22 16 16 6 4 3 5 7 6 6 16 16 15 12 11 13 17
14 12 11 7 4 1 10 13 13 10 6 4 3 4 5 7 5 4 2 8 7 6 5 9 5 8 10 7 10 11 9 9 5 3 3 3 5 7 16 15 10 6 11 15 19
9 8 6 5 3 9 15 10 10 7 6 7 6 5 5 6 6 4 4 3 10 7 3 4 6 7 7 14 15 13 9 13 6 5 4 3 3 14 16 12 6 9 12 16 18
5 3 5 6 3 5 6 7 7 5 5 6 5 3 6 6 4 5 5 6 11 9 4 6 4 7 2 6 14 17 18 15 14 5 6 4 5 17 15 9 10 12 12 16 18
5 3 1 6 8 7 6 4 2 3 5 4 2 3 5 5 3 9 9 9 6 7 9 9 5 5 2 3 7 14 19 22 19 8 8 12 2 14 14 8 10 11 14 15 17
6 5 7 7 4 5 6 5 3 1 3 3 2 5 4 4 4 4 9 10 10 7 10 8 7 9 6 4 4 7 12 19 26 24 12 4 11 9 8 8 11 11 13 12 12
7 8 6 9 6 5 5 5 4 2 3 1 2 5 7 3 4 6 6 8 6 11 9 12 6 9 9 11 12 14 14 14 19 23 23 17 14 14 12 14 11 10 11 8 7
6 9 9 7 8 6 7 6 4 2 2 4 5 3 2 6 6 7 6 7 5 6 10 9 11 6 3 6 7 13 21 25 23 21 21 22 19 8 12 13 10 10 9 8 8

GFSSW_700_spd_036.txt.gz
Wind_Speed
35 38 38 29 27 29 29 24 18 19 19 19 25 28 27 38 42 42 27 28 27 24 26 31 34 36 35 40 42 37 34 34 34 27 21 12 22 23 22 17 14 17 15 13 14
39 32 28 29 29 30 26 23 21 20 22 17 29 27 23 24 39 48 46 27 28 23 28 31 33 33 31 36 35 27 35 41 34 24 17 19 16 14 17 21 17 20 23 16 15
32 29 28 27 28 27 24 23 20 19 23 17 30 28 23 19 30 46 45 33 27 21 28 28 29 28 33 31 35 36 44 38 27 20 20 24 18 21 14 16 23 20 24 24 17
36 33 32 28 24 22 21 17 15 19 20 20 25 25 18 15 11 16 41 41 29 28 28 29 31 30 30 35 38 36 39 29 24 28 17 19 13 18 16 14 15 16 23 26 25
37 34 29 27 22 18 14 19 15 15 11 13 13 15 13 15 15 13 27 37 32 29 30 31 32 31 32 33 26 34 16 19 21 23 23 22 22 17 19 18 17 23 26 23 25
31 29 26 22 18 15 16 12 12 7 8 10 10 8 12 14 15 14 20 37 42 28 30 30 32 29 27 12 27 16 22 11 21 29 27 26 30 20 22 17 24 26 26 21 24
33 30 24 18 11 13 11 4 8 5 8 10 12 15 17 13 16 21 22 29 37 28 29 32 21 28 22 18 18 10 24 17 25 26 24 19 27 31 25 21 18 26 28 24 25
34 31 22 13 12 10 11 3 3 5 5 5 6 9 15 9 14 21 25 19 37 34 28 29 21 27 17 25 17 25 20 17 24 20 28 25 23 24 28 22 21 23 21 21 24
34 31 21 17 16 12 8 6 3 3 5 7 8 9 6 14 17 20 25 26 25 31 29 36 30 30 24 16 18 20 19 24 17 22 23 27 22 13 15 17 23 25 21 23 24
50 30 24 17 18 12 7 5 2 3 3 4 3 4 4 5 10 21 27 28 26 22 35 29 25 32 31 23 25 30 24 22 22 22 26 28 25 11 18 20 20 19 27 28 28
44 43 24 18 17 14 5 5 3 3 3 4 2 9 7 9 14 20 31 32 28 32 34 28 34 41 43 41 21 16 22 17 19 21 17 30 26 24 21 25 25 23 24 23 23
36 38 35 27 19 16 10 6 5 4 5 1 5 5 11 14 16 21 36 31 37 35 36 34 41 35 26 24 22 14 16 23 9 25 18 14 20 29 23 26 27 25 26 25 24
28 28 26 25 23 25 22 15 10 8 6 6 4 10 15 20 19 30 38 17 40 33 41 37 24 22 24 24 23 17 12 23 18 14 17 15 21 23 27 29 26 27 29 29 26
25 24 20 16 14 13 11 17 13 10 4 9 7 13 14 11 16 15 19 26 37 36 23 24 25 26 24 27 25 18 14 17 20 11 5 18 5 12 20 25 27 28 27 27 29
23 23 21 19 17 13 12 12 11 7 2 5 8 12 4 14 16 12 16 28 30 31 17 14 27 28 21 23 22 12 20 17 16 10 6 10 6 10 15 23 26 26 26 26 28
20 19 20 19 15 15 14 12 12 7 7 8 9 9 13 11 13 11 6 10 30 28 24 15 25 24 22 21 19 14 19 12 9 7 4 16 14 12 21 21 20 20 19 20 21
20 17 18 18 14 14 14 8 8 8 4 6 8 10 9 14 10 7 6 11 22 27 18 22 30 25 25 26 16 20 21 7 4 3 4 8 14 10 13 14 19 15 18 17 17
18 18 16 13 9 10 10 15 10 10 13 11 11 2 7 12 12 5 13 16 22 25 19 11 10 32 27 29 18 22 22 5 5 5 5 11 9 5 16 21 20 19 16 15 16
16 16 13 8 7 7 6 11 7 7 12 7 4 8 7 8 9 9 10 14 17 26 8 9 4 24 28 31 22 26 23 13 3 1 4 9 8 11 21 22 25 17 15 14 14
11 13 14 7 6 5 5 8 10 14 9 6 5 4 5 7 3 3 5 8 11 17 11 11 10 9 28 30 22 25 20 9 6 2 3 9 9 14 22 23 22 18 16 17 17
8 9 11 7 8 3 1 9 14 7 7 5 4 3 5 5 5 4 3 7 6 6 12 8 5 8 19 17 30 25 21 9 5 4 1 2 2 3 13 15 19 16 16 14 15
6 5 8 3 5 6 10 13 10 8 9 7 6 8 2 3 4 3 5 6 10 10 7 5 9 9 6 10 16 24 18 19 4 5 5 1 0 2 8 16 16 12 9 13 17
5 1 3 1 5 3 7 9 8 6 6 6 3 2 7 5 3 4 3 4 11 10 7 7 8 8 3 6 15 18 19 16 16 8 7 1 4 14 14 15 10 9 10 13 15
5 3 1 2 9 6 3 2 3 3 3 2 2 4 5 4 3 7 4 6 9 7 7 8 8 6 5 4 8 21 24 24 24 14 6 9 11 20 18 12 9 11 11 12 16
4 4 6 6 5 3 8 6 1 3 3 2 1 5 4 3 3 3 8 9 8 5 8 8 6 9 7 4 7 8 14 23 29 26 14 9 14 9 15 10 16 12 10 11 11
4 6 5 6 6 3 1 2 4 3 1 3 2 3 6 2 3 5 5 7 7 9 8 10 5 8 9 11 11 13 13 18 25 26 29 18 16 16 18 21 18 14 10 10 8
6 5 7 4 6 5 8 6 3 3 1 2 6 4 3 6 9 7 7 5 7 7 9 7 7 5 3 5 7 15 22 25 23 25 26 32 26 16 23 22 17 14 10 9 7

GFSSW_700_spd_039.txt.gz
Wind_Speed
36 33 30 27 28 26 25 27 23 18 16 18 17 26 28 37 29 36 41 33 33 27 29 30 31 32 36 37 39 45 34 36 32 27 24 13 4 20 17 20 17 15 12 10 15
33 33 33 32 29 26 22 20 18 18 15 18 17 28 24 22 34 37 40 27 25 28 25 31 31 33 36 38 40 39 45 40 30 32 27 15 4 16 20 22 12 13 17 14 15
35 32 29 29 26 24 18 16 15 17 15 15 13 23 28 25 27 31 36 32 29 29 25 29 28 31 34 36 37 42 47 39 30 26 33 21 10 14 16 23 23 21 21 17 17
36 31 29 25 22 20 10 13 11 13 11 14 14 19 28 19 13 13 32 40 25 27 26 29 31 30 30 36 39 40 40 36 30 28 23 27 9 11 20 17 22 21 20 23 18
35 33 30 22 17 11 9 9 12 9 9 8 11 16 24 21 17 12 22 43 34 28 28 31 33 33 33 34 35 39 25 37 24 29 24 23 19 13 17 18 16 18 19 22 21
36 31 29 23 16 12 10 10 3 5 5 5 5 11 11 14 18 14 27 41 41 29 28 27 30 28 28 19 30 34 22 22 20 27 20 22 14 20 19 20 20 13 17 21 21
41 30 26 23 19 14 14 6 2 5 3 1 2 1 11 9 20 21 25 35 39 31 28 29 25 30 24 17 23 8 29 17 24 25 24 20 23 33 22 21 27 23 22 23 22
42 31 25 22 19 17 16 13 5 5 2 2 2 0 5 9 14 15 25 29 38 36 32 31 28 29 22 17 25 17 17 25 24 33 25 26 31 29 30 28 27 29 31 29 26
37 34 27 21 20 12 12 10 5 3 1 1 2 2 8 10 12 13 20 23 38 35 30 33 30 33 20 23 21 27 19 30 26 31 32 30 36 30 21 31 32 29 26 25 26
29 30 28 28 20 16 8 7 5 1 2 4 5 5 6 10 11 13 16 23 32 32 28 35 29 35 27 27 34 40 32 34 29 28 29 32 28 13 21 21 25 27 28 26 24
25 23 24 24 30 20 15 8 6 4 6 3 3 6 9 10 15 15 18 20 24 32 32 34 31 46 46 33 10 28 28 19 29 20 21 31 30 27 21 23 24 24 19 24 28
27 23 18 18 21 21 18 15 12 10 4 2 2 4 6 10 12 16 23 29 24 33 32 38 35 41 35 30 19 15 19 21 14 20 21 18 23 30 30 28 28 27 24 23 25
27 27 19 15 17 20 18 14 11 11 8 9 4 7 10 12 13 18 23 29 29 29 34 43 30 37 34 32 25 23 14 17 20 22 22 17 21 24 27 30 33 31 29 30 29
24 25 21 16 15 14 16 14 11 9 3 8 5 5 15 15 14 18 26 31 22 27 19 14 20 31 29 26 26 23 12 10 20 18 9 14 6 13 22 31 32 30 31 30 30
21 22 23 19 16 15 13 11 5 7 2 4 3 11 15 7 20 24 31 20 24 19 25 18 28 29 28 23 19 15 15 13 20 14 10 9 7 20 18 24 31 33 32 32 32
19 20 20 16 13 14 12 7 7 4 6 6 3 10 13 20 13 23 19 22 26 20 17 26 29 24 27 26 15 15 20 13 10 7 4 18 18 10 20 26 22 28 27 28 30
15 18 18 13 13 14 13 5 4 8 6 14 17 18 16 14 12 14 22 26 25 20 17 21 27 22 26 25 24 21 21 4 2 1 6 8 19 21 7 18 21 20 21 21 24
11 15 17 8 8 11 12 6 10 10 14 11 13 6 12 11 12 16 18 25 23 20 18 15 13 26 27 27 22 26 24 9 6 4 4 10 14 15 21 15 15 18 16 18 21
9 11 12 7 5 8 9 8 7 5 8 9 7 9 9 13 13 12 18 19 20 22 12 16 10 26 27 31 24 25 28 11 2 4 2 9 10 10 15 18 22 21 16 15 16
8 7 8 4 3 4 4 8 10 9 9 12 8 9 6 8 6 6 7 13 21 28 18 11 7 23 26 29 28 29 26 11 9 1 4 7 8 15 25 25 24 23 20 17 17
6 4 6 5 6 5 4 13 11 8 5 7 8 5 6 11 11 8 5 10 12 24 21 14 8 11 23 28 33 28 24 18 13 7 4 2 5 7 18 15 25 23 19 20 18
4 2 4 5 7 9 11 12 11 12 11 10 7 8 6 7 7 5 6 7 9 13 13 9 8 10 17 17 26 28 28 29 13 6 6 3 4 4 10 14 19 20 21 16 13
3 2 3 5 3 8 9 10 7 5 6 6 4 2 9 5 3 3 5 10 16 13 11 9 10 10 4 10 21 33 32 34 23 11 9 3 3 5 4 16 19 17 14 14 14
1 3 4 8 7 4 6 3 2 3 2 0 2 5 7 5 2 6 5 10 13 10 9 8 13 7 13 5 15 28 36 35 34 20 15 16 9 13 12 12 16 16 13 11 11
3 4 6 6 10 5 6 5 1 1 1 1 3 7 6 1 1 3 5 9 11 9 10 10 9 10 10 6 8 12 25 27 30 27 24 17 16 13 15 16 18 15 11 11 11
6 3 2 2 7 7 8 7 4 3 2 3 2 6 7 5 3 6 3 9 9 10 9 12 7 11 12 10 10 12 14 24 34 33 33 20 19 21 17 21 23 17 12 12 11
5 4 2 2 8 8 7 6 3 4 2 6 4 6 11 6 5 5 5 3 5 6 11 10 9 8 5 7 9 14 24 26 24 30 34 37 28 19 23 24 23 18 16 13 11

GFSSW_700_spd_042.txt.gz
Wind_Speed
38 34 30 28 29 30 26 22 18 20 17 17 18 22 25 25 36 31 37 34 29 25 31 32 32 33 34 37 40 46 35 42 42 25 32 21 15 17 16 21 18 12 12 15 19
39 34 29 26 25 22 20 15 14 15 14 11 16 18 24 31 28 42 31 32 32 26 25 34 33 34 35 36 39 41 38 43 42 28 37 25 15 12 16 20 21 16 15 16 19
40 37 31 26 20 16 14 7 10 11 11 12 13 14 21 31 25 30 37 27 32 31 27 26 28 34 38 38 39 42 45 39 38 35 43 29 21 13 14 13 24 24 16 15 17
39 36 30 25 19 12 9 5 4 8 7 8 11 15 17 30 12 15 28 35 33 33 29 29 33 36 37 40 39 39 42 39 32 33 41 41 20 15 15 11 20 22 19 15 15
37 36 33 24 19 14 9 7 9 6 4 5 7 15 12 17 21 21 24 43 36 32 31 32 36 38 38 38 36 37 34 33 32 30 28 40 32 15 13 13 15 25 25 19 17
33 33 36 24 20 17 12 8 1 0 1 1 4 10 12 15 23 15 21 39 35 36 33 33 36 33 34 35 36 36 25 21 31 18 24 21 31 17 15 8 13 20 28 25 20
30 27 40 29 18 16 15 7 4 3 3 4 1 0 12 10 19 17 24 47 42 26 30 31 30 33 29 28 30 15 27 18 27 31 25 16 20 33 17 14 11 17 20 21 21
27 23 35 31 23 14 13 10 6 3 5 6 8 7 7 9 15 20 27 44 47 29 28 25 29 30 26 20 26 16 28 27 30 24 18 21 24 30 21 14 17 21 22 22 21
25 23 25 29 24 17 11 8 5 1 1 4 4 4 5 8 11 16 27 38 46 39 30 31 31 31 31 22 31 21 28 36 27 28 26 27 27 21 17 22 23 24 27 27 25
26 25 23 25 21 18 13 8 5 4 1 3 2 4 7 9 13 12 18 34 44 40 28 34 35 33 35 31 34 42 32 37 33 31 33 31 32 22 27 29 33 37 33 31 28
26 26 21 20 17 17 15 11 6 5 5 4 5 4 7 12 12 12 21 32 41 34 39 36 42 49 44 36 14 34 28 33 30 21 30 37 35 29 23 25 31 26 32 32 30
24 23 22 18 14 14 10 12 10 8 4 3 6 6 7 9 12 14 19 32 35 40 24 30 41 41 34 34 12 22 28 22 26 21 22 27 30 28 31 27 27 28 25 25 25
23 22 22 17 13 11 9 4 7 9 8 7 3 5 6 11 11 14 14 22 22 34 22 27 24 37 31 29 21 22 24 23 20 23 29 26 29 28 35 35 32 31 30 26 27
21 22 20 16 12 10 9 4 3 3 3 5 5 5 8 11 11 13 15 17 21 26 23 21 12 30 34 31 25 20 17 15 14 17 15 18 6 22 29 32 39 37 35 34 32
18 19 19 14 10 9 7 7 4 5 2 2 3 8 15 12 11 14 12 16 14 27 21 13 31 33 32 33 29 21 14 8 10 20 16 15 10 26 23 24 33 35 34 33 34
16 16 17 12 10 10 9 5 6 5 6 6 4 14 18 9 16 18 16 18 12 18 24 12 30 26 27 30 24 18 13 11 17 15 8 20 18 18 26 29 24 26 35 35 36
13 14 14 10 8 10 9 3 5 7 3 10 12 14 19 17 15 21 26 16 14 12 25 22 27 23 28 24 19 23 21 4 1 2 6 11 17 38 15 20 20 26 25 30 32
10 11 10 7 5 8 10 7 8 7 7 8 10 8 12 16 17 21 23 24 20 11 27 20 17 27 31 28 20 28 26 10 6 4 3 10 14 22 22 27 15 17 19 23 27
9 7 8 6 2 6 7 6 5 6 7 7 7 7 7 13 16 18 21 24 23 19 10 13 12 23 27 28 21 29 27 15 4 3 1 8 20 29 18 27 23 21 22 22 20
7 4 4 4 2 2 5 7 8 10 9 7 4 6 10 9 10 11 14 17 22 26 15 14 9 24 21 27 27 29 27 12 6 3 3 7 16 19 17 25 23 28 26 21 19
4 3 1 1 3 6 4 10 10 9 7 4 6 7 13 9 9 7 5 11 20 24 15 17 13 18 25 28 31 26 30 19 12 6 4 2 8 12 16 21 15 23 22 20 18
4 2 2 5 5 8 15 10 11 10 10 8 6 11 7 7 7 6 6 4 16 27 23 17 11 12 25 31 27 33 27 35 13 6 14 4 9 9 11 16 16 18 20 20 17
4 3 3 6 5 11 13 10 6 6 4 6 5 5 9 6 3 7 7 11 15 21 17 14 7 10 9 18 27 34 37 33 34 19 23 10 7 7 7 11 17 20 21 22 18
2 4 7 8 5 5 8 5 2 2 3 3 3 7 8 5 1 7 9 15 12 9 9 9 8 9 11 5 19 33 37 36 36 25 25 27 21 15 8 7 16 24 21 17 15
2 5 6 10 9 9 5 4 2 1 2 4 6 8 5 4 2 3 8 13 17 14 13 13 7 16 10 11 10 15 26 38 41 42 25 36 32 30 25 23 13 15 16 14 15
4 2 5 7 11 8 10 9 5 4 3 4 6 9 6 4 3 4 3 8 10 14 13 14 7 12 13 11 10 13 14 24 35 42 42 43 31 18 19 18 18 18 19 15 12
6 1 5 5 10 10 10 8 7 7 4 5 4 6 8 7 4 2 4 3 5 8 11 12 10 7 5 11 12 15 27 28 31 37 39 40 38 22 26 26 26 23 19 16 15

GFSSW_700_spd_045.txt.gz
Wind_Speed
33 36 47 39 33 28 23 17 19 19 20 16 17 20 27 30 31 29 33 35 37 25 30 33 33 34 38 41 44 44 41 41 39 33 38 29 20 13 15 14 18 21 16 17 16
32 38 44 36 29 25 16 13 10 10 12 10 13 16 22 29 30 36 38 28 31 29 28 34 34 33 34 36 37 44 44 48 50 41 41 28 21 17 13 16 14 17 20 16 17
33 36 41 35 25 22 17 10 4 6 8 12 12 13 16 21 32 31 31 25 30 31 24 30 28 31 31 33 37 32 44 43 40 45 43 40 22 14 15 18 13 14 16 16 17
32 34 38 33 23 21 17 10 5 6 6 6 11 15 15 17 18 17 27 37 29 37 26 30 34 33 31 31 33 38 44 38 32 35 47 54 35 20 15 15 16 18 15 20 19
30 30 36 31 23 20 18 12 7 6 1 4 9 12 14 12 20 21 28 32 34 38 33 32 38 36 30 36 33 34 36 32 30 27 36 49 48 32 16 14 16 16 19 15 17
26 28 33 29 25 18 17 12 4 5 2 1 3 7 14 11 23 19 23 35 38 39 33 32 35 32 30 35 34 32 27 25 32 31 34 32 46 39 17 13 15 15 18 18 19
25 26 28 26 24 19 14 10 5 6 5 4 5 5 10 9 16 22 15 30 43 35 33 31 32 33 29 31 35 22 26 22 25 29 26 32 26 47 17 14 14 17 18 23 21
26 25 23 23 22 19 12 9 6 6 6 7 6 10 8 10 13 17 15 31 46 41 35 30 32 32 23 29 31 17 22 21 22 22 24 19 24 40 31 17 17 16 16 19 22
25 25 21 17 18 17 11 8 5 3 2 3 5 5 6 2 15 17 17 35 44 41 39 37 36 32 27 25 28 27 24 28 22 28 27 26 22 24 27 23 22 20 17 18 22
23 25 21 15 13 14 11 6 5 2 2 3 2 1 5 6 4 17 22 30 38 42 22 39 38 33 32 32 35 40 34 34 26 31 29 27 20 17 26 31 22 19 21 23 23
19 23 21 16 11 9 10 8 5 2 3 3 3 3 7 6 6 12 21 31 23 29 23 35 40 42 39 36 15 30 26 32 27 26 30 27 24 21 18 26 23 21 24 27 27
18 20 20 18 10 8 5 6 6 3 0 2 5 2 5 7 6 7 20 26 30 27 19 31 40 38 36 30 28 24 22 20 28 19 19 26 28 26 27 24 26 26 28 29 34
18 17 19 18 11 7 5 1 3 4 4 3 3 4 6 8 8 10 21 24 31 21 28 28 29 36 35 28 16 19 26 20 21 21 23 17 30 32 32 35 36 29 27 29 30
17 15 18 17 11 9 5 3 4 3 1 3 3 4 8 10 8 9 16 30 11 32 25 14 30 39 33 31 19 18 18 19 15 19 18 21 7 27 35 35 37 37 34 31 31
15 13 16 16 11 8 6 3 2 3 1 1 1 7 11 7 12 7 15 18 10 26 17 7 27 37 32 34 23 11 14 16 16 12 13 15 10 29 20 30 37 38 39 35 36
13 11 12 14 9 7 7 1 1 1 3 4 4 8 16 7 12 9 7 11 15 15 13 9 22 27 33 31 26 14 14 8 6 12 8 16 17 16 23 31 27 25 32 36 39
12 9 10 12 8 6 7 0 2 4 2 4 7 12 11 13 14 14 13 10 9 16 16 9 21 24 29 30 26 18 16 4 1 3 5 10 13 35 13 19 22 24 26 27 38
10 8 7 8 6 7 6 3 3 6 9 8 17 15 9 13 9 12 18 11 13 7 20 8 12 24 28 32 28 26 22 8 5 4 3 7 15 22 18 21 26 20 25 31 27
8 7 5 6 4 6 3 5 3 4 7 6 6 8 12 9 9 12 17 13 11 10 7 10 8 21 26 25 26 29 34 16 5 2 0 8 18 31 31 30 22 24 22 26 29
6 6 5 4 5 3 1 4 5 8 7 4 4 5 12 13 14 11 15 13 18 17 6 8 9 23 22 24 24 28 28 15 9 4 4 7 15 20 10 12 20 26 25 24 24
4 4 5 5 4 2 2 5 8 7 5 5 7 12 13 13 11 13 14 10 21 21 14 16 10 16 22 27 29 26 27 19 12 8 4 1 6 6 10 14 18 15 22 24 20
4 3 4 1 3 2 9 6 6 4 5 7 9 11 9 10 8 5 8 11 27 26 23 15 15 10 25 23 31 34 29 33 17 7 10 5 16 13 15 17 15 15 16 20 20
5 4 4 3 2 7 5 5 5 4 3 5 6 9 8 9 4 8 6 6 22 25 19 19 6 8 7 19 28 27 33 30 36 25 24 10 8 3 4 12 12 13 14 19 19
5 5 6 6 6 8 6 2 2 3 2 2 3 6 7 4 3 9 9 8 21 21 21 17 13 9 12 4 19 35 39 38 35 28 29 39 36 32 28 13 6 10 17 18 16
6 4 7 8 8 6 6 2 1 2 2 2 4 6 6 5 4 6 9 11 10 7 10 11 6 12 14 14 12 17 25 40 47 49 30 37 37 37 27 27 25 17 18 19 17
7 4 8 10 10 11 10 7 5 5 2 1 2 5 4 4 3 6 7 8 11 14 12 14 7 8 14 14 12 15 17 21 29 39 49 47 46 37 30 28 32 28 22 18 16
8 3 5 6 12 13 12 11 10 8 4 4 2 4 3 3 3 5 3 5 9 8 12 13 9 6 4 11 14 17 25 28 28 29 33 42 29 34 32 25 23 23 20 18 18

GFSSW_700_spd_048.txt.gz
Wind_Speed
28 30 35 37 37 29 26 22 16 15 13 16 17 21 19 23 27 39 27 33 35 29 29 34 38 40 42 49 49 37 30 29 34 32 33 33 23 16 13 16 18 15 11 13 15
27 30 35 34 35 26 24 19 15 10 7 8 8 12 15 20 29 31 35 23 30 28 26 32 37 36 35 40 37 44 43 40 38 30 36 35 24 18 13 15 18 19 16 14 15
26 29 33 32 32 23 23 19 11 9 7 8 10 11 12 15 29 32 33 29 29 37 23 27 32 33 32 38 41 33 55 44 39 33 36 32 29 19 14 20 20 21 21 19 17
25 28 30 29 29 23 21 20 10 8 9 6 8 11 12 14 17 27 24 30 31 37 28 28 33 34 30 32 33 33 37 39 35 37 38 41 33 28 17 18 21 22 21 19 16
25 27 28 26 27 23 19 18 10 7 4 3 5 8 11 14 18 18 22 32 36 36 30 30 35 34 30 29 28 29 27 30 28 38 36 43 44 42 22 13 20 21 21 19 19
25 26 25 22 24 20 17 14 8 7 5 3 4 6 10 13 18 21 26 30 28 37 35 28 32 30 27 20 25 26 29 25 30 28 31 35 45 42 34 14 18 20 22 20 20
23 25 23 19 20 19 14 12 8 6 5 5 11 5 7 6 5 24 20 25 34 36 37 28 26 33 23 20 26 16 23 24 28 26 25 30 35 49 42 25 16 22 24 22 21
22 23 22 18 16 18 12 10 6 3 4 6 8 7 3 7 4 11 14 21 35 34 33 25 25 30 18 19 26 19 24 30 27 30 30 26 32 40 50 33 18 20 25 23 21
21 21 22 18 14 13 12 8 7 3 1 3 5 5 2 5 8 12 11 21 35 33 33 28 29 31 23 26 24 23 20 27 23 24 25 26 15 17 29 42 24 21 23 24 22
22 19 20 19 13 11 11 9 7 6 4 3 3 3 2 3 12 14 14 19 30 34 35 27 34 36 27 30 34 31 26 30 29 28 22 24 19 14 13 30 28 24 24 24 23
22 17 18 19 14 10 8 8 7 3 3 2 0 0 1 4 8 9 15 15 31 34 35 36 26 44 37 33 12 30 33 22 20 18 24 23 20 17 14 17 39 31 26 25 24
21 16 15 18 15 10 8 6 6 6 3 1 2 3 3 4 3 5 10 16 33 36 26 27 38 39 32 29 14 22 25 22 18 12 17 20 22 23 22 22 27 37 30 27 25
20 15 13 16 15 10 8 6 3 3 4 1 2 3 3 5 5 5 10 18 26 36 24 25 32 38 31 26 23 11 18 18 23 13 19 15 24 28 29 24 21 32 33 31 26
19 14 12 15 13 11 7 7 7 7 2 3 4 4 7 7 7 7 10 20 12 17 17 19 25 36 32 20 17 17 16 14 16 22 21 18 7 26 31 28 25 23 37 26 24
16 12 11 13 12 10 9 4 3 1 1 3 3 7 9 5 10 5 11 13 16 16 10 8 28 34 31 25 14 12 16 16 11 17 17 17 11 20 23 26 32 27 27 31 27
13 10 9 11 9 10 7 2 0 2 2 4 6 9 9 10 8 12 13 18 12 15 12 14 28 28 29 27 19 12 14 14 11 8 4 16 15 20 25 27 30 26 26 28 32
11 8 7 10 8 9 7 1 2 4 5 4 6 16 9 10 12 9 10 20 12 10 14 15 29 25 30 32 22 15 17 4 2 2 4 6 14 30 10 11 14 16 21 24 29
9 7 7 9 7 7 6 5 5 9 7 4 10 13 6 12 10 12 11 8 14 11 18 6 12 24 27 29 20 18 16 5 4 3 3 5 12 10 6 11 15 15 18 27 29
7 6 6 8 8 7 5 6 4 3 4 5 13 11 12 6 6 8 10 10 14 10 5 6 5 23 20 27 25 24 22 10 4 2 1 8 15 26 25 21 18 19 19 20 22
6 5 5 8 8 6 4 4 4 6 5 5 1 4 8 10 11 8 12 14 14 10 8 7 9 15 21 24 20 16 25 12 6 2 3 5 11 14 14 15 12 13 14 20 22
5 5 5 7 6 2 4 5 7 5 4 4 6 6 9 12 9 12 10 11 16 15 9 11 6 15 19 15 22 21 25 16 13 9 4 2 7 3 2 8 16 16 16 17 18
5 4 5 4 5 2 7 5 4 3 3 6 7 6 5 9 8 7 10 7 15 11 15 10 4 12 16 16 23 27 23 30 16 6 10 7 17 8 14 24 21 19 13 13 16
4 4 5 4 2 5 6 8 6 4 3 4 4 5 6 4 2 5 7 10 11 19 15 14 5 8 7 17 22 26 29 25 29 24 28 9 9 5 7 4 18 19 9 11 13
3 3 5 4 2 7 7 6 5 6 3 4 5 4 5 2 1 4 5 4 13 21 19 15 12 6 9 4 12 27 36 37 35 28 27 43 40 39 36 34 29 18 8 9 12
5 4 6 6 7 5 6 4 5 4 5 3 5 5 4 4 2 4 4 7 17 18 21 13 9 13 12 13 15 13 17 34 42 44 35 41 42 43 38 31 27 26 26 16 14
6 5 6 8 10 8 7 5 5 5 2 3 5 4 3 3 1 6 5 6 6 8 9 12 3 6 11 15 19 18 20 22 27 33 44 51 55 44 40 39 27 24 27 28 23
7 3 4 8 13 10 10 8 7 4 3 3 3 3 4 4 5 6 4 6 6 4 9 9 8 6 5 7 11 16 26 28 30 31 31 38 32 29 26 25 23 25 25 24 15

GFSSW_700_spd_051.txt.gz
Wind_Speed
23 25 26 31 29 31 26 22 23 17 12 9 10 16 15 19 22 25 34 25 31 26 27 34 41 41 45 50 48 36 26 27 24 29 28 31 27 22 11 14 19 21 18 18 19
24 25 26 29 28 28 23 21 21 14 10 8 7 11 10 18 21 26 23 30 27 24 30 30 37 40 42 46 48 51 43 24 22 24 30 31 26 23 15 14 19 21 20 19 20
23 25 25 27 25 26 21 21 18 10 10 9 8 11 10 12 19 28 28 31 26 31 32 27 29 35 39 44 44 48 51 41 33 25 16 36 27 22 17 18 21 23 21 19 20
22 25 25 24 23 23 19 18 14 10 9 7 6 8 9 8 10 27 30 26 29 38 28 27 31 35 34 36 35 37 36 41 30 31 26 34 41 24 21 20 21 21 23 20 20
23 23 24 22 21 21 17 14 12 10 8 6 6 7 9 10 14 14 32 26 36 40 31 30 31 35 35 32 31 33 24 35 34 38 36 30 46 33 25 21 21 21 22 22 21
24 21 23 21 19 19 16 13 9 8 8 7 7 7 8 12 14 20 22 28 36 34 34 29 30 30 30 28 28 27 30 25 35 32 38 40 43 41 32 22 19 20 21 22 22
24 21 21 21 18 16 15 11 6 5 5 7 13 6 8 9 7 16 18 20 41 35 38 28 26 29 28 23 26 14 25 15 21 24 30 29 49 55 43 33 23 16 23 25 23
26 22 20 20 17 14 14 11 7 4 3 6 10 8 2 4 5 21 14 21 40 36 35 25 25 28 22 26 22 22 15 21 19 21 25 21 34 48 56 47 32 22 26 28 25
27 22 19 18 17 12 12 11 9 6 5 6 8 7 3 4 6 18 17 19 29 39 35 26 25 29 23 25 20 25 21 26 24 23 26 25 25 22 26 56 40 32 23 31 29
27 20 18 17 17 12 10 10 9 6 4 4 6 4 4 4 2 12 11 17 25 37 40 25 28 33 30 28 25 31 19 26 19 32 28 24 23 19 11 25 45 27 28 33 30
26 20 18 16 16 12 8 8 8 6 4 5 2 2 3 6 10 8 14 17 35 36 35 27 37 41 35 28 17 23 20 21 14 14 23 22 17 19 13 18 17 43 32 34 34
25 18 16 14 16 11 8 7 4 5 4 2 3 3 3 7 6 5 7 14 34 38 35 29 29 36 30 26 15 11 22 19 17 15 10 18 20 19 19 16 14 19 41 35 34
23 17 14 13 15 11 9 7 5 2 4 2 0 3 4 6 5 6 5 9 35 35 29 18 24 31 28 25 16 13 23 26 17 11 13 9 17 23 24 23 18 17 42 39 38
22 15 13 12 13 10 7 7 6 3 2 3 2 3 7 7 6 6 6 4 27 30 15 10 21 31 28 24 19 14 11 13 17 18 10 14 6 18 23 26 24 18 32 42 40
20 14 11 11 12 9 9 5 3 3 2 3 2 5 8 3 10 6 8 6 25 26 16 7 25 30 28 19 26 15 14 13 13 19 13 15 8 16 23 28 28 23 23 28 43
17 13 11 10 10 9 8 2 1 1 2 3 5 8 6 9 8 12 12 7 19 22 15 16 25 28 29 20 16 14 20 15 12 11 5 17 16 14 20 25 22 21 26 24 38
16 12 11 10 9 8 6 2 2 3 3 5 6 10 9 8 13 15 19 17 10 14 10 23 28 25 30 22 16 20 25 5 2 3 4 9 15 26 6 4 4 11 20 25 27
14 12 10 9 8 7 6 4 4 6 7 7 12 10 7 8 10 12 19 18 12 3 11 10 17 26 27 29 19 20 18 6 6 4 3 9 9 7 1 3 3 12 14 17 27
14 11 10 9 10 7 6 6 4 3 4 11 15 8 8 4 6 12 15 13 13 9 4 8 8 25 27 31 20 20 16 6 6 4 1 6 6 9 12 3 9 12 18 19 21
13 10 9 10 10 6 8 6 6 6 7 9 2 5 7 4 9 13 8 16 14 12 4 10 11 22 22 24 27 16 22 8 3 3 3 2 5 8 7 6 5 6 9 14 20
12 10 8 8 7 5 7 8 8 6 5 6 9 8 8 8 6 10 5 17 15 13 9 13 11 15 15 20 23 26 19 14 9 5 3 1 3 7 10 3 12 18 15 12 15
11 8 9 6 6 6 7 6 6 5 5 7 7 9 12 10 9 6 7 4 12 15 11 9 11 15 16 16 24 25 23 25 14 5 9 5 10 8 6 14 20 11 17 14 13
10 9 5 4 3 8 7 9 9 5 3 4 5 7 10 8 4 5 7 8 10 12 12 10 7 10 6 8 14 21 27 25 28 20 15 8 5 3 4 5 4 16 25 19 13
10 7 3 2 2 6 8 6 8 6 6 4 6 7 7 6 3 5 6 5 11 13 11 11 10 5 9 4 10 22 27 28 27 23 22 38 37 37 28 26 28 35 32 25 14
9 6 3 1 5 7 6 5 6 6 5 3 4 3 3 3 5 6 6 6 11 15 16 10 8 9 4 5 7 9 13 18 33 39 35 42 41 40 39 37 38 34 27 27 22
9 9 4 6 8 7 7 6 8 5 5 5 4 5 3 2 3 5 5 7 5 11 14 17 4 8 12 14 15 18 20 21 26 25 32 39 47 32 29 35 29 27 31 27 24
8 6 4 6 10 9 8 8 9 7 4 4 2 2 4 5 5 6 4 6 3 4 5 8 6 2 3 5 7 13 14 18 26 28 28 32 28 27 29 27 26 20 19 24 24

GFSSW_700_spd_054.txt.gz
Wind_Speed
22 21 23 23 25 25 27 26 23 19 13 11 8 7 10 15 15 27 18 31 23 31 30 31 40 44 43 44 43 32 26 31 19 19 19 28 26 22 16 19 26 29 26 23 23
23 21 22 22 23 23 25 24 21 14 10 9 9 8 8 10 15 19 22 29 24 32 31 31 35 42 43 42 44 42 35 27 24 20 22 26 26 23 16 16 23 26 26 25 26
23 22 20 22 21 21 22 21 16 11 11 9 9 9 9 8 12 22 25 32 28 28 35 31 30 37 41 40 40 40 42 30 23 22 22 20 21 22 18 16 23 24 24 25 25
24 23 21 20 21 19 20 18 14 10 10 5 7 7 7 8 8 19 24 32 31 34 34 33 31 36 29 48 40 42 40 28 26 27 23 27 24 24 20 19 20 23 24 22 24
25 23 21 19 20 18 18 16 13 8 8 8 7 10 9 9 13 11 24 29 27 43 36 36 35 30 30 26 41 47 32 37 35 31 26 25 36 34 22 21 21 22 25 22 25
25 24 21 18 19 17 16 15 13 7 6 6 9 9 11 11 13 15 16 30 25 41 37 34 34 27 25 25 29 28 25 29 29 32 27 32 25 39 34 22 21 20 23 24 25
25 24 20 18 18 17 15 14 11 9 6 6 10 12 8 11 13 18 17 18 26 42 32 28 30 27 21 23 24 20 27 22 26 24 33 31 39 39 45 36 25 21 21 24 27
25 24 21 17 16 17 13 12 11 9 8 7 9 9 4 5 11 15 16 15 27 40 31 22 29 26 22 20 25 18 20 21 24 26 26 23 32 39 43 49 32 25 21 24 28
25 23 20 16 15 16 12 11 10 9 8 9 7 8 6 4 4 13 17 16 20 39 29 22 29 27 24 20 21 22 18 23 20 25 25 24 15 15 40 53 45 33 25 22 28
23 22 19 15 14 15 11 9 9 8 5 6 5 3 4 5 6 16 15 14 34 35 34 25 30 29 23 25 28 28 23 22 17 26 27 22 19 11 10 30 47 40 36 28 28
23 22 17 15 12 15 9 7 6 5 4 4 2 2 2 2 7 9 16 13 39 35 37 29 31 37 30 24 14 18 20 17 17 21 23 22 19 17 17 19 25 46 46 37 34
22 21 16 14 12 13 8 5 2 3 4 2 2 2 2 4 4 4 10 14 26 35 34 26 27 25 24 22 15 20 20 16 12 13 16 16 17 15 17 22 20 21 43 43 38
23 19 15 13 12 11 8 4 4 1 4 1 1 2 2 6 4 3 5 8 26 35 34 25 19 27 27 26 17 16 21 19 12 12 12 7 14 21 24 21 22 17 16 44 39
23 19 14 12 12 10 7 5 2 3 2 3 1 2 3 9 8 8 2 20 29 29 27 19 24 27 25 21 17 12 16 16 12 11 9 12 6 13 25 25 23 22 25 31 45
22 18 12 11 11 9 8 3 3 7 2 1 2 3 4 5 9 7 7 10 27 37 13 7 30 28 24 22 16 10 13 14 14 14 9 10 9 17 15 24 26 25 27 21 48
21 15 12 10 10 8 7 4 6 3 3 1 2 5 4 5 5 14 11 11 24 26 14 18 23 25 24 24 21 15 15 12 10 10 8 16 14 8 10 15 20 21 23 23 33
19 14 12 10 9 7 4 4 4 4 3 3 5 5 6 7 11 11 14 19 18 21 11 17 25 22 26 22 24 17 20 7 6 6 5 7 12 16 8 9 4 12 20 22 28
18 13 12 9 8 4 3 6 4 7 2 6 10 9 6 4 12 15 11 12 21 14 18 11 12 25 28 19 17 23 21 5 6 5 5 8 8 5 3 4 8 11 13 15 25
16 12 12 11 9 5 7 7 4 3 9 9 11 6 7 5 10 9 9 8 7 14 6 9 8 17 29 20 20 21 15 6 5 3 3 6 7 9 8 5 5 8 11 12 16
15 11 10 10 7 8 10 9 7 7 5 10 4 5 5 7 9 9 5 12 9 6 10 13 12 16 25 23 19 17 14 6 2 4 4 3 5 5 10 8 5 5 5 5 15
12 9 11 8 8 8 11 11 9 8 7 3 6 6 6 7 8 5 4 15 13 12 7 14 11 18 23 18 21 16 15 11 5 2 2 1 2 10 13 9 4 6 7 6 6
10 6 9 5 6 10 10 9 8 7 8 8 5 9 7 8 11 4 7 8 15 12 15 7 9 14 15 18 19 22 15 18 13 6 6 4 6 8 16 6 7 10 3 13 13
9 7 3 1 7 11 11 11 8 6 4 6 7 10 10 7 5 7 8 10 15 13 10 9 10 11 7 13 19 23 27 25 20 17 10 9 4 9 18 19 20 13 17 24 22
7 4 3 2 9 11 10 8 10 8 8 6 10 10 9 7 7 7 9 10 14 14 11 8 14 8 9 6 12 20 25 28 25 17 24 26 22 19 19 18 20 30 35 31 22
5 2 3 2 9 11 9 10 9 9 7 8 7 5 6 3 7 8 7 8 11 14 13 9 8 7 8 7 8 6 16 24 29 30 25 25 27 25 25 28 36 36 31 22 21
5 5 3 6 10 11 10 9 9 7 7 7 7 9 6 7 5 9 7 10 7 13 15 12 5 10 10 10 11 13 15 18 20 24 28 30 34 25 24 22 24 26 24 24 23
4 5 5 8 12 12 10 10 10 7 6 6 7 5 6 7 8 9 7 6 4 5 8 10 10 4 3 5 6 10 12 14 18 22 23 22 23 22 23 23 23 24 25 27 27

GFSSW_700_spd_057.txt.gz
Wind_Speed
26 24 23 22 23 23 22 23 23 23 16 14 15 11 10 10 14 17 24 20 29 27 32 31 38 43 40 41 35 28 27 32 25 28 23 22 26 24 17 18 23 26 25 23 30
26 24 24 22 22 22 21 21 21 19 16 15 14 11 9 8 7 10 14 14 29 23 35 30 33 40 44 45 39 37 29 31 25 20 20 21 22 31 19 16 20 24 27 23 23
25 23 23 23 20 21 19 19 19 17 15 15 10 9 7 9 9 8 19 22 31 27 37 34 26 35 46 45 39 39 37 18 30 25 15 20 24 22 19 12 13 25 26 24 23
26 23 23 22 19 20 18 17 17 15 12 11 10 9 7 6 5 12 17 23 24 28 34 32 32 32 34 47 36 32 33 25 15 15 32 16 24 19 16 19 20 22 25 25 24
26 23 22 22 18 19 17 16 16 14 12 9 8 10 10 8 10 13 13 19 28 35 35 34 32 30 32 42 39 34 30 30 28 23 21 33 23 26 20 21 19 22 22 25 25
27 23 22 20 18 17 16 15 14 14 12 9 9 11 7 7 20 15 16 18 25 34 33 35 34 25 26 22 43 29 27 32 26 26 26 26 25 31 28 19 19 21 23 24 23
26 22 21 20 17 16 16 14 13 13 11 11 10 11 7 10 14 16 17 17 21 31 29 39 31 28 22 23 20 36 30 25 35 22 26 23 25 38 34 23 21 19 20 24 25
26 22 21 19 15 14 15 12 11 12 11 10 11 11 8 7 14 15 19 17 20 28 35 39 36 34 19 19 22 20 26 29 34 28 23 29 32 29 34 36 28 24 17 21 26
26 22 21 17 13 13 14 10 9 10 9 8 8 8 6 10 10 13 16 15 12 27 41 36 37 24 27 27 24 21 20 21 14 20 20 25 19 14 24 38 47 31 25 20 25
25 22 21 15 12 12 12 8 6 8 6 7 4 4 9 11 10 5 14 15 19 23 43 14 30 29 25 31 31 28 23 18 15 21 22 19 17 10 15 25 41 43 32 23 23
25 22 18 13 11 12 10 5 5 4 5 3 3 3 6 5 4 6 13 14 22 25 23 19 31 32 31 28 19 25 24 17 17 16 25 20 17 18 13 13 18 36 42 31 24
24 21 15 12 10 11 8 5 2 2 4 3 3 3 3 3 5 3 14 14 29 27 16 17 26 23 22 21 13 20 24 15 12 10 19 18 20 22 20 20 18 15 39 36 28
24 19 13 12 9 10 8 3 1 3 2 4 3 4 3 5 4 5 2 13 34 21 20 18 15 21 22 20 17 17 23 20 14 12 11 12 18 21 24 22 21 22 21 35 33
22 16 13 11 9 8 6 2 0 4 3 3 5 5 5 6 5 7 2 28 24 23 20 23 12 24 24 19 18 19 18 16 12 14 11 15 7 22 21 24 23 21 23 25 38
20 15 13 10 8 7 7 2 4 5 2 3 3 8 5 6 5 10 5 17 23 23 18 15 19 24 23 20 16 12 19 14 14 15 10 12 9 15 10 15 21 21 21 21 24
19 14 12 9 8 6 4 5 6 0 2 3 4 7 6 4 6 8 5 20 16 17 14 17 26 20 20 18 11 12 16 12 11 12 11 16 14 11 11 6 11 15 18 21 24
18 14 11 8 7 5 3 4 3 3 1 2 4 7 4 5 11 12 12 20 12 20 4 22 25 19 27 22 19 17 22 8 5 4 4 1 13 14 3 8 8 10 17 20 20
17 13 10 8 6 4 5 8 2 3 1 4 7 9 4 4 5 8 11 14 16 14 13 5 5 21 25 19 14 18 20 6 5 6 11 7 8 7 10 12 13 10 11 14 20
15 12 10 8 6 7 8 6 1 0 4 7 7 5 4 3 8 5 5 12 10 14 7 4 4 21 25 19 14 18 20 5 2 4 1 8 6 12 5 2 2 5 6 8 12
13 10 10 7 7 9 10 6 4 4 8 8 1 4 5 7 5 4 2 10 15 18 10 6 7 14 22 21 13 15 14 6 0 4 4 4 4 2 7 6 6 5 3 2 6
9 8 8 6 7 9 10 9 7 6 6 4 5 5 7 7 7 3 2 6 11 13 15 9 8 8 25 11 15 13 11 5 3 1 3 1 6 6 11 9 8 4 2 1 2
8 5 4 5 8 11 12 9 10 7 8 6 4 7 4 6 5 2 6 7 10 7 11 7 6 12 14 14 15 15 14 15 9 5 6 4 2 3 9 9 8 11 12 11 8
6 5 1 6 8 8 9 9 8 6 4 5 5 5 10 6 3 5 5 10 15 12 6 8 7 10 6 11 15 14 18 12 14 12 6 5 3 6 13 16 17 19 15 18 24
4 3 3 7 11 15 10 7 8 7 6 6 8 8 7 3 4 7 6 13 15 13 9 6 9 5 5 4 10 17 20 18 18 11 16 19 17 14 13 15 17 21 24 28 31
4 5 2 8 14 15 12 11 8 6 6 6 4 4 3 1 4 5 9 12 14 12 10 6 6 6 2 2 8 6 13 20 21 27 19 17 18 17 18 21 24 27 29 30 29
8 7 7 10 15 15 12 11 8 8 10 4 4 4 4 4 5 4 4 7 7 13 13 10 4 8 5 5 5 7 7 9 16 18 19 19 22 21 20 15 22 24 27 28 27
8 9 8 11 16 12 12 14 12 10 7 9 10 4 6 5 4 6 6 9 4 5 11 11 8 5 3 7 7 9 11 13 13 12 12 15 14 19 16 18 19 20 21 24 26

GFSSW_700_spd_060.txt.gz
Wind_Speed
31 28 26 27 23 22 21 22 21 22 21 18 16 16 17 16 14 15 16 30 24 15 39 27 26 39 40 42 36 38 29 32 31 26 21 23 21 26 19 20 24 23 21 15 28
34 29 25 26 24 21 20 20 20 21 19 16 15 13 14 13 11 9 8 25 20 17 32 36 27 37 42 41 37 37 34 35 27 25 20 28 25 24 22 23 18 23 24 19 26
36 31 26 25 24 21 19 20 19 19 17 13 11 11 11 12 9 10 5 14 14 27 22 36 29 33 42 42 38 40 40 32 22 17 16 24 23 27 20 16 16 22 23 23 16
37 31 26 23 23 21 18 18 19 17 16 13 11 10 12 10 4 5 9 10 19 30 28 35 32 30 35 44 36 40 27 26 25 19 21 21 23 23 20 24 27 20 21 23 22
37 31 25 22 22 20 17 18 18 16 14 12 10 10 12 9 10 13 11 10 22 24 23 32 31 32 29 46 34 27 34 22 19 30 22 23 22 29 25 22 28 18 20 21 21
37 31 25 22 22 18 15 17 18 14 14 11 11 11 12 7 14 18 12 11 16 26 27 31 32 27 29 22 42 36 25 29 23 15 24 29 22 29 25 22 20 18 19 21 20
35 29 25 23 22 17 13 16 16 13 12 10 10 12 12 10 12 18 13 13 11 20 26 33 33 29 20 25 29 33 34 33 26 25 20 28 35 36 27 20 20 17 18 19 20
33 28 25 23 20 14 12 15 13 11 11 9 9 10 10 9 10 14 14 13 11 17 29 34 28 33 26 27 21 21 32 26 15 23 29 25 28 20 33 37 25 25 17 15 21
31 28 25 23 17 13 13 13 10 10 8 6 7 7 3 14 10 13 12 12 11 12 30 37 32 35 26 29 20 17 25 30 16 30 12 22 15 20 25 34 39 33 24 18 16
30 27 24 21 15 11 13 10 8 7 6 6 4 5 6 14 15 3 10 12 12 11 20 43 14 39 29 26 28 20 18 26 20 16 27 22 18 10 15 21 29 42 30 24 19
29 26 22 18 13 11 11 8 5 3 6 3 5 6 10 13 6 4 9 13 11 16 20 38 25 40 36 35 25 20 20 18 16 14 23 18 16 18 9 17 16 29 44 47 34
28 25 19 15 11 11 9 7 2 2 7 5 5 5 8 7 7 2 10 10 17 18 17 17 26 31 29 29 23 20 18 19 20 16 18 18 17 18 21 19 14 12 25 47 39
26 22 17 13 9 9 9 3 2 2 3 7 6 7 6 7 10 5 4 10 17 19 17 16 25 19 24 25 19 22 29 24 21 15 13 11 17 24 23 21 19 18 19 20 44
24 20 15 12 9 8 6 2 1 3 2 6 9 4 4 7 7 8 2 13 20 16 10 8 30 22 21 19 16 16 25 22 16 16 7 14 4 8 11 17 24 19 24 20 25
21 18 14 10 8 7 4 1 3 5 1 6 4 4 8 10 7 7 6 24 18 15 8 7 18 23 20 18 13 12 9 18 15 11 9 12 4 7 7 6 13 18 18 21 24
19 16 12 9 7 5 2 5 5 0 3 4 3 5 9 6 7 10 14 14 11 12 7 7 27 19 19 16 11 17 18 12 10 5 3 8 8 7 12 10 10 16 18 18 20
16 14 10 7 6 2 4 4 2 4 3 2 2 7 5 5 10 9 12 17 7 9 7 7 16 19 21 13 12 15 18 5 3 0 2 6 11 5 5 5 9 9 22 19 18
14 13 9 6 4 3 7 8 3 3 3 8 5 8 4 5 7 7 9 10 11 1 10 6 6 15 20 13 15 20 15 5 4 4 4 4 4 8 14 15 16 16 11 16 23
12 9 7 4 1 5 8 6 1 2 8 8 7 5 5 5 6 6 9 8 8 6 4 7 6 16 16 19 17 20 16 3 2 2 7 9 8 6 7 7 6 9 8 7 11
10 6 4 2 4 6 8 4 2 6 11 7 3 3 3 6 4 4 3 10 7 11 7 8 8 18 18 18 18 10 9 5 2 2 2 5 8 4 13 8 7 7 6 4 4
8 4 2 1 6 7 6 5 4 8 8 7 7 6 7 5 4 3 3 9 9 12 7 12 5 12 15 11 15 14 14 6 4 0 0 2 3 12 16 12 9 8 4 2 2
6 4 1 4 9 8 9 9 8 8 11 9 11 9 5 4 5 3 5 6 9 10 9 6 6 9 17 9 16 17 10 10 5 3 1 2 2 5 8 11 9 5 10 11 14
6 3 4 6 9 6 8 8 8 4 2 7 8 11 11 6 2 6 3 8 10 16 10 8 4 7 6 8 11 14 14 16 14 10 5 1 4 6 7 9 13 15 14 15 23
6 5 7 10 13 12 8 5 6 8 8 9 9 11 8 3 3 5 5 10 13 10 10 6 9 1 4 2 9 23 21 17 13 6 11 16 12 10 11 14 9 14 19 23 29
7 6 6 11 16 18 13 9 7 6 7 10 7 7 5 4 6 6 5 11 13 9 9 7 7 6 4 4 7 7 13 20 22 25 11 20 18 16 18 21 22 26 29 31 32
11 8 9 14 16 16 13 13 10 9 10 5 6 6 7 7 5 6 6 6 5 11 9 7 6 7 4 4 3 4 8 11 17 19 17 18 20 19 24 29 30 30 30 27 25
9 9 10 13 18 16 14 15 14 12 10 11 11 5 5 4 4 4 6 8 6 5 9 6 5 4 2 5 8 8 11 14 13 16 15 15 14 23 26 27 24 19 20 20 20

GFSSW_700_spd_063.txt.gz
Wind_Speed
45 41 37 28 27 24 22 21 19 20 19 19 18 17 17 17 17 15 15 18 16 19 36 34 27 28 40 41 44 38 32 34 32 29 21 28 33 28 21 22 23 22 21 21 30
47 42 36 28 24 24 23 19 18 19 19 17 17 14 14 14 14 12 12 10 13 17 25 35 27 29 41 41 41 42 35 41 32 26 23 25 34 35 25 23 24 24 17 16 18
49 43 35 27 23 22 23 19 17 19 18 16 16 14 14 13 14 10 7 7 16 15 26 36 27 28 39 39 41 47 34 42 36 22 22 26 30 32 29 26 25 24 25 20 20
53 43 36 27 23 22 22 18 17 18 17 15 14 13 11 10 8 6 6 9 13 21 20 36 31 28 32 38 41 28 42 34 30 20 25 28 32 31 28 28 31 26 22 21 22
54 43 35 28 24 23 21 16 17 17 15 14 13 12 11 11 14 13 10 9 11 16 20 29 35 27 28 43 40 34 25 35 30 26 27 31 32 31 26 24 25 22 21 22 23
51 40 34 28 25 23 19 15 17 15 13 13 12 12 12 14 13 14 10 12 9 14 29 28 32 29 27 36 37 32 31 19 40 38 33 35 33 32 28 26 24 22 19 20 23
48 39 33 28 25 21 17 15 16 13 11 11 11 12 12 11 10 15 11 10 11 11 18 33 30 33 26 23 40 24 22 31 30 28 34 35 35 30 28 26 23 22 22 18 21
44 36 31 28 24 19 15 15 14 11 10 10 9 10 9 5 9 13 13 9 11 10 16 32 30 33 22 25 29 31 18 24 33 30 18 28 33 28 28 25 21 21 29 28 22
42 34 30 26 21 16 13 14 11 8 8 7 8 7 6 10 11 15 17 10 10 10 18 36 35 20 27 26 27 24 12 21 17 22 14 17 23 33 24 25 24 26 19 26 28
39 33 29 23 17 14 13 12 10 6 6 6 4 6 8 12 12 10 5 8 10 9 12 37 29 19 27 28 19 27 32 28 24 22 14 31 21 18 31 28 32 33 27 24 25
35 30 26 20 14 12 12 10 7 4 5 4 7 8 9 10 7 5 4 10 12 9 13 36 24 24 36 33 23 22 22 27 23 23 23 23 22 16 20 22 25 24 32 36 33
32 28 23 17 13 11 10 8 6 2 6 6 6 6 5 8 8 4 10 9 11 14 10 32 33 19 23 26 17 15 12 14 10 13 16 20 19 23 23 21 20 22 24 30 36
30 25 19 14 11 11 8 5 4 0 6 7 7 6 6 8 7 7 5 6 8 12 12 29 34 12 29 23 19 13 18 18 19 19 17 16 18 23 29 25 22 23 19 20 32
27 21 17 12 10 9 7 3 1 2 0 6 8 8 10 10 8 7 3 5 10 14 19 17 21 26 31 26 25 16 19 17 19 22 8 17 4 15 22 25 26 24 21 19 19
24 19 14 9 8 7 4 0 3 3 2 6 7 6 10 10 6 8 15 12 15 12 8 10 27 19 27 31 25 17 27 19 20 9 11 14 5 6 7 15 17 23 20 19 18
22 16 12 8 6 6 1 5 5 1 2 3 6 8 8 9 13 14 25 20 12 11 10 24 25 18 19 19 12 19 26 22 18 18 3 13 10 2 6 6 4 7 11 14 12
20 14 10 6 5 3 3 5 3 3 1 3 7 10 11 13 15 17 16 13 11 5 9 16 19 23 21 18 22 26 26 5 3 2 3 12 10 3 10 3 3 7 14 15 16
17 12 9 4 3 2 5 8 4 1 2 11 8 10 8 9 12 11 13 14 10 8 11 6 12 20 21 15 16 24 8 4 4 3 3 7 9 5 8 8 10 10 9 18 15
15 10 6 2 2 4 7 6 4 5 13 12 8 8 7 10 11 8 14 10 8 8 6 6 9 16 18 14 19 18 7 6 6 5 4 6 7 8 8 10 12 14 15 14 19
12 9 4 1 4 7 6 6 2 11 13 5 2 3 3 10 8 5 5 7 9 8 11 10 11 18 15 16 15 8 7 5 2 3 3 6 7 4 16 10 5 4 5 7 8
10 8 5 5 7 8 7 6 7 12 9 8 7 10 8 8 9 6 4 9 11 11 12 12 7 11 18 9 9 8 8 4 3 1 3 2 2 11 13 4 3 7 7 5 4
9 8 8 8 11 9 13 10 9 9 8 12 13 13 9 7 6 5 6 5 11 11 9 4 8 11 10 8 15 12 12 6 1 1 3 3 3 15 6 2 3 7 6 8 11
10 10 11 12 11 14 13 14 10 11 9 14 11 15 11 8 6 5 5 10 9 13 10 9 6 8 4 6 14 18 16 16 10 5 3 3 5 9 4 2 6 9 10 10 14
12 12 15 16 14 16 16 13 12 8 11 9 14 15 9 5 4 8 9 9 9 9 11 9 10 5 8 4 11 19 20 20 18 11 8 7 17 9 5 8 10 12 15 17 18
15 12 12 18 20 19 16 10 13 14 13 16 13 14 11 7 8 8 7 10 13 11 10 8 9 7 6 6 9 12 21 21 21 23 17 23 19 14 16 16 18 21 25 27 28
16 12 14 14 18 20 18 17 14 13 17 11 8 12 10 11 5 8 11 11 10 13 9 7 8 7 7 5 6 8 11 17 26 24 24 23 23 27 26 23 22 29 31 31 32
15 13 14 18 23 21 21 20 16 13 12 13 11 10 8 7 5 6 9 8 8 12 12 11 7 9 4 5 5 8 12 13 15 16 20 23 21 22 22 23 28 30 30 25 22

GFSSW_700_spd_066.txt.gz
Wind_Speed
45 46 45 39 35 28 22 20 19 17 18 19 18 18 19 18 17 17 16 17 19 23 30 36 37 34 32 48 40 43 43 34 39 31 35 39 38 24 15 23 27 26 31 24 23
42 47 47 41 34 28 23 20 19 17 18 18 17 18 19 16 16 16 15 16 15 14 16 36 36 33 31 45 43 40 48 41 32 39 31 34 49 38 26 24 31 28 22 18 22
42 47 50 41 34 29 23 21 18 17 18 18 17 18 17 15 17 15 13 10 13 10 19 41 27 33 34 40 53 40 42 34 30 32 31 24 32 40 39 25 27 28 31 25 23
44 48 48 40 33 29 25 20 17 17 18 18 17 16 15 14 10 11 11 11 13 13 17 34 29 31 30 41 52 36 38 35 33 32 35 27 28 32 35 29 24 24 29 27 22
39 45 45 39 33 29 24 18 15 16 18 17 16 15 15 15 16 18 15 15 10 15 13 30 34 21 29 35 40 38 43 37 29 27 33 27 31 37 38 35 27 24 25 24 22
40 46 44 37 32 28 22 15 14 15 16 16 15 14 13 14 15 14 8 13 10 13 14 29 30 27 27 24 51 28 29 45 25 26 31 31 33 35 35 38 33 28 25 24 24
39 47 43 36 31 26 19 15 13 15 14 14 14 12 13 10 12 13 9 10 9 10 13 27 17 28 21 17 33 13 27 29 43 26 33 33 34 35 32 33 31 30 26 24 25
39 44 42 35 29 23 16 14 14 12 12 12 11 11 9 7 9 10 12 11 9 10 12 22 28 30 20 16 29 20 25 22 24 32 27 37 32 36 33 32 30 29 27 25 21
38 43 40 32 26 19 15 13 12 10 9 10 9 9 6 8 10 12 15 13 8 9 12 14 30 30 19 22 24 28 25 34 17 32 19 32 28 36 35 32 28 27 26 26 23
38 40 37 30 23 17 14 12 9 7 7 7 6 7 9 10 10 9 4 7 10 9 8 7 27 31 25 24 22 30 21 25 21 23 18 18 25 28 31 28 24 22 20 20 21
31 37 35 28 21 16 13 10 6 6 6 5 7 7 11 12 10 4 3 9 11 9 9 12 22 30 38 26 23 24 25 25 12 11 13 21 18 30 25 27 26 24 24 22 23
31 34 32 26 18 14 11 8 4 3 4 6 7 10 10 14 7 3 7 8 12 10 11 18 20 32 19 20 18 16 19 14 10 8 10 11 18 23 25 27 27 25 30 34 32
25 33 29 23 16 12 9 6 3 2 3 7 7 8 11 11 6 4 7 5 8 9 11 21 23 19 14 19 20 13 15 18 27 24 10 10 17 33 24 25 25 27 29 29 30
25 33 28 20 13 10 7 4 1 1 2 6 7 9 12 10 5 5 3 3 6 11 11 8 23 12 8 25 20 20 17 18 22 24 17 10 3 15 25 27 28 27 30 30 26
26 25 29 18 12 8 4 2 2 3 3 4 6 6 10 8 6 4 9 8 9 15 9 8 25 23 24 26 21 13 18 14 18 18 10 14 6 4 11 26 24 21 23 23 22
22 22 28 15 10 6 3 4 3 2 2 2 3 6 10 12 9 15 17 21 15 11 13 15 25 20 21 22 17 14 18 14 17 11 3 13 15 1 5 11 13 20 22 21 19
20 20 22 12 8 5 5 6 3 2 5 4 6 8 10 12 22 19 16 12 5 8 19 19 16 14 25 25 20 19 27 4 2 1 2 11 13 1 7 9 5 10 14 19 18
18 19 15 9 6 8 8 6 2 4 7 11 8 7 8 12 10 15 15 17 8 19 20 6 8 9 27 19 15 29 18 7 4 5 5 13 7 5 6 6 5 3 4 9 14
15 15 10 6 8 11 10 4 4 10 16 12 9 5 8 11 9 10 11 13 10 7 4 10 7 19 16 15 27 11 10 6 10 4 5 7 6 8 9 6 6 7 9 11 11
17 12 8 5 11 14 10 5 8 14 16 10 4 6 9 10 7 6 4 11 10 10 8 11 12 17 16 20 9 10 10 5 4 3 3 3 2 5 9 6 8 8 8 9 11
18 13 9 11 14 15 8 7 12 19 13 10 7 10 11 10 9 5 5 11 10 12 15 13 10 11 16 7 11 12 7 4 5 2 3 2 2 9 5 5 2 8 10 10 9
14 13 13 14 18 13 12 12 13 16 12 10 12 15 10 10 8 7 8 8 13 11 10 8 10 10 9 7 10 10 9 6 2 3 3 2 2 11 9 6 10 9 6 7 6
20 16 15 19 17 16 19 14 12 13 14 16 10 10 12 10 8 8 11 15 15 12 7 10 9 9 3 8 14 14 15 13 7 5 3 2 6 15 12 10 10 9 9 12 14
19 17 20 22 17 22 22 19 16 13 12 17 16 13 9 4 9 12 16 11 12 10 8 7 13 6 10 4 10 20 20 18 17 7 7 4 13 15 10 8 9 11 12 14 16
21 16 14 24 24 24 24 20 18 19 15 16 15 14 13 6 12 13 10 14 13 14 11 7 8 8 6 2 6 10 15 18 19 20 11 11 17 18 11 11 14 17 19 20 22
26 13 17 12 22 27 21 18 19 18 23 17 17 16 12 10 2 12 12 16 9 14 11 9 11 10 7 5 6 6 10 18 19 20 21 16 16 21 21 23 25 24 23 26 28
20 18 15 22 30 29 22 22 20 19 18 15 13 11 10 8 8 8 12 12 10 13 11 7 9 8 5 3 3 4 8 11 13 21 25 24 23 21 20 21 23 24 26 29 29

GFSSW_700_spd_069.txt.gz
Wind_Speed
41 41 40 40 42 38 33 29 26 23 18 17 18 20 20 20 20 18 18 18 19 19 21 22 26 36 35 42 49 45 36 38 46 44 35 31 34 34 22 32 31 33 42 24 29
39 39 40 44 43 38 33 29 26 23 18 17 19 20 20 20 18 18 18 18 18 18 24 25 32 32 37 39 45 49 38 54 46 36 34 31 37 39 21 32 34 36 20 26 29
34 38 37 45 46 40 34 29 26 22 18 17 19 20 20 20 18 19 17 16 15 19 19 17 24 34 40 34 42 52 41 47 33 34 35 30 36 44 37 28 33 30 30 30 17
35 37 36 42 47 41 34 28 24 20 17 17 19 19 19 17 12 11 13 16 19 18 18 16 21 35 36 44 42 44 35 53 38 28 34 32 34 40 40 28 28 29 33 22 24
30 36 36 41 45 40 34 27 22 18 16 19 18 17 17 17 16 19 20 20 19 20 14 19 24 23 37 43 33 39 45 35 35 39 37 31 32 35 38 33 24 26 28 28 28
35 35 39 41 43 38 33 25 20 17 17 18 16 14 16 15 16 15 14 12 14 18 15 15 28 18 35 25 36 51 25 37 32 40 32 32 32 39 36 35 34 22 27 26 18
32 29 35 39 35 39 32 24 18 16 17 15 13 13 14 11 13 13 12 11 12 14 12 13 32 14 23 17 33 43 32 40 37 36 26 33 33 35 33 33 33 31 22 27 27
31 31 33 37 36 33 30 21 16 16 14 12 11 12 11 10 10 13 14 12 11 11 11 11 25 29 12 12 23 31 36 30 36 41 15 33 32 34 31 33 35 34 33 27 28
33 30 35 35 34 34 27 19 17 14 11 10 9 10 9 9 12 14 14 15 11 9 10 14 30 22 16 19 17 30 17 25 21 39 12 27 31 33 32 31 35 35 32 28 26
34 29 32 32 34 31 26 18 14 11 8 8 8 9 11 14 14 14 12 6 11 9 11 7 33 23 10 17 9 28 29 16 22 30 33 21 30 34 35 31 30 31 30 24 21
34 32 29 31 31 21 26 16 11 9 6 7 9 8 14 15 16 7 4 6 9 7 8 3 18 27 23 19 9 16 17 16 17 10 11 18 17 36 33 31 28 28 27 27 25
33 32 30 25 28 17 21 13 8 6 3 8 9 10 13 14 2 3 3 5 10 5 4 4 12 26 26 14 13 13 21 6 12 15 6 12 17 28 39 35 27 28 28 26 24
31 30 32 21 26 13 17 10 7 5 3 7 7 7 10 10 5 4 4 5 8 6 6 6 9 19 23 19 13 16 24 22 14 11 4 5 8 12 31 24 30 32 28 26 26
28 33 30 20 20 12 13 8 6 4 3 4 6 7 11 8 2 1 4 1 9 8 9 7 7 22 17 9 27 22 12 10 13 11 7 13 5 9 19 26 27 29 30 27 26
29 34 27 18 15 8 11 6 6 4 3 3 5 7 11 7 5 1 6 3 5 12 7 4 13 20 15 7 10 20 16 11 10 17 15 13 6 1 23 26 30 31 27 25 26
32 33 29 13 12 4 9 7 7 2 3 1 3 5 9 6 4 13 12 12 12 9 10 9 15 12 14 13 16 21 16 18 19 15 4 15 12 3 1 16 25 25 23 20 20
35 30 22 14 9 4 8 10 4 3 4 5 3 4 13 17 15 13 12 7 5 11 11 9 13 11 14 11 13 21 15 4 4 1 2 12 15 2 4 8 7 12 18 19 20
35 29 21 12 9 7 9 12 5 6 7 9 6 6 9 11 11 11 12 11 7 12 16 7 6 11 19 16 10 15 10 5 4 2 2 13 5 2 4 9 6 6 6 10 13
34 27 15 12 8 13 13 10 2 11 14 12 8 7 6 5 7 5 14 12 14 9 5 5 7 20 20 20 14 20 7 5 8 6 3 4 3 3 5 5 4 2 2 5 7
32 23 13 11 10 16 16 7 8 12 17 15 4 6 8 10 4 3 5 10 9 10 10 15 14 19 26 18 11 12 15 5 2 3 3 0 1 2 8 5 5 7 9 12 13
30 16 14 13 16 17 15 7 14 18 19 10 8 10 10 6 5 4 4 10 9 12 17 13 8 12 22 11 17 15 8 4 6 3 3 3 1 7 9 9 9 8 8 6 4
29 14 16 17 20 19 14 11 15 21 15 9 13 13 8 6 4 4 9 7 13 11 11 9 14 11 12 12 13 13 8 5 2 4 4 3 1 8 16 14 11 9 4 3 3
25 17 21 20 22 22 16 13 16 22 14 15 12 11 11 7 2 7 9 15 11 7 6 9 11 10 4 6 11 11 11 8 3 6 6 3 2 15 13 12 11 8 6 7 11
25 16 24 23 20 20 19 16 20 15 15 18 14 13 11 5 4 8 12 13 9 6 7 6 12 5 7 3 6 11 12 10 7 3 4 2 8 12 13 10 8 7 9 12 15
18 11 15 17 25 22 23 18 18 19 15 17 15 13 12 7 7 14 9 12 11 7 5 5 8 6 7 3 4 5 12 14 13 12 6 6 9 16 13 10 10 12 15 18 20
16 6 15 10 24 26 27 23 20 20 21 20 17 14 10 12 3 16 13 14 10 12 9 7 10 10 8 5 4 2 9 11 13 12 14 12 15 15 17 18 20 22 25 24 25
16 11 13 15 28 28 30 25 21 20 19 17 17 13 9 7 7 10 13 14 9 13 11 7 11 9 4 3 1 2 7 10 14 18 18 21 19 19 22 26 28 30 29 28 26

GFSSW_700_spd_072.txt.gz
Wind_Speed
29 31 34 42 37 42 44 40 36 33 30 24 20 20 21 20 19 19 19 20 18 19 20 19 22 22 28 36 36 35 38 39 38 29 44 34 44 35 27 24 26 26 29 41 32
30 30 33 37 39 40 43 39 37 34 29 23 20 21 22 20 19 19 20 20 19 20 20 22 21 24 28 36 34 37 41 49 50 33 43 36 36 34 32 26 29 26 20 35 45
27 31 33 32 41 37 41 40 33 33 26 21 19 21 22 19 21 21 18 18 18 18 19 21 21 22 32 36 40 40 48 45 39 43 37 30 33 30 32 33 33 31 32 37 31
30 33 28 29 39 37 38 41 33 28 25 21 19 22 20 18 13 12 14 16 19 20 22 23 21 22 26 39 39 38 46 41 43 30 31 31 38 21 37 24 26 27 23 28 25
33 30 34 36 35 37 34 38 32 29 23 21 21 20 19 17 17 19 19 20 22 22 24 23 19 20 28 35 38 38 40 45 33 34 41 27 39 31 37 35 24 28 29 29 16
31 33 30 31 37 35 32 34 25 25 21 21 21 19 17 17 18 17 16 17 18 19 19 19 20 14 23 32 35 41 39 32 38 34 37 30 36 31 36 33 35 26 31 25 20
29 33 34 36 31 37 29 28 23 17 20 20 19 16 16 14 16 16 15 15 15 17 18 15 17 18 12 30 29 43 33 29 38 30 33 33 36 34 38 32 33 26 26 29 24
30 31 35 34 30 35 26 27 19 13 18 18 16 16 14 14 14 16 17 17 17 14 15 14 15 19 11 19 22 42 30 31 40 31 29 33 36 34 34 32 33 28 25 28 23
29 30 32 37 32 31 24 23 19 11 14 15 14 14 13 9 15 17 18 18 18 16 12 14 23 13 19 15 24 29 23 30 24 34 37 27 33 35 32 32 32 32 29 20 23
31 32 28 38 35 34 25 16 18 8 11 11 11 12 11 15 15 17 18 14 13 10 9 14 13 12 26 24 11 27 22 26 16 31 16 29 23 31 31 31 32 32 34 30 23
30 30 35 31 39 33 18 14 14 9 9 8 11 9 11 13 15 10 7 6 6 5 8 6 7 11 17 5 16 26 25 15 7 20 37 22 11 25 28 32 33 32 30 26 26
30 32 33 33 40 37 14 14 11 8 7 8 9 7 8 13 10 8 3 3 6 4 5 5 4 15 20 3 17 17 28 24 13 12 20 17 12 27 34 31 34 31 29 24 25
31 40 33 36 40 36 13 14 9 3 6 6 7 6 9 12 6 4 3 3 5 3 2 3 2 8 15 2 7 12 18 22 8 16 14 3 8 19 35 31 35 31 30 27 24
36 26 35 36 39 25 13 11 6 2 4 3 5 6 10 8 5 4 6 7 5 3 6 5 5 13 15 11 9 8 10 10 22 8 4 6 4 2 18 33 35 36 32 28 27
39 33 34 35 38 17 11 8 6 5 3 2 3 6 7 5 6 3 2 3 3 6 5 2 12 9 11 7 9 12 13 13 12 12 5 3 2 3 9 18 41 34 29 23 23
36 39 34 36 37 13 11 10 8 4 3 3 1 4 2 7 8 6 8 9 11 9 5 7 10 8 7 7 23 18 22 15 12 12 2 6 8 9 5 5 20 22 19 20 21
29 28 38 33 25 10 14 14 7 5 5 6 5 4 10 10 8 10 8 6 4 7 8 10 10 7 5 20 20 18 20 4 3 1 2 9 5 6 7 8 11 18 21 22 18
20 26 32 35 20 17 16 18 7 7 9 10 9 9 8 7 6 7 9 9 6 11 10 6 4 8 7 13 11 14 5 4 4 2 3 11 3 5 11 14 14 12 11 15 17
20 26 25 29 16 19 22 13 5 9 12 14 11 8 8 1 1 9 13 11 15 6 3 6 6 10 13 8 11 8 7 7 10 9 5 2 7 9 9 9 9 8 9 9 9
24 23 26 20 21 24 25 8 7 13 17 15 7 6 6 6 2 2 5 10 8 11 16 19 15 16 14 9 5 10 6 5 4 3 4 3 4 5 7 7 6 5 3 2 3
21 28 22 22 24 26 22 10 14 16 17 15 7 8 7 4 4 4 6 9 7 8 13 11 8 16 17 7 13 13 4 4 5 5 3 3 2 5 8 8 5 4 5 4 3
24 22 24 25 29 28 16 12 17 21 18 10 9 11 7 5 3 5 6 7 12 12 8 8 15 13 16 17 16 10 5 4 3 1 6 5 2 7 12 10 7 6 7 6 6
26 21 27 31 21 25 19 14 18 24 18 11 11 9 10 7 4 10 13 14 11 10 6 9 12 9 5 6 12 9 8 5 10 8 5 4 3 13 16 12 10 7 4 3 5
22 22 27 30 16 22 21 18 21 20 13 14 12 8 8 4 5 11 16 9 7 10 8 5 12 3 7 6 10 10 12 9 6 4 9 5 11 18 17 14 11 8 6 7 10
20 16 24 27 21 23 21 21 22 21 16 15 13 11 8 4 5 10 15 13 8 7 6 9 9 8 9 6 5 7 11 12 11 8 6 9 8 16 15 14 13 11 11 13 15
10 8 17 4 24 26 21 19 24 22 21 18 13 10 5 3 2 11 8 12 8 7 5 5 9 7 6 4 3 3 6 12 11 10 9 7 10 11 16 18 17 15 16 20 22
9 7 13 11 28 27 21 22 18 19 20 16 11 9 6 6 2 8 9 9 5 8 5 4 10 8 4 3 1 3 7 10 11 11 12 14 14 13 15 18 20 22 24 26 26

GFSSW_700_spd_075.txt.gz
Wind_Speed
29 26 24 27 26 27 33 32 35 36 33 31 29 25 24 20 19 18 17 17 16 19 22 21 22 23 25 27 29 30 29 35 43 37 48 24 30 37 27 25 32 30 38 38 31
27 29 27 26 25 27 28 32 34 34 31 27 24 22 23 22 20 19 19 19 17 21 23 23 22 24 25 26 29 32 38 44 42 41 38 45 33 30 37 27 24 30 31 24 35
26 27 30 29 30 28 30 32 34 34 28 26 19 18 20 23 21 23 18 14 14 17 21 21 21 22 25 26 29 34 44 44 41 39 34 32 32 38 43 36 28 24 25 22 27
29 28 30 28 29 32 36 34 37 34 27 24 17 16 20 22 15 11 14 17 17 20 21 22 22 23 25 26 29 35 43 43 43 37 34 42 28 37 39 40 29 24 26 27 27
33 30 29 28 28 33 28 30 35 31 27 22 17 16 19 21 17 20 18 19 19 20 21 22 23 23 26 25 23 37 42 42 43 29 35 28 30 32 37 41 23 27 34 35 26
37 32 30 30 31 33 30 28 34 27 26 17 19 15 17 18 18 17 17 16 16 17 18 18 17 18 24 22 29 29 41 43 29 38 35 32 23 27 35 37 28 28 32 32 27
37 35 30 28 26 31 35 32 25 25 23 14 18 14 14 16 16 16 15 15 15 17 19 16 16 18 20 24 24 26 32 37 33 36 31 31 40 40 29 38 30 29 29 28 30
36 34 29 28 25 31 31 36 39 23 19 13 15 12 13 15 14 13 16 16 18 18 19 16 14 17 21 26 21 28 24 31 38 33 34 28 36 36 31 40 33 33 30 30 35
34 32 29 29 28 27 33 35 30 19 17 13 13 10 11 9 14 18 19 19 18 18 16 13 15 19 20 21 14 23 24 37 21 32 26 30 25 29 28 39 34 31 34 29 39
29 31 29 27 28 32 28 34 25 17 15 9 11 7 8 12 15 17 17 17 13 11 8 11 16 18 16 22 7 18 19 26 20 29 38 16 23 21 31 34 34 34 30 27 28
26 25 32 25 25 27 30 32 22 15 14 7 10 7 9 9 13 10 8 6 3 5 5 9 12 15 13 17 24 4 15 24 17 17 25 17 15 26 32 36 36 32 30 28 20
32 28 26 29 30 26 31 31 10 13 8 8 6 3 6 12 9 7 7 3 2 4 5 6 9 7 11 15 12 20 18 21 9 13 16 24 22 15 34 33 34 34 25 28 24
33 30 28 32 28 31 30 29 9 11 8 8 6 3 7 9 5 6 5 6 1 7 4 4 3 2 7 4 21 28 26 24 10 18 11 8 22 13 30 32 31 30 26 27 27
30 29 28 30 33 27 27 23 11 10 8 4 6 2 6 6 4 6 6 5 4 2 4 2 4 6 7 8 19 19 27 18 10 9 6 6 3 9 19 22 29 28 29 28 23
31 23 26 31 36 25 28 12 10 8 1 8 6 1 4 4 3 3 4 3 2 2 1 2 9 5 5 7 8 15 14 12 13 6 4 3 4 12 4 27 35 25 27 27 24
34 37 28 26 37 28 28 12 13 6 5 10 6 4 7 9 9 6 5 7 6 5 7 6 8 4 4 4 7 17 15 13 11 12 3 3 5 12 8 4 32 27 23 28 26
26 27 34 27 33 25 19 21 11 5 11 12 10 11 10 7 7 9 7 5 2 4 7 9 6 3 10 22 20 17 15 4 3 2 3 10 12 9 8 0 14 34 20 28 25
15 19 30 32 26 22 22 27 7 8 12 14 15 15 9 6 6 5 7 6 3 9 5 4 4 5 15 10 18 14 5 3 4 3 4 8 6 7 16 14 10 15 26 28 17
20 20 26 22 21 26 27 24 3 11 16 19 18 11 8 1 3 4 6 6 11 3 3 5 5 12 14 20 7 7 10 11 11 11 6 5 12 13 14 19 19 19 13 13 15
21 28 24 17 26 26 29 12 6 12 19 18 9 9 7 4 2 4 4 9 6 9 9 11 9 11 13 8 7 7 7 5 4 3 4 2 5 14 15 17 17 18 16 14 11
11 27 20 28 29 29 26 13 9 20 20 12 11 12 9 7 3 3 3 5 8 15 12 7 4 10 9 4 10 8 4 5 7 4 3 3 4 15 17 14 11 11 11 12 10
12 22 27 30 30 28 22 11 14 22 16 13 9 13 12 6 4 4 4 4 9 9 5 8 13 7 8 11 12 7 6 6 3 3 6 4 3 16 18 15 12 13 14 12 10
14 24 25 26 17 25 20 12 18 21 15 14 11 9 10 7 4 6 10 10 7 6 7 12 11 7 5 5 7 5 5 8 10 7 4 3 5 20 19 16 15 12 12 10 8
20 21 24 25 12 21 16 16 18 18 10 12 14 9 10 5 5 10 13 7 8 7 9 9 14 3 6 4 6 5 5 4 3 3 4 4 13 21 20 17 15 11 7 6 5
10 18 23 29 14 21 17 17 23 21 12 13 12 9 7 3 6 9 9 9 7 6 6 10 7 10 11 8 7 7 6 6 3 1 2 2 2 10 17 15 11 9 8 8 10
8 12 17 17 20 16 14 16 23 18 19 14 13 10 5 5 4 9 8 7 4 4 6 5 9 10 9 7 6 6 10 12 9 7 8 4 7 10 13 13 13 13 13 14 16
3 3 13 4 24 16 12 19 19 14 17 13 11 8 6 5 6 7 7 7 2 2 2 2 8 5 4 5 4 3 4 7 10 7 7 7 7 8 9 12 14 16 17 20 22

GFSSW_700_spd_078.txt.gz
Wind_Speed
30 26 26 26 26 25 24 25 26 27 26 32 31 32 23 17 15 16 18 18 17 19 20 21 23 24 24 24 25 25 28 33 36 35 33 28 30 32 32 30 27 26 34 25 35
33 31 29 26 29 27 25 24 28 29 25 31 29 28 25 18 15 16 18 20 20 21 22 22 22 24 25 23 25 29 30 33 29 31 28 29 28 26 26 33 27 22 25 33 30
35 34 33 31 31 30 27 28 28 28 30 28 29 24 22 19 15 18 17 14 13 16 19 20 23 22 24 25 24 30 38 26 26 26 22 29 27 32 22 28 29 21 21 28 28
37 37 35 32 31 30 28 26 30 25 29 28 31 23 19 18 10 10 16 19 18 19 20 20 20 21 23 24 23 29 31 31 34 27 21 29 26 26 31 35 36 21 23 27 25
35 37 37 33 31 31 28 28 27 30 28 27 26 21 19 18 13 17 17 17 17 18 19 19 18 20 23 16 21 25 28 28 29 30 27 26 30 32 30 35 31 31 26 25 27
34 33 35 33 28 31 26 27 27 30 27 28 25 21 18 16 13 14 15 16 16 16 16 15 16 17 20 23 21 23 24 27 28 27 27 29 31 26 33 27 31 37 31 29 29
35 31 31 28 31 26 25 27 28 29 27 24 23 19 16 14 12 13 15 17 16 16 17 14 14 16 16 19 20 24 29 27 28 30 28 30 30 36 29 25 30 31 35 31 28
29 30 28 26 26 24 21 30 26 27 32 16 20 16 14 14 12 12 13 17 18 18 19 16 16 16 19 19 22 24 23 26 22 29 29 28 36 29 26 25 33 27 38 33 28
25 25 23 23 23 24 25 26 22 24 20 16 18 14 13 9 11 14 17 19 19 18 18 15 15 16 17 19 22 21 19 28 18 24 25 34 25 20 27 33 27 32 39 41 28
23 22 21 16 23 17 20 26 27 23 14 14 15 10 12 11 10 13 12 12 13 11 12 11 13 16 18 17 16 10 19 15 23 20 32 30 26 12 22 25 29 34 40 39 23
21 20 21 18 18 25 21 17 29 21 12 12 13 11 11 9 11 8 8 5 5 4 4 7 13 20 16 16 22 26 13 17 20 18 29 26 24 18 19 23 28 34 32 28 27
18 15 19 18 18 23 23 24 24 23 11 13 10 12 8 10 7 5 3 3 1 3 6 8 14 10 8 13 12 11 18 13 14 17 24 29 18 27 12 19 27 32 33 26 28
22 16 18 17 14 21 23 25 21 4 8 9 11 10 9 7 6 5 3 4 2 3 6 9 7 4 8 12 10 14 19 15 13 18 17 12 12 24 18 18 26 32 23 23 23
21 16 15 15 15 20 22 15 14 6 7 7 10 9 8 4 1 4 1 0 1 3 4 4 1 3 6 2 12 13 19 23 14 10 6 18 5 1 20 27 20 27 30 22 13
23 19 13 14 20 23 17 14 16 12 2 7 13 8 6 5 3 2 4 2 2 3 4 3 2 1 4 11 15 6 11 4 11 4 7 10 6 9 12 21 26 29 32 24 24
25 20 20 22 21 16 19 20 18 8 4 11 12 10 9 7 5 4 3 3 1 4 4 2 2 2 1 4 8 17 12 7 7 4 3 6 2 6 5 7 18 24 28 26 26
26 30 25 20 23 23 22 24 14 5 8 13 14 14 10 8 8 6 6 1 3 1 5 4 2 3 4 8 12 19 9 4 3 1 4 5 10 8 6 8 23 21 26 26 24
19 37 28 19 23 27 29 29 5 12 16 16 19 16 6 7 5 5 5 1 3 5 3 3 1 6 12 18 12 10 1 2 4 3 4 9 8 6 12 10 12 29 25 22 22
7 25 28 26 33 31 34 15 8 11 18 23 22 10 9 6 6 4 3 2 4 2 2 2 6 17 19 15 7 3 6 8 12 9 7 6 8 13 16 14 15 22 22 19 16
15 25 25 24 33 35 36 12 7 12 20 26 8 10 7 10 5 4 2 4 3 5 4 5 4 12 12 7 9 8 8 5 4 3 5 4 7 10 15 17 19 19 16 13 12
11 33 25 24 29 37 22 9 7 15 24 10 9 14 13 11 9 5 2 7 9 8 6 4 2 5 5 5 6 7 5 6 7 4 3 5 5 11 15 17 18 20 19 15 12
23 23 25 34 34 29 22 9 13 23 14 11 9 17 12 11 10 6 4 5 9 4 2 4 6 4 6 7 8 10 9 6 3 2 6 7 6 20 20 18 15 15 15 16 14
21 34 21 28 14 19 19 8 20 17 12 12 12 12 13 12 8 10 7 8 6 2 3 5 7 4 4 5 6 9 12 13 11 8 5 1 7 22 20 19 18 17 15 13 12
35 24 25 20 13 17 15 12 22 12 14 15 16 14 12 11 10 13 10 6 5 6 4 6 5 4 5 4 2 3 5 7 10 7 7 6 16 26 22 19 17 16 15 12 10
20 27 26 12 15 17 11 15 20 12 15 16 13 13 9 9 13 15 9 9 8 5 4 7 7 10 11 8 6 4 2 3 7 7 5 7 9 20 21 19 18 15 12 11 10
11 23 9 17 22 13 11 13 19 11 16 11 17 12 9 13 9 14 10 7 5 7 8 5 6 8 7 6 6 5 3 2 1 3 5 7 7 16 20 19 17 15 14 14 14
14 18 13 18 20 14 10 16 16 11 12 16 11 10 11 11 10 9 6 5 5 5 5 5 7 3 2 3 3 4 4 2 1 1 2 3 4 6 12 14 15 16 16 17 18

GFSSW_700_spd_081.txt.gz
Wind_Speed
32 32 32 31 28 26 27 27 26 25 24 27 24 26 26 25 22 20 18 19 16 15 16 18 20 21 21 23 24 24 27 34 36 34 31 24 27 27 29 30 31 31 34 26 33
34 34 35 33 31 29 30 29 29 27 23 29 25 23 28 24 20 19 20 19 17 17 18 20 20 22 23 24 26 28 27 34 28 26 30 27 29 27 28 30 31 29 29 24 37
34 35 36 36 32 32 29 31 30 27 23 26 27 25 27 23 19 21 19 11 10 11 15 18 21 22 21 20 25 24 33 26 24 27 27 27 30 27 29 32 28 29 29 25 40
33 33 35 36 33 32 29 30 30 25 25 25 26 22 27 21 12 15 20 18 11 16 17 18 19 19 17 17 21 27 27 27 28 28 26 26 24 29 29 32 27 28 29 25 30
32 31 32 33 32 32 29 29 28 27 24 27 26 29 25 20 17 22 19 17 16 16 17 17 18 15 17 16 19 26 26 28 27 28 30 28 28 27 28 25 29 24 34 27 30
31 30 28 28 25 28 29 25 25 23 23 25 25 23 20 19 18 17 17 17 17 16 17 16 15 15 19 19 22 22 23 25 27 29 26 28 31 26 30 28 25 27 28 27 23
29 28 27 23 22 23 26 26 20 24 17 17 25 17 19 17 16 17 16 17 17 16 17 16 16 16 11 16 16 20 26 28 31 26 29 24 29 34 31 22 22 32 28 32 27
23 25 23 21 19 21 27 22 20 26 32 20 19 17 16 16 16 13 15 17 18 19 19 19 18 18 19 21 20 21 24 28 19 25 28 27 30 33 26 25 27 22 26 29 38
17 21 21 19 17 18 23 22 26 19 19 16 18 15 15 14 11 13 15 19 21 19 18 19 16 17 18 17 19 16 23 22 23 21 23 29 31 25 18 26 25 24 22 21 31
20 18 18 15 13 17 25 21 19 23 20 18 14 11 11 13 13 12 16 15 14 12 12 15 15 18 16 17 21 16 17 25 22 18 24 27 27 8 19 20 26 22 21 25 34
22 16 16 12 9 19 25 20 18 21 18 16 8 10 13 11 11 12 11 10 7 8 10 10 15 20 16 19 22 28 29 20 18 19 22 30 24 24 15 21 18 21 22 28 36
20 15 15 14 19 18 19 21 20 14 10 13 12 12 11 9 11 10 9 6 6 8 9 12 20 15 19 21 22 23 21 24 20 20 19 24 21 26 28 16 15 20 21 25 24
21 16 16 17 15 23 21 15 17 11 8 10 12 12 10 10 9 10 7 6 6 10 13 16 13 12 13 15 19 23 24 20 12 23 20 21 15 21 21 22 14 18 23 18 24
23 15 16 17 12 20 19 14 17 15 5 7 14 11 11 8 6 8 7 7 6 7 12 14 10 9 10 15 8 16 14 9 19 18 6 21 7 9 15 18 20 20 18 22 25
24 22 18 16 19 22 19 15 14 12 5 8 13 10 9 8 5 3 4 5 6 8 9 7 4 6 9 3 0 14 16 9 6 8 12 13 4 3 11 11 15 11 19 20 20
21 21 20 21 19 15 19 22 19 8 5 10 15 11 9 9 5 5 5 5 4 6 4 3 3 6 7 4 3 8 3 5 0 4 5 6 1 7 5 13 22 13 24 14 15
24 19 23 25 19 22 19 19 11 6 9 13 15 12 13 10 3 0 3 2 2 5 3 2 5 4 3 3 12 13 11 2 5 1 4 5 8 4 2 14 21 19 23 19 14
22 30 28 26 20 22 19 29 7 8 13 15 16 15 7 9 5 6 2 1 2 2 5 6 0 3 4 5 5 3 6 6 2 3 4 7 6 6 9 9 16 18 23 21 21
7 31 33 29 22 21 28 10 2 12 12 17 18 12 6 7 5 5 5 1 2 4 4 5 5 11 10 11 1 2 3 1 6 12 9 4 4 11 10 14 16 17 16 20 23
19 28 29 27 24 23 33 1 8 14 15 20 9 7 8 8 7 4 2 4 1 5 6 9 4 9 8 8 10 7 5 3 3 2 5 6 13 9 11 16 17 16 13 14 17
27 32 22 26 28 28 9 7 13 16 18 8 5 7 7 7 5 4 5 5 6 5 7 9 7 4 6 7 8 7 8 4 3 5 2 4 5 5 8 16 21 20 18 17 16
33 32 25 24 36 29 12 10 17 20 18 4 8 8 6 5 7 5 7 6 6 4 5 5 5 5 3 6 9 14 13 8 5 5 7 13 5 10 9 14 17 18 19 18 16
28 30 22 31 19 19 14 17 19 16 10 9 6 6 8 7 5 8 8 9 5 5 4 4 4 1 2 6 12 9 15 14 8 7 7 3 9 13 12 13 16 17 17 16 14
30 24 25 6 21 13 15 15 17 9 8 9 11 11 8 7 9 9 10 7 9 9 8 8 8 6 8 4 5 7 13 16 10 10 11 9 15 18 16 15 15 15 14 11 8
25 28 12 20 16 14 13 14 11 9 12 15 8 6 5 7 12 10 10 9 10 9 8 8 9 13 10 7 6 7 10 12 15 12 12 9 10 16 15 14 13 10 8 7 7
24 20 20 21 18 15 15 14 10 15 10 9 10 8 10 9 7 9 8 8 7 8 6 6 5 7 9 6 6 8 7 7 9 10 9 8 9 9 14 15 14 13 11 11 12
15 16 20 21 14 17 12 13 12 10 12 13 11 11 11 12 10 8 7 7 7 7 6 4 3 3 2 3 4 3 7 5 4 5 6 3 2 6 10 12 13 14 15 16 17

GFSSW_700_spd_084.txt.gz
Wind_Speed
37 36 35 35 34 32 27 25 30 26 22 22 23 22 21 21 22 21 19 18 18 16 16 14 13 14 15 17 19 21 26 30 29 29 29 23 25 25 22 29 29 31 29 26 27
33 35 36 36 37 35 33 28 28 32 27 19 19 18 21 22 22 23 18 18 18 16 16 18 14 16 17 17 21 24 31 33 27 21 24 24 27 26 26 26 31 32 32 30 31
32 32 34 35 35 36 35 32 27 29 30 21 20 16 19 20 24 25 15 12 15 16 16 15 14 15 18 17 19 23 33 29 25 21 22 30 28 26 30 34 27 27 29 35 37
32 31 31 32 32 34 34 33 25 30 29 26 21 18 18 20 13 14 18 20 17 15 15 16 16 16 16 14 17 27 28 27 24 22 28 28 28 26 33 31 26 28 26 26 30
29 31 30 28 30 31 30 32 30 27 28 24 19 18 19 17 15 18 19 18 18 15 15 14 15 14 16 15 15 24 25 25 26 25 29 32 33 29 38 34 25 26 26 28 33
27 26 27 26 26 26 28 28 27 26 22 24 19 16 15 15 16 17 16 16 17 13 15 15 15 15 21 20 20 24 26 28 26 26 28 29 32 34 37 37 23 22 25 34 27
25 22 22 25 24 23 24 23 25 24 18 24 11 14 16 16 18 15 15 15 14 15 15 16 17 18 17 17 17 16 24 27 28 32 37 22 36 36 33 33 31 28 29 26 37
26 23 21 22 22 21 21 21 25 22 23 28 24 19 18 15 15 14 13 12 15 16 16 19 20 20 19 21 23 23 24 31 28 25 23 28 39 34 34 32 34 27 25 21 33
22 23 20 19 18 16 17 19 27 21 25 14 16 21 19 12 11 9 11 12 15 15 15 15 16 17 17 16 21 19 27 29 31 19 19 21 35 30 27 24 29 23 26 22 23
23 20 18 16 12 13 11 23 22 26 19 18 12 11 14 10 8 9 9 12 12 12 12 9 12 17 16 17 21 17 21 23 23 23 22 27 33 25 11 21 28 22 21 22 22
24 21 16 15 12 12 22 19 24 25 24 18 9 14 9 6 7 7 8 7 9 8 8 6 12 21 18 20 22 25 26 33 32 23 24 27 24 22 13 20 19 25 25 24 21
21 19 16 14 13 19 20 23 19 9 9 17 14 18 11 7 6 6 6 6 7 4 5 9 19 18 16 23 23 26 30 36 31 16 16 15 22 18 19 15 15 20 26 21 22
18 14 16 14 12 28 15 17 16 15 7 11 14 16 12 8 4 7 4 3 5 5 7 17 18 21 19 20 25 27 29 30 31 25 13 8 16 18 20 21 15 16 17 21 20
17 12 12 13 13 17 24 5 12 4 5 5 14 14 13 8 2 6 3 4 2 3 9 15 12 15 14 17 20 20 19 19 17 12 7 19 7 14 17 16 22 18 15 20 18
18 15 11 9 12 13 19 14 16 12 3 7 14 11 12 9 6 3 5 3 2 7 10 10 9 8 13 14 8 9 4 3 8 15 9 22 5 5 11 16 16 12 15 14 11
17 10 12 11 12 13 18 14 11 7 3 9 12 15 15 11 6 3 3 1 5 6 8 9 5 11 11 8 6 11 4 6 5 11 4 9 4 2 2 7 13 12 14 14 19
22 13 13 10 10 14 13 14 9 5 9 10 15 16 10 13 7 4 3 3 3 6 5 6 8 9 8 6 4 4 9 4 5 2 3 9 2 3 2 10 19 12 13 14 10
12 22 17 12 14 12 13 12 4 4 6 11 16 19 14 10 5 4 3 4 3 3 10 5 4 3 1 4 8 2 7 4 3 3 3 8 3 5 3 15 15 15 16 14 10
19 30 21 19 16 11 16 16 3 7 17 15 19 12 11 6 6 4 3 3 3 6 4 5 3 6 8 10 9 7 6 8 3 10 3 5 4 10 10 14 18 18 17 16 18
28 33 23 18 13 14 17 4 11 19 18 13 6 7 8 7 6 4 1 2 1 6 8 7 2 9 8 9 9 10 16 7 5 2 3 3 9 9 13 17 16 19 17 15 14
30 28 20 18 11 13 5 4 24 17 14 7 10 11 10 8 5 1 1 2 2 6 12 11 6 6 11 10 13 17 17 6 5 4 1 3 5 9 12 16 18 15 13 11 10
25 30 17 15 16 14 7 16 16 14 12 13 14 12 8 6 6 4 2 3 4 5 4 5 7 4 9 15 16 20 19 14 5 6 10 10 5 2 7 13 17 20 20 20 17
29 34 25 19 8 13 17 15 14 8 7 11 9 9 9 5 6 8 5 6 4 5 4 5 5 3 2 6 14 14 21 10 12 7 21 3 8 5 7 11 14 16 17 17 15
32 25 21 7 9 17 17 11 14 11 10 13 13 12 10 8 5 6 7 8 8 9 8 10 11 9 6 4 8 10 17 18 15 16 17 9 23 11 10 9 10 11 11 11 10
30 26 17 16 19 16 14 11 13 16 16 14 9 7 8 8 10 8 8 10 11 8 10 10 12 13 10 7 8 10 14 16 23 13 13 14 15 11 8 8 8 8 8 6 5
13 28 27 20 17 20 13 15 17 14 15 13 13 10 13 12 8 8 3 6 6 9 8 7 6 8 10 8 8 11 8 9 13 14 15 13 10 5 7 8 8 8 8 7 7
25 29 25 23 20 16 13 15 11 14 13 13 9 9 9 15 11 9 9 10 9 8 8 6 5 4 2 4 3 4 9 8 8 8 9 4 5 7 9 10 10 12 11 12 13

GFSSW_700_spd_087.txt.gz
Wind_Speed
31 32 34 32 33 33 35 33 26 26 28 23 19 15 17 18 17 16 14 15 14 15 14 11 11 13 12 13 16 19 28 26 31 31 33 24 29 28 25 28 29 31 26 26 27
32 31 31 33 33 32 34 35 33 28 28 28 22 15 16 17 18 14 16 15 12 12 14 14 14 14 14 14 18 23 30 30 28 26 26 24 29 31 30 31 29 31 23 28 31
31 30 30 31 31 32 32 35 32 30 29 24 23 20 19 18 20 16 10 6 10 14 15 15 15 16 13 15 18 23 32 26 28 25 21 26 31 32 36 38 27 26 24 15 33
28 30 28 30 30 30 32 31 31 32 26 26 27 19 18 17 13 9 10 13 14 14 14 14 14 16 16 17 15 23 23 22 23 23 28 33 32 38 38 39 36 30 26 24 23
25 24 26 29 29 30 30 29 28 32 28 24 25 19 16 17 19 14 14 14 14 13 14 14 14 15 17 15 17 21 22 24 24 24 27 30 38 38 46 39 40 35 26 22 26
22 23 24 24 27 28 28 27 27 29 26 31 22 21 20 18 17 14 15 13 12 12 12 13 14 17 20 17 18 22 25 30 31 31 32 33 38 39 45 43 40 40 31 29 23
20 21 22 23 24 26 24 24 21 28 21 24 19 23 16 16 15 12 15 12 13 10 12 14 16 18 20 19 18 23 27 26 25 26 29 28 47 45 36 40 42 44 38 36 32
20 21 21 21 19 18 19 19 19 21 24 22 19 25 13 12 13 13 13 11 10 11 12 14 17 18 17 19 19 22 23 27 23 18 18 14 44 32 32 30 41 44 44 35 34
21 20 19 18 14 9 10 14 20 24 22 24 25 27 20 18 15 13 11 9 9 11 13 13 16 16 17 15 16 14 16 21 23 12 15 18 39 24 13 25 32 33 41 36 29
20 17 16 17 11 5 8 18 23 27 28 19 24 13 14 12 11 10 8 7 8 9 10 9 10 11 11 10 12 9 15 22 27 22 27 34 34 31 12 11 23 19 27 31 35
19 15 14 12 8 12 15 19 22 19 25 22 14 15 7 12 11 8 6 5 6 6 5 4 9 11 11 13 16 21 23 29 25 20 31 32 28 18 5 18 20 20 20 25 25
15 12 11 11 6 17 18 8 17 9 13 18 19 13 12 11 10 7 6 5 2 3 2 5 10 8 11 11 17 22 27 34 33 26 17 16 23 11 10 12 8 13 19 25 25
15 12 8 10 9 14 25 10 7 8 4 20 18 19 13 9 7 6 6 4 1 1 4 10 8 12 17 20 21 23 30 35 36 30 27 18 15 9 10 13 14 12 15 26 24
10 8 6 8 8 8 19 18 8 10 6 14 16 15 12 11 5 5 5 4 2 2 4 7 5 10 12 19 19 27 16 14 15 15 7 14 3 10 14 16 14 15 11 13 17
7 6 7 5 5 0 8 17 8 11 3 8 13 12 15 9 7 6 7 3 2 4 5 3 6 10 11 15 10 17 4 6 2 9 6 15 1 3 13 13 16 13 19 15 16
7 4 7 6 4 6 10 9 7 4 4 7 10 13 19 11 8 6 7 4 0 2 3 4 6 8 9 9 11 8 4 7 6 6 3 9 15 2 5 11 15 15 16 11 14
10 10 9 7 6 12 15 9 6 6 8 7 13 17 13 12 7 8 9 5 2 3 7 8 6 9 9 8 6 12 12 3 4 2 0 9 2 1 5 11 13 12 10 10 16
11 18 16 13 10 10 12 13 8 8 7 12 20 17 11 11 6 5 7 7 7 4 8 7 2 7 4 7 8 8 12 3 1 2 2 5 3 5 4 10 11 13 9 12 10
23 20 18 14 15 13 14 10 4 15 17 23 19 14 12 7 6 7 6 6 3 7 3 5 4 6 5 6 7 6 12 6 2 6 3 1 1 7 4 9 13 10 13 12 11
26 23 19 16 13 11 10 6 16 18 24 14 7 7 9 9 6 5 3 2 3 7 8 4 3 11 14 16 15 10 14 4 6 1 3 3 6 8 6 12 14 15 14 14 13
22 29 19 16 14 11 10 18 15 21 16 11 8 14 13 7 8 6 4 5 9 9 10 8 7 6 11 11 21 18 17 3 3 3 3 2 4 12 8 12 12 17 17 12 8
19 28 23 19 16 10 20 10 21 15 12 13 18 16 9 9 9 5 5 4 5 7 6 6 3 4 7 11 13 25 18 13 5 7 10 8 5 13 10 7 11 13 13 11 12
22 26 23 19 24 20 17 17 15 13 13 14 12 13 12 9 8 8 6 5 4 3 2 2 2 3 3 1 14 21 17 11 9 3 9 5 4 1 7 14 15 14 15 16 17
22 20 16 25 25 24 18 13 16 20 20 18 17 16 11 12 9 7 9 8 8 6 6 6 8 8 5 5 8 10 17 13 12 13 10 11 17 12 12 12 14 15 14 12 11
19 19 18 23 23 20 12 13 20 21 17 14 15 15 10 9 15 13 9 10 9 7 5 7 8 10 8 6 7 10 14 18 20 12 7 19 12 11 10 11 10 9 9 7 5
14 23 23 24 22 17 18 17 16 18 16 15 15 12 10 11 12 10 8 6 5 6 5 4 2 7 8 7 9 11 9 12 17 17 17 11 8 7 8 8 7 7 5 4 5
20 24 22 18 16 15 15 12 13 13 12 13 13 9 8 12 11 12 9 6 4 4 4 2 1 2 2 2 1 3 9 9 11 10 9 2 4 4 4 6 7 8 9 9 10

GFSSW_700_spd_090.txt.gz
Wind_Speed
33 34 33 34 34 34 34 34 33 31 25 27 21 23 21 19 16 14 11 11 13 12 11 11 11 10 10 13 16 18 23 29 31 28 27 23 28 28 32 34 29 24 18 15 18
31 31 32 31 33 34 33 32 35 37 30 22 22 25 25 20 16 13 11 12 13 13 12 11 12 12 13 16 19 21 27 26 28 26 27 26 27 30 37 37 37 30 23 20 21
29 27 29 32 32 33 32 32 34 35 33 25 22 25 24 22 18 16 13 12 11 11 12 13 13 14 13 18 19 23 31 26 28 27 28 31 31 30 34 42 39 39 31 22 19
26 26 28 30 29 31 32 31 30 32 33 27 31 27 25 19 11 9 9 9 11 11 11 11 13 14 15 18 17 24 26 26 28 27 31 34 36 36 36 41 43 42 36 29 21
20 19 23 26 30 30 29 30 29 29 33 24 28 25 25 19 20 15 15 14 13 11 11 11 12 15 17 15 17 22 25 26 29 30 30 31 36 38 42 38 40 46 40 33 23
19 20 23 20 22 26 27 29 27 27 30 30 27 29 24 18 20 16 14 14 13 11 12 12 14 16 18 17 18 22 25 26 29 27 28 32 34 32 41 36 41 42 45 41 30
21 22 20 18 20 22 24 27 26 24 25 27 30 19 20 21 18 17 14 13 12 12 12 14 14 15 17 16 20 23 28 28 25 25 28 23 41 39 34 33 37 44 48 48 39
20 20 20 17 18 17 19 21 21 19 25 27 30 28 23 23 19 15 13 12 11 11 11 13 14 15 17 19 20 22 26 29 19 15 16 20 40 23 10 17 32 40 48 50 44
18 18 16 13 14 13 7 11 14 22 31 30 25 28 20 21 15 12 12 11 11 11 11 14 15 14 17 18 18 16 17 20 20 10 13 13 30 20 26 26 21 30 40 51 49
15 11 13 10 11 6 10 14 20 28 34 30 22 17 15 20 12 13 13 10 10 10 11 12 11 11 9 7 7 10 16 23 24 9 22 30 33 27 20 17 14 17 26 44 45
12 10 9 9 9 11 13 31 28 29 35 15 19 22 20 17 15 15 12 11 11 9 6 7 8 4 3 7 10 13 20 27 24 23 28 28 28 17 11 16 16 13 14 23 30
10 7 7 8 10 12 18 8 27 21 18 22 16 17 12 16 16 14 12 10 7 4 5 6 8 1 4 6 12 17 23 29 31 18 16 22 30 20 8 14 4 6 11 10 20
8 6 6 7 8 10 13 8 14 14 17 20 19 19 17 14 11 11 10 7 6 6 8 10 3 7 10 12 15 19 23 25 27 28 19 18 23 7 8 10 10 7 6 10 15
5 2 3 5 5 5 5 9 14 22 13 15 17 19 15 13 9 8 9 6 5 5 7 9 1 5 8 10 12 21 12 16 15 9 7 9 5 2 9 9 5 5 4 5 15
5 2 6 4 5 2 5 9 11 10 5 11 17 16 15 11 8 9 8 7 6 3 6 4 5 7 11 11 12 13 11 9 10 7 9 8 8 4 9 11 11 11 13 13 15
9 5 11 9 8 10 15 8 11 6 5 7 12 17 18 9 9 8 9 6 4 4 5 2 6 7 8 7 11 10 11 13 8 6 4 6 11 4 4 11 11 14 12 14 17
12 11 14 11 13 17 12 10 6 6 9 14 16 20 14 10 9 8 7 3 1 2 5 4 3 5 5 5 6 9 15 3 2 2 2 5 4 6 8 9 9 8 8 12 12
19 17 17 15 17 16 18 8 10 11 12 16 21 18 15 11 8 8 5 3 2 3 4 5 3 7 5 8 9 11 11 3 3 1 1 3 2 4 11 4 9 9 9 10 10
22 22 26 22 20 19 11 11 8 13 21 26 20 15 15 5 7 5 3 2 2 3 1 3 4 7 6 9 11 8 9 7 1 3 2 2 6 5 4 4 9 11 9 10 6
27 22 21 22 19 14 12 19 17 27 25 13 8 8 8 9 6 4 1 3 5 8 6 5 2 9 13 14 13 9 11 4 4 1 2 4 4 10 5 3 7 8 6 5 10
20 26 21 19 18 27 26 21 25 25 14 9 8 10 13 9 8 4 3 8 6 7 9 7 5 4 5 6 12 12 8 5 4 1 1 2 4 15 6 4 5 8 12 10 13
18 24 20 13 22 23 31 24 19 19 20 17 15 12 9 9 7 4 5 5 5 6 5 6 4 3 5 10 10 18 14 3 1 2 6 5 5 12 9 10 9 10 8 10 8
20 21 23 26 26 25 25 21 20 17 16 16 8 11 8 10 6 6 6 6 4 4 3 3 3 5 4 2 8 18 17 8 1 2 4 4 4 12 16 16 18 18 19 21 21
18 21 24 23 22 21 21 19 20 18 16 15 14 13 12 11 9 8 8 9 8 6 5 4 6 6 3 4 9 11 17 13 4 6 7 10 15 13 12 13 15 16 16 16 14
21 17 16 18 18 17 19 17 17 16 15 17 15 14 15 14 13 11 11 9 7 5 5 4 3 5 5 5 6 8 12 15 13 10 8 16 12 11 11 9 9 10 9 9 7
15 22 20 18 18 16 17 15 12 12 12 13 14 10 7 10 11 8 8 6 4 4 3 2 0 2 2 3 4 9 4 9 14 17 15 12 10 10 8 6 5 4 3 0 1
12 18 15 17 16 15 13 10 9 9 12 11 11 7 8 10 10 9 7 5 4 5 3 2 2 2 2 3 4 2 5 6 8 7 6 4 3 5 6 5 4 5 6 7 8

GFSSW_700_spd_093.txt.gz
Wind_Speed
24 29 32 30 31 34 35 34 36 36 34 28 24 26 24 20 19 17 18 16 16 16 16 14 12 11 12 13 13 13 17 21 22 22 22 18 20 25 30 31 33 31 29 24 21
28 26 21 22 27 31 32 32 32 37 36 35 28 27 30 20 20 17 16 15 16 16 16 15 13 13 14 14 16 17 23 20 21 23 26 25 24 23 30 35 34 39 33 28 23
25 27 22 25 25 20 25 28 31 32 36 33 32 24 29 21 21 19 17 16 16 17 16 15 14 14 15 15 18 22 26 23 26 26 29 30 29 27 31 34 38 38 41 31 24
31 29 24 26 23 22 24 21 25 27 32 36 35 34 20 24 14 17 19 17 16 14 14 15 14 14 15 16 18 22 24 25 28 27 31 30 32 32 32 35 32 39 44 40 31
28 25 19 24 25 24 20 24 16 23 27 31 26 30 27 20 19 10 12 13 13 14 13 13 14 15 16 14 16 22 24 25 27 29 27 28 33 34 38 33 32 35 41 47 41
24 25 23 23 23 25 23 20 23 17 24 32 31 30 33 24 19 20 19 16 15 14 13 13 15 14 15 14 18 22 25 26 29 28 29 34 36 35 42 32 33 37 42 45 47
19 21 26 21 19 17 21 24 24 24 21 26 37 32 27 20 19 19 18 17 15 13 13 12 12 13 13 14 19 20 27 28 28 28 33 31 45 44 29 27 35 37 41 47 50
20 19 23 21 20 19 19 21 22 23 19 24 36 28 25 32 19 15 16 16 13 13 12 12 12 13 15 17 21 24 27 28 21 19 19 24 45 27 22 19 21 29 36 46 52
16 14 14 14 16 15 14 10 16 24 23 29 39 31 23 18 18 19 16 14 13 13 12 11 12 14 15 17 18 16 18 21 19 14 15 20 35 21 19 28 33 31 33 37 48
14 12 8 11 13 10 11 16 18 29 34 42 38 25 17 18 17 16 16 14 11 10 10 11 11 12 11 9 6 9 16 19 21 17 23 29 39 30 24 21 26 27 23 25 39
10 8 8 9 12 10 18 25 30 29 33 35 30 28 28 23 23 17 13 11 10 8 8 8 7 2 3 6 9 11 16 23 21 19 22 25 28 26 17 25 22 15 15 16 21
8 5 6 10 9 11 15 10 29 22 23 16 20 11 17 14 15 15 13 10 7 7 6 5 1 2 6 9 11 15 20 21 16 18 24 27 33 24 15 11 12 10 7 9 8
5 1 5 7 4 10 12 7 23 30 21 21 22 17 24 16 13 13 10 7 8 8 5 5 3 8 9 9 14 17 21 15 19 21 15 16 13 7 6 7 6 5 6 6 7
5 4 2 4 3 8 6 5 22 30 19 19 24 21 19 18 14 12 10 8 7 4 3 3 6 7 9 11 12 20 7 11 12 14 8 15 7 6 3 3 7 4 4 3 7
10 7 8 9 9 8 4 16 21 12 6 9 14 23 19 9 12 12 12 8 5 4 4 3 6 9 12 12 11 13 10 10 14 14 12 7 4 4 4 6 9 10 8 6 6
13 14 12 11 11 16 12 7 13 8 5 6 15 23 17 11 9 11 10 6 3 3 6 6 10 11 9 11 13 13 17 15 14 13 3 4 5 4 8 10 10 12 10 8 8
18 16 16 20 21 20 10 7 6 9 9 13 20 21 13 11 10 9 7 4 1 1 5 6 3 6 6 6 6 7 9 4 2 1 4 2 5 8 11 13 8 7 8 8 10
20 19 25 23 22 19 12 12 15 10 13 20 25 19 13 10 9 8 5 5 2 0 2 3 2 4 4 5 6 7 6 4 4 1 2 4 3 6 13 7 5 5 5 8 9
26 24 21 19 20 13 11 12 8 17 25 28 20 17 12 5 7 5 5 4 1 1 2 1 3 6 7 11 10 4 6 9 5 3 1 3 5 4 12 4 4 6 7 13 10
22 23 21 16 11 13 21 23 19 30 26 12 8 7 6 9 7 5 1 4 4 3 4 0 2 4 8 10 12 10 8 4 4 3 2 3 5 11 11 3 2 4 2 4 8
21 24 22 24 25 33 40 32 27 19 15 9 7 11 11 8 7 5 3 5 4 3 4 1 1 2 4 6 11 13 8 6 6 4 2 2 4 13 7 5 3 4 8 10 11
15 21 18 20 27 30 26 22 18 16 16 15 12 10 7 8 5 3 3 2 3 2 2 4 3 3 1 5 9 12 17 5 4 2 2 2 4 6 12 12 10 7 14 16 21
16 24 21 20 26 25 25 23 21 19 14 10 8 7 8 7 4 4 4 3 3 2 4 5 4 6 3 1 5 9 19 7 3 3 0 1 2 8 13 14 18 21 23 22 22
23 20 18 20 21 22 22 19 17 11 10 11 9 8 6 5 4 5 6 5 5 5 3 2 4 4 2 3 9 14 18 11 3 1 3 5 11 13 16 16 16 15 16 15 15
16 12 10 13 18 18 18 15 13 12 12 9 9 11 10 6 9 8 7 6 5 4 4 3 2 2 2 4 7 10 13 14 6 5 3 10 9 11 12 11 11 10 9 8 8
15 16 15 17 16 15 15 12 10 10 9 10 10 8 4 2 6 6 4 4 4 5 4 4 3 4 3 3 6 7 6 5 8 9 7 7 5 6 6 7 6 4 3 2 1
12 12 12 15 14 11 10 9 8 7 8 8 7 8 6 6 5 3 2 2 4 5 4 4 4 4 3 6 10 7 3 1 2 3 3 1 2 3 3 4 4 4 4 6 7

GFSSW_700_spd_096.txt.gz
Wind_Speed
30 29 26 31 39 30 32 35 33 37 39 33 28 15 24 25 22 20 21 19 18 20 19 17 16 14 13 13 11 12 15 15 14 12 12 12 15 17 21 24 27 27 31 29 27
30 27 25 25 20 34 29 33 30 33 38 35 34 30 23 25 25 18 19 20 19 17 18 18 17 16 15 13 14 16 18 14 16 17 19 20 20 20 24 24 26 29 31 34 30
30 31 28 29 27 20 27 22 36 30 31 39 28 30 24 21 22 22 20 19 19 17 18 18 19 17 16 15 16 19 22 20 22 24 26 27 24 26 28 29 24 28 32 34 35
32 29 27 27 25 19 19 16 25 25 27 33 23 32 33 20 17 21 23 21 19 18 18 19 18 17 17 18 18 20 22 22 24 25 27 28 30 32 30 32 29 28 33 35 37
20 24 24 29 24 23 20 18 17 28 22 28 36 30 33 22 18 10 16 22 19 18 17 17 16 17 17 16 18 22 23 24 25 27 28 31 34 34 40 35 30 28 32 38 39
16 18 23 24 25 23 18 23 22 23 23 24 28 26 28 30 22 20 11 14 15 15 15 15 14 14 15 16 18 20 21 23 26 26 30 35 38 37 43 36 35 34 36 38 42
15 18 17 17 21 24 13 17 19 21 19 27 21 34 35 26 13 14 19 19 16 14 14 14 13 13 14 15 16 17 23 25 27 25 27 35 40 37 24 23 32 33 37 41 43
16 18 14 18 14 18 17 15 17 20 24 29 33 28 27 33 25 20 17 17 16 13 13 12 12 12 12 14 17 19 24 21 19 20 19 26 42 36 31 30 29 30 34 35 37
18 12 9 10 13 13 14 14 17 18 24 29 34 31 26 20 21 23 17 16 14 13 11 10 10 11 12 13 15 11 14 15 12 15 19 22 36 27 24 25 30 29 26 30 34
12 10 7 9 10 10 11 10 12 18 30 33 32 30 22 25 31 21 18 16 12 10 9 8 8 10 10 8 4 7 13 14 16 17 21 25 36 35 27 26 29 27 28 27 28
7 6 5 7 6 10 16 16 23 22 30 25 25 30 21 22 14 13 15 11 10 9 8 6 6 3 3 3 5 8 14 18 14 9 24 26 31 28 22 23 22 25 20 20 21
2 4 3 4 4 9 11 5 33 30 31 12 29 18 22 15 17 13 12 11 9 8 5 3 2 3 2 5 9 12 18 17 13 14 22 26 28 18 15 10 12 9 12 13 15
4 5 7 5 9 11 6 19 39 32 31 25 29 17 17 17 23 15 13 9 7 5 4 4 3 4 7 10 13 14 16 14 17 18 19 20 19 13 11 8 7 8 10 12 12
12 12 10 10 12 11 3 32 39 31 24 21 28 23 20 18 17 14 11 7 5 4 4 3 5 6 9 11 12 15 9 9 13 15 9 19 8 15 9 7 7 11 12 7 7
16 13 14 13 17 7 26 28 28 19 6 7 18 25 23 7 17 12 10 6 5 3 3 2 4 8 11 8 9 11 11 16 19 16 21 15 6 4 7 8 10 13 13 13 8
20 18 20 23 19 16 20 13 15 7 7 8 22 23 14 13 9 12 10 7 3 1 3 4 8 9 7 8 9 12 15 16 12 12 5 8 6 4 6 14 12 15 14 12 9
24 26 25 23 18 18 18 14 10 11 8 17 24 18 13 12 13 11 8 4 2 2 4 5 3 5 5 7 4 4 9 5 3 2 5 4 6 10 14 16 10 11 9 8 6
27 24 25 20 16 16 17 18 17 11 16 27 21 17 15 12 11 8 5 5 5 3 3 5 3 5 5 4 4 9 4 2 4 2 3 4 5 7 15 11 6 6 8 7 9
27 19 17 14 11 14 21 34 10 20 30 24 19 15 11 7 7 6 9 3 3 2 1 2 2 3 5 6 8 4 5 9 6 10 3 3 6 7 18 9 4 6 7 11 12
19 16 19 18 17 23 40 34 27 30 24 11 6 5 7 10 6 5 2 4 4 4 0 1 5 3 5 6 11 10 8 2 4 3 3 3 5 11 15 7 5 5 5 3 6
25 29 24 22 23 32 45 35 25 18 13 10 10 11 11 6 6 3 3 4 3 2 1 3 3 1 2 3 8 9 9 5 7 5 2 3 3 15 12 7 6 6 6 7 11
24 29 24 23 28 35 29 23 21 19 18 17 12 10 7 8 6 5 2 1 1 1 3 5 4 5 2 7 9 7 15 10 4 2 4 2 4 7 7 9 7 9 11 13 19
26 22 17 16 29 28 26 24 21 16 12 11 8 7 9 7 4 5 3 1 1 2 5 7 5 7 1 0 4 6 16 12 7 7 3 0 3 3 7 13 18 19 20 20 21
22 20 17 18 23 23 22 17 16 15 12 10 9 7 5 6 4 4 3 3 4 4 5 5 5 4 2 4 8 10 12 11 1 2 2 3 3 6 10 12 13 14 14 14 13
11 16 14 15 16 16 16 13 11 12 10 7 7 7 6 4 6 4 4 4 4 4 5 5 5 7 7 6 7 12 10 10 5 1 1 7 5 5 6 7 8 8 8 7 6
13 15 16 16 15 13 13 12 10 8 8 9 7 4 2 2 2 1 1 1 3 4 5 5 5 9 9 7 11 13 9 5 4 4 4 4 3 2 2 3 2 2 1 2 3
9 10 10 11 11 9 9 8 7 5 5 4 5 5 3 2 1 1 3 4 4 5 5 5 7 8 5 8 13 11 5 3 2 2 2 3 3 5 5 5 6 6 6 7 9

GFSSW_700_spd_099.txt.gz
Wind_Speed
32 26 25 25 21 19 18 27 31 30 34 37 36 24 18 21 20 18 20 19 17 18 17 16 15 15 15 14 14 13 13 11 11 11 11 9 10 13 16 17 20 22 23 23 23
31 28 28 25 22 22 18 19 24 32 30 34 37 30 21 19 25 21 18 19 18 17 17 17 16 15 15 15 15 15 16 13 14 15 15 14 16 19 21 22 20 22 24 26 26
25 27 26 31 28 26 23 20 21 22 35 29 35 37 31 16 19 20 19 18 16 17 16 16 17 16 16 16 16 17 18 16 17 20 20 21 22 25 26 28 22 26 26 28 28
20 21 21 20 20 24 24 24 17 20 19 32 31 38 40 24 9 20 23 21 17 17 17 17 17 17 17 18 17 18 18 17 19 21 23 26 28 28 31 33 28 26 30 32 31
15 17 17 18 18 20 21 24 17 15 19 35 27 31 32 37 24 7 15 22 20 18 16 16 16 16 16 15 17 17 18 19 21 21 26 28 29 32 37 34 34 30 33 35 36
12 14 13 13 12 17 20 26 15 17 14 27 30 32 26 34 29 21 8 14 18 16 15 14 14 15 14 14 16 16 16 18 19 22 27 32 33 34 33 36 38 37 35 38 41
13 12 15 11 11 15 18 28 16 17 15 29 34 32 27 30 30 27 17 14 14 14 12 12 12 13 13 13 14 16 18 19 22 23 24 30 31 24 18 25 29 33 35 36 39
15 11 13 7 11 13 10 22 12 11 24 27 37 39 28 20 31 22 21 14 13 10 10 11 11 11 11 12 13 16 19 13 14 18 19 22 28 19 19 25 27 28 29 32 34
20 11 9 8 8 6 6 8 12 11 24 34 23 33 27 25 24 18 13 12 12 11 10 10 9 9 10 10 13 11 10 9 6 14 16 20 24 22 22 25 29 28 26 26 28
2 1 5 5 6 3 5 6 7 11 29 30 19 21 30 31 27 22 19 15 12 11 10 8 7 7 8 8 5 5 7 7 10 15 18 17 22 19 18 22 25 25 25 26 27
9 7 6 4 3 4 4 5 20 24 32 27 26 9 30 25 24 24 20 15 13 10 7 5 4 5 3 3 4 5 9 13 12 14 20 19 18 17 17 18 15 16 19 20 19
12 10 8 5 5 5 4 17 25 28 29 15 27 30 28 25 27 20 17 14 11 8 6 4 3 3 3 3 5 8 12 13 10 11 20 19 23 11 16 18 16 14 14 15 17
16 15 13 10 9 12 13 19 26 21 34 34 35 32 28 23 19 18 15 13 11 8 7 6 5 5 3 6 8 10 13 10 12 19 20 21 17 5 18 13 16 11 14 16 20
17 15 12 12 15 15 30 33 29 29 25 22 28 24 20 18 17 15 13 11 9 8 7 5 5 4 5 7 10 12 9 9 14 16 8 17 9 22 10 10 11 12 14 17 18
19 22 22 25 23 32 33 40 29 14 7 8 19 26 22 10 20 16 12 10 8 7 5 3 1 3 7 7 9 5 10 13 16 19 21 15 9 6 11 8 10 17 16 16 16
25 25 34 27 23 25 27 22 10 9 8 10 15 16 17 19 14 16 11 9 6 5 4 1 1 3 5 7 8 4 10 15 6 8 6 5 5 7 8 15 19 17 15 14 17
25 27 23 19 16 16 21 12 15 13 13 18 21 18 16 18 16 13 10 7 3 5 6 5 4 4 4 5 3 6 9 4 2 2 5 4 6 10 17 19 17 9 9 7 6
25 25 21 15 15 14 17 17 16 6 16 22 21 18 20 18 14 11 9 9 8 7 8 7 3 2 2 3 3 8 4 2 3 2 4 6 5 7 15 18 9 7 7 8 7
25 25 23 21 17 19 30 35 14 23 26 23 19 15 12 12 10 10 11 10 6 5 4 2 2 3 4 6 3 2 3 5 5 7 5 4 9 11 18 11 7 8 8 10 15
29 25 22 21 25 31 40 36 28 27 16 9 6 10 15 12 8 6 6 7 7 3 2 3 2 3 6 5 3 6 9 2 2 3 4 3 6 11 20 10 8 6 3 4 3
28 36 27 30 32 37 44 33 22 15 12 12 15 14 12 9 9 7 5 6 7 4 4 2 2 3 3 0 5 7 6 7 5 4 2 4 2 15 17 10 8 7 6 6 6
24 31 19 20 31 40 34 30 25 21 20 18 14 12 10 9 9 6 5 3 4 3 3 4 4 5 1 4 7 6 8 12 4 2 5 3 5 12 13 7 8 9 12 16 19
27 26 20 14 33 32 28 24 22 16 14 14 11 12 10 9 5 6 5 4 2 2 3 6 4 6 1 1 1 4 10 13 7 10 5 2 4 4 6 11 15 16 16 16 17
21 23 22 22 23 23 22 20 18 16 16 14 11 9 9 8 7 5 4 4 3 3 4 6 5 4 4 6 7 5 7 10 5 4 3 4 1 6 6 8 9 11 10 10 10
14 16 14 16 18 17 17 15 13 13 11 9 10 9 7 6 6 5 3 3 3 5 5 6 5 9 9 9 11 11 7 7 6 8 5 3 2 2 4 4 3 4 4 3 3
14 14 13 14 13 11 12 12 11 11 10 9 7 6 3 3 2 1 3 3 2 5 6 6 5 14 14 9 12 16 13 12 9 6 5 6 7 6 6 5 4 3 2 4 6
10 10 9 9 9 8 9 8 8 8 6 5 4 4 3 1 2 4 5 5 6 7 7 6 8 11 5 7 14 16 5 11 9 7 7 8 6 7 8 7 7 7 8 9 10

GFSSW_700_spd_102.txt.gz
Wind_Speed
30 28 27 24 22 21 17 16 18 30 26 31 40 39 27 14 14 18 18 19 18 17 15 14 13 12 11 12 12 13 11 10 10 8 9 9 10 12 13 15 16 18 19 20 19
29 28 23 24 23 21 20 17 17 17 31 28 34 40 32 20 19 17 17 18 19 18 16 15 14 14 13 13 14 13 11 11 12 11 10 11 13 16 17 21 19 20 20 23 24
27 21 21 23 25 23 23 20 20 19 20 33 26 37 40 29 16 22 22 19 18 18 16 16 17 16 15 15 15 14 15 14 14 13 14 17 19 21 24 26 22 25 26 27 27
14 14 13 14 18 16 17 21 22 21 19 18 32 33 39 31 20 24 25 21 16 16 16 15 16 17 17 18 17 16 15 16 15 16 18 21 22 24 28 25 28 29 31 31 31
12 11 11 12 12 15 16 18 19 21 18 20 28 27 39 34 31 15 23 20 18 15 15 14 15 15 16 15 16 15 15 15 16 19 21 23 23 26 26 29 31 32 34 36 37
9 8 8 7 10 12 15 16 18 22 18 11 20 30 38 32 29 13 11 18 19 16 14 13 14 15 13 15 15 12 12 13 16 20 23 25 24 28 27 29 29 32 33 34 36
10 8 7 8 8 7 9 12 17 23 21 12 20 33 39 35 35 27 13 12 18 16 13 13 13 13 12 10 13 12 12 15 18 19 22 23 24 18 18 24 27 29 30 32 35
11 6 5 3 4 7 7 10 12 18 16 17 26 20 41 26 30 22 23 15 17 16 12 10 10 10 10 10 10 10 13 11 14 17 19 18 16 17 19 23 22 23 25 27 28
9 10 4 3 1 1 3 4 11 8 12 21 38 19 22 32 39 24 27 19 17 14 12 10 9 9 9 8 9 9 9 12 12 12 15 15 15 13 19 20 19 19 21 22 24
19 13 8 5 2 2 3 6 9 10 19 27 37 17 23 26 30 23 27 18 14 14 11 10 8 8 8 8 4 6 8 9 9 14 14 16 14 11 18 18 20 21 19 21 22
15 12 8 6 3 5 6 6 13 19 21 29 22 22 24 29 29 25 18 14 14 13 12 10 8 8 8 8 8 6 6 8 9 14 15 15 20 16 21 17 21 19 17 17 19
16 11 9 5 2 5 6 7 8 27 24 13 15 30 32 30 30 23 17 13 14 13 11 9 8 7 6 4 3 4 6 8 9 9 18 19 23 22 13 20 16 16 14 15 17
17 11 7 7 8 13 19 6 24 28 23 21 30 39 31 26 25 22 22 18 15 12 11 10 8 7 5 2 3 5 8 9 9 16 17 19 16 5 15 17 16 16 16 17 18
11 9 7 10 12 22 24 9 31 29 21 18 29 27 25 25 23 21 18 16 13 12 11 7 7 5 3 4 4 6 7 9 10 12 7 14 8 10 12 10 14 16 20 22 20
32 34 31 29 33 32 26 31 30 13 6 8 20 23 24 13 23 18 16 14 12 14 7 7 6 4 4 4 3 3 7 9 12 10 13 3 5 8 9 10 11 24 23 20 18
25 22 25 24 30 31 23 13 11 9 8 7 13 22 22 21 16 17 14 13 13 11 8 7 5 3 2 3 2 3 7 10 3 3 4 5 7 4 4 15 19 22 14 15 14
19 17 17 17 17 14 11 11 15 11 13 16 19 23 19 19 17 15 13 10 8 6 7 7 5 5 4 4 2 3 8 4 1 1 4 5 6 8 14 19 24 16 12 12 10
25 19 17 16 11 9 10 15 15 11 18 23 23 21 23 20 15 13 12 11 8 7 8 4 3 4 4 2 1 4 3 2 4 3 7 7 5 5 15 24 16 11 13 13 11
26 22 17 15 13 18 28 23 14 19 24 24 21 16 12 10 11 10 11 7 5 5 3 4 4 7 7 7 2 0 2 6 5 7 6 3 5 9 19 17 12 11 13 14 14
29 28 24 24 27 29 39 38 28 26 21 11 7 11 10 11 7 6 6 5 7 7 5 6 5 2 1 2 1 1 3 2 4 3 4 3 3 8 19 17 11 10 6 6 7
31 35 27 28 27 29 43 34 22 17 15 13 14 14 13 12 11 9 6 8 8 7 6 5 4 2 3 4 4 1 2 2 5 3 3 5 2 15 16 13 9 4 5 5 7
27 32 20 19 25 37 34 30 25 22 20 17 15 14 12 12 10 7 7 6 6 6 4 3 2 2 4 5 5 6 5 6 4 2 5 3 5 13 11 11 9 8 12 17 17
26 24 17 13 32 32 28 25 23 16 14 13 11 13 11 10 7 8 7 6 5 4 3 4 2 3 1 1 3 6 7 7 5 7 6 3 2 7 4 8 9 11 13 12 10
18 17 16 20 22 23 21 20 20 17 15 14 14 12 12 11 8 6 6 4 4 3 4 4 4 5 4 5 8 8 8 9 5 4 3 11 8 4 2 2 4 6 5 5 5
16 18 15 16 19 18 18 15 14 14 12 10 11 9 8 7 8 6 3 2 1 3 5 6 6 9 11 13 15 14 12 13 14 10 8 7 10 8 6 5 4 3 2 1 2
15 14 15 15 15 14 13 13 13 12 11 9 7 6 5 6 4 2 2 2 3 4 5 7 7 14 17 11 13 19 18 18 18 18 17 14 14 10 10 10 8 8 8 7 7
12 13 12 13 12 11 11 10 9 8 7 7 6 6 4 3 4 6 8 9 9 8 8 8 7 12 6 8 16 18 10 18 19 17 13 16 10 10 12 12 11 12 11 11 12

GFSSW_700_spd_105.txt.gz
Wind_Speed
25 29 23 26 26 21 19 17 17 27 29 33 43 43 27 15 14 16 21 21 18 16 16 14 13 13 15 16 16 14 7 6 5 5 10 8 9 9 9 11 12 12 14 17 23
27 30 27 25 26 24 19 19 20 17 20 33 33 43 35 25 14 16 18 20 20 17 16 14 13 13 13 14 15 16 9 8 11 9 8 8 9 11 13 14 13 17 18 22 23
23 23 20 19 23 23 20 16 19 19 20 17 32 31 39 33 20 20 17 18 19 19 16 15 14 13 13 13 14 15 7 14 9 9 10 13 15 16 19 16 19 23 24 27 28
17 12 9 12 19 20 22 19 22 22 19 19 15 24 34 35 17 19 21 18 17 18 18 15 15 13 13 14 13 11 13 13 13 13 15 18 18 20 21 20 25 27 30 30 30
15 11 10 7 9 12 15 15 16 20 21 20 15 34 32 38 29 15 23 19 18 17 18 16 14 14 13 14 12 13 12 13 15 16 18 19 19 24 20 25 28 30 31 32 33
11 8 8 6 5 6 9 11 11 15 16 15 15 27 30 35 31 27 19 23 21 17 16 16 16 15 15 14 14 11 13 15 16 18 19 20 19 24 23 27 26 28 29 30 32
8 9 6 5 2 3 5 8 12 15 16 16 12 23 38 35 21 30 20 24 22 19 16 16 15 16 15 12 13 12 12 14 17 18 19 19 20 21 21 24 24 25 26 27 29
7 10 6 3 4 4 5 6 8 11 14 17 10 23 30 40 31 33 17 14 21 21 18 15 14 13 11 11 7 8 9 7 16 15 16 16 15 18 23 22 19 21 21 21 22
8 9 3 6 4 6 7 6 7 12 10 14 14 28 29 38 21 23 13 10 17 18 18 15 14 12 11 9 8 8 5 8 11 14 14 15 14 14 18 21 18 20 22 23 23
14 12 7 8 5 5 6 6 16 11 14 11 22 26 26 34 27 25 20 17 16 17 16 15 13 12 11 10 4 8 7 10 9 13 14 18 20 17 18 22 21 23 23 23 22
12 8 8 6 6 6 7 10 15 18 21 15 21 5 30 30 34 26 27 22 17 15 14 13 11 9 13 12 10 11 9 8 10 15 17 16 20 20 17 23 23 21 20 21 21
12 7 5 3 6 7 10 11 13 18 20 13 13 20 34 30 31 26 27 19 18 15 12 12 10 10 9 8 7 6 4 6 10 12 16 17 24 22 20 18 15 19 19 19 19
9 6 9 6 8 13 13 10 15 23 26 23 23 19 31 28 26 27 22 17 14 13 13 8 9 9 8 6 4 3 3 5 9 13 14 16 14 10 9 13 13 17 19 18 22
25 9 6 11 16 16 16 19 23 24 17 18 31 22 24 26 24 25 14 16 14 13 10 7 9 9 6 4 2 1 5 7 8 10 5 10 7 8 8 10 13 13 21 27 28
26 30 32 23 23 24 25 28 20 10 5 7 16 21 21 13 22 18 18 14 13 14 8 6 9 6 3 2 2 1 5 6 8 9 12 1 4 4 12 5 6 23 27 25 25
19 25 26 31 33 23 21 12 9 6 7 7 15 21 20 21 17 19 15 13 12 11 6 7 6 4 4 3 3 4 5 8 2 2 4 3 4 6 6 11 22 25 25 18 18
18 18 19 15 13 13 12 10 9 10 9 12 17 19 17 20 16 17 15 14 6 6 5 6 2 3 3 2 0 0 3 2 3 3 2 0 6 13 13 20 25 19 16 13 13
14 13 12 7 7 9 10 13 12 8 14 23 16 14 15 15 14 12 11 5 6 5 9 3 2 4 3 4 3 2 1 2 3 3 5 4 7 6 15 21 20 16 16 17 16
21 17 12 12 10 11 12 15 10 15 16 18 15 12 10 8 11 8 5 3 4 7 3 3 3 6 5 4 3 1 2 4 3 6 4 8 8 16 11 19 16 14 15 12 13
23 28 25 20 17 20 28 25 23 26 20 12 5 6 9 9 4 5 3 3 6 5 6 3 3 4 3 0 1 2 3 2 3 3 4 4 6 7 20 17 13 10 9 6 6
26 30 26 23 20 24 27 25 20 15 13 7 9 8 7 5 6 4 3 8 8 6 5 5 1 4 2 4 3 3 2 1 3 4 3 5 2 13 14 15 10 8 8 6 9
23 25 16 17 20 30 27 26 23 19 18 15 12 11 7 9 5 4 3 4 4 4 3 2 2 4 4 9 9 9 8 6 5 1 7 5 6 12 10 10 9 9 9 12 14
24 21 17 13 26 25 24 20 19 14 12 13 10 11 10 7 5 6 5 5 5 4 1 2 1 2 2 5 6 10 7 9 8 7 10 5 2 15 10 6 5 6 7 8 8
15 14 14 14 19 21 18 19 18 15 15 14 12 11 11 8 6 3 2 3 3 2 3 4 4 6 7 5 7 8 9 11 9 6 8 15 15 18 13 10 6 5 3 2 2
16 17 17 15 16 16 16 14 13 13 11 10 11 10 8 4 6 4 4 4 4 5 7 7 6 9 12 16 17 20 18 16 17 17 10 8 14 10 15 12 11 9 7 6 6
12 13 14 15 14 14 13 13 13 12 11 10 8 6 5 4 2 2 5 4 5 6 8 9 7 16 22 12 12 19 20 22 24 25 25 24 23 13 15 16 14 13 12 11 11
10 11 10 11 11 12 10 9 9 7 7 6 5 4 4 4 5 7 9 10 12 13 13 12 9 11 7 10 18 20 15 21 26 27 22 21 14 16 14 16 16 16 17 15 15

GFSSW_700_spd_108.txt.gz
Wind_Speed
22 22 17 12 17 20 19 18 19 22 24 29 40 39 25 14 19 19 24 21 17 16 14 14 14 15 15 17 20 15 13 6 7 8 14 10 9 9 8 8 7 7 10 12 20
17 25 29 25 19 20 22 20 20 20 19 29 29 40 36 33 11 19 19 20 20 17 14 14 14 13 14 15 16 16 14 8 15 16 14 7 7 7 6 6 10 14 14 18 18
10 12 16 19 20 22 20 20 22 21 18 17 30 26 40 42 15 18 14 17 20 19 17 15 14 14 13 13 14 16 11 13 15 10 8 8 9 11 10 11 15 18 20 22 24
7 7 6 7 14 16 18 21 19 20 19 16 13 36 29 35 18 20 16 15 17 18 17 15 13 13 13 13 14 14 14 11 11 10 10 11 13 15 14 16 19 22 25 27 27
5 5 6 7 4 10 11 12 12 16 19 17 15 17 28 27 33 11 21 12 14 16 17 16 14 13 11 12 12 13 12 12 12 13 13 14 15 18 17 19 22 23 25 27 29
2 3 3 3 6 6 9 10 9 12 17 15 15 10 36 27 28 11 22 18 16 15 17 17 16 16 14 12 14 11 12 14 14 15 16 16 16 19 23 21 21 24 24 26 28
4 4 3 5 3 6 9 12 12 13 11 10 9 11 33 31 30 31 15 21 18 18 17 18 16 16 13 10 10 10 11 12 14 14 16 17 16 17 18 19 20 22 23 23 24
4 4 3 3 5 6 8 6 7 10 9 12 9 13 31 28 32 30 24 21 24 20 18 16 17 15 13 10 7 10 9 8 13 12 13 14 16 20 21 22 19 20 21 20 21
5 8 3 7 5 5 6 7 8 10 12 12 12 17 27 27 27 26 27 25 22 19 17 16 15 14 13 11 9 8 5 8 12 13 15 15 13 16 21 22 21 20 23 20 23
8 5 4 5 6 7 7 8 13 13 13 16 15 12 20 30 23 26 22 16 17 18 17 16 15 14 13 11 4 7 9 10 9 16 16 17 20 17 20 19 22 23 26 26 27
8 5 3 5 7 8 11 16 16 18 17 12 18 7 27 28 19 22 25 16 16 18 17 14 12 8 11 14 11 9 8 10 9 16 19 18 20 18 18 17 22 28 25 26 25
6 7 4 5 7 9 14 16 15 15 15 10 9 16 24 32 28 25 25 16 16 15 13 14 13 13 9 10 9 8 6 6 11 12 15 15 21 19 20 20 23 18 21 23 25
10 9 8 7 10 13 14 13 14 11 17 16 17 30 28 28 23 24 23 19 14 13 12 11 8 8 8 7 6 3 3 7 9 12 10 14 12 9 11 11 12 14 19 21 24
21 17 16 15 15 18 17 18 24 18 16 16 21 25 26 28 24 27 23 21 16 11 10 7 6 9 8 6 5 4 8 7 8 9 2 7 6 9 12 14 15 13 24 31 27
32 40 26 23 28 31 31 25 16 10 5 6 9 16 24 12 27 21 18 13 11 14 7 6 10 8 6 5 6 5 6 5 7 8 11 1 4 3 9 9 11 21 28 33 30
23 28 32 30 25 19 16 15 11 7 7 8 12 13 14 18 16 17 14 11 11 10 3 5 8 6 7 4 6 6 3 4 2 3 3 3 4 8 9 13 18 25 29 22 17
19 19 20 19 17 15 14 12 11 11 8 12 15 17 18 18 18 15 13 14 6 7 6 6 3 3 4 3 2 2 2 2 2 1 3 1 7 14 15 20 23 28 24 18 14
20 20 20 20 16 17 17 16 13 8 15 18 19 18 14 14 15 14 11 5 8 5 8 3 2 5 2 4 3 2 1 0 2 3 2 7 8 7 16 19 24 21 16 16 11
26 25 26 21 14 13 14 19 10 13 19 16 15 13 11 9 11 9 7 4 6 10 3 3 3 4 4 3 4 1 1 3 3 5 3 6 8 15 9 19 17 14 13 12 10
28 30 27 24 21 21 29 26 20 19 16 10 5 6 10 11 6 6 4 4 4 5 7 3 3 4 3 1 3 3 4 1 1 2 3 6 8 11 16 15 14 10 10 9 8
26 27 22 22 22 24 29 25 17 12 16 12 11 11 8 10 7 5 3 5 6 5 5 8 2 2 4 3 6 6 2 0 2 5 2 4 4 5 14 14 13 9 9 9 8
24 24 17 15 17 23 22 21 21 19 16 14 13 13 9 9 8 4 5 5 4 5 3 1 6 5 3 8 9 9 8 8 5 0 9 8 10 6 15 14 10 9 7 7 7
21 22 18 12 18 20 19 17 16 12 10 12 10 12 13 10 6 5 4 4 3 1 2 2 1 0 2 6 5 10 10 12 12 14 15 4 6 13 21 17 11 8 7 5 4
12 16 16 13 18 17 16 15 16 15 14 14 13 11 12 9 8 6 5 3 2 2 2 2 4 6 6 5 8 11 10 13 16 9 9 20 23 22 17 16 13 11 10 9 8
14 14 12 15 15 15 14 13 11 11 10 9 11 10 8 4 5 3 3 1 1 1 2 4 4 8 13 15 19 22 23 21 26 26 17 16 15 15 18 22 15 15 13 12 12
10 11 12 12 11 14 10 10 10 8 7 7 6 5 4 2 1 4 3 3 6 4 7 8 6 16 21 13 12 20 22 25 30 34 35 31 30 16 13 18 18 14 15 15 14
8 8 7 9 7 9 6 5 5 4 5 4 3 3 3 5 7 9 11 11 12 12 13 12 9 13 8 8 18 24 16 22 30 33 29 34 20 18 20 18 20 19 18 16 15

GFSSW_700_spd_111.txt.gz
Wind_Speed
19 22 26 26 24 28 18 15 16 17 17 29 35 45 35 18 21 21 22 21 19 15 13 13 15 18 18 21 23 22 15 15 13 12 12 9 8 9 9 9 6 6 8 13 12
15 15 18 16 16 7 7 12 16 15 17 19 27 39 40 22 15 17 18 20 22 19 16 14 14 16 17 18 20 19 18 15 14 13 12 9 7 5 6 5 8 9 11 11 14
6 6 10 19 15 12 16 15 17 16 17 13 22 32 33 28 18 21 17 20 22 21 18 17 15 16 16 17 21 19 18 15 12 8 7 6 5 3 5 9 11 12 12 16 15
9 6 2 4 6 11 14 17 16 16 16 14 13 28 31 33 23 18 21 21 21 20 20 18 15 13 15 16 17 17 16 12 11 10 7 7 8 8 9 10 14 15 18 19 21
7 5 3 1 3 6 10 11 15 15 17 16 12 16 34 36 35 22 23 20 20 20 20 19 17 15 14 14 15 13 13 11 9 9 9 9 11 12 11 12 15 16 19 22 23
6 6 5 3 3 2 8 9 17 15 15 15 13 13 28 32 35 16 25 21 19 19 22 25 22 19 15 14 14 13 10 10 9 10 11 11 12 14 13 14 16 17 20 23 25
8 9 7 7 4 4 5 12 15 13 12 13 15 13 16 31 22 22 21 23 21 21 22 24 24 21 17 13 11 11 11 11 10 10 12 12 13 12 13 16 17 18 22 21 23
5 7 6 3 6 8 7 7 6 11 14 14 14 17 20 35 24 23 27 22 20 17 17 16 15 15 16 13 14 12 11 9 9 11 10 11 13 16 16 16 18 20 22 20 25
11 10 8 7 6 7 7 8 8 12 13 14 13 17 22 30 31 29 14 18 18 16 16 15 14 15 13 13 12 11 6 8 9 9 10 11 11 16 16 19 20 23 24 21 24
8 6 7 7 8 8 8 10 11 15 17 12 14 19 20 25 30 29 28 16 20 20 17 16 16 16 15 14 8 9 10 7 9 9 12 15 14 15 18 19 18 23 28 23 23
8 5 5 7 6 5 10 15 14 16 17 10 12 16 24 24 33 26 31 20 19 19 16 16 16 14 14 13 8 6 7 5 6 12 16 15 18 14 16 18 21 23 27 28 24
8 7 8 10 10 13 13 15 16 20 18 18 13 21 22 27 25 28 23 27 20 18 17 16 13 13 12 10 8 7 6 5 7 10 15 15 20 20 19 17 18 19 21 20 20
14 11 10 14 14 15 16 16 17 17 28 21 18 22 24 19 19 25 23 21 18 17 17 16 12 9 9 8 7 5 5 7 8 10 13 18 19 10 12 13 12 17 19 16 23
21 16 15 17 19 16 18 20 21 21 16 15 21 19 20 20 23 23 24 20 16 14 14 9 10 10 9 8 7 6 4 6 7 10 4 11 7 14 15 11 15 14 17 23 28
37 37 22 18 20 26 22 21 16 7 6 6 10 15 18 13 22 20 20 16 14 16 7 7 9 8 7 5 6 4 4 6 8 9 13 4 6 3 7 12 17 18 23 27 32
22 21 20 22 19 19 16 11 8 7 8 8 11 17 16 21 23 24 17 12 14 11 8 9 10 7 5 6 8 3 3 4 6 5 3 2 5 6 8 10 17 22 26 30 29
23 22 22 19 17 16 16 15 12 12 7 10 13 16 20 17 19 17 14 13 9 8 10 12 7 5 4 5 4 5 3 1 2 1 5 2 8 9 9 11 17 21 24 23 21
30 24 22 19 17 17 18 21 15 13 15 20 22 20 18 22 19 16 11 9 9 6 9 4 3 6 4 2 1 2 3 1 4 1 4 7 8 1 9 13 15 16 14 12 11
34 33 31 25 18 16 23 26 14 19 27 25 21 13 10 10 14 11 5 6 8 8 4 5 5 5 6 4 5 2 2 3 4 5 3 5 7 12 6 12 13 12 11 8 7
29 34 30 26 24 21 30 31 22 22 15 10 7 9 16 13 8 6 3 6 7 8 7 7 7 7 4 3 6 5 5 2 2 2 4 7 9 11 9 12 13 12 11 8 8
24 28 21 21 19 21 30 23 19 18 15 10 11 13 14 11 9 5 3 7 7 8 6 10 4 6 5 7 9 8 6 5 3 3 1 3 6 8 6 13 13 12 10 10 8
22 23 17 16 15 24 22 21 18 15 15 13 10 10 11 10 5 3 5 5 8 9 11 7 8 8 3 4 8 8 5 7 5 5 10 4 11 4 6 16 15 12 11 10 9
18 19 16 15 18 20 18 15 15 13 11 10 9 10 11 10 4 5 5 6 5 5 5 7 6 5 4 8 15 18 16 16 15 13 15 5 8 8 11 18 14 13 13 12 11
12 14 15 13 16 17 16 14 13 12 11 11 11 11 10 5 5 6 5 4 4 3 3 4 8 9 10 3 6 11 12 15 20 12 16 29 27 26 24 20 19 16 15 15 14
12 14 12 11 12 12 10 10 9 9 7 6 8 6 6 3 4 2 1 0 2 3 3 4 7 11 13 15 18 22 24 23 27 31 24 29 27 25 19 21 26 21 16 16 16
10 11 11 11 10 10 10 8 8 7 6 6 6 4 3 3 2 4 5 5 5 5 6 8 6 14 20 13 13 21 23 26 33 36 40 38 35 18 12 18 19 14 16 17 17
6 7 6 7 7 7 7 6 6 6 5 5 5 5 6 5 7 10 12 12 13 13 13 12 8 12 8 8 18 23 8 11 22 30 31 39 14 22 22 22 19 19 20 19 18

GFSSW_700_spd_114.txt.gz
Wind_Speed
12 13 17 22 31 19 28 21 21 18 19 28 38 47 26 25 21 21 23 22 20 21 19 19 21 23 22 24 25 24 18 19 19 21 17 16 10 12 13 13 10 11 11 9 5
6 11 10 11 21 12 21 23 20 15 15 16 27 35 39 31 16 26 22 25 22 22 22 19 17 19 22 24 25 25 20 20 17 16 15 12 8 8 11 10 9 7 6 8 9
3 2 5 10 14 18 5 3 7 12 13 15 16 31 42 36 25 25 24 26 24 23 22 23 20 19 21 22 24 24 18 18 16 15 11 9 9 8 7 7 7 7 8 10 14
6 6 4 3 3 1 2 8 7 10 12 11 15 19 27 31 24 24 26 27 26 23 22 22 22 20 21 23 24 20 18 15 13 12 9 9 8 7 6 9 8 9 13 14 15
8 6 5 3 2 5 7 12 12 12 16 14 11 21 21 21 25 28 25 25 26 25 22 23 23 20 20 20 20 16 17 14 13 11 10 8 9 8 8 9 10 13 15 17 19
8 9 6 5 5 5 8 11 15 14 17 16 15 13 25 15 35 21 24 27 28 28 24 27 26 21 19 18 17 15 16 14 12 10 10 10 10 9 8 11 13 15 17 18 21
8 9 8 7 4 6 5 8 12 15 16 19 16 13 20 22 29 21 27 29 29 27 24 25 24 22 21 18 17 14 13 12 12 11 11 11 11 11 9 12 14 17 17 20 21
11 9 7 7 6 5 5 13 15 15 17 17 18 15 17 20 31 33 35 28 26 23 20 20 20 19 21 17 19 15 14 12 11 12 11 10 8 11 12 13 14 18 19 21 21
11 11 10 9 5 8 10 12 12 16 17 15 17 15 17 23 20 37 28 27 22 21 20 19 20 19 18 16 17 16 11 15 10 11 11 10 8 9 13 15 17 21 22 21 21
9 11 11 11 10 8 7 9 12 14 16 15 16 15 18 26 21 25 21 31 22 21 20 20 21 20 18 18 14 15 13 11 10 9 11 12 11 14 17 19 19 22 24 22 22
12 11 9 9 10 9 10 12 16 16 11 11 18 10 23 20 29 21 20 24 20 19 20 19 18 18 18 16 10 10 11 8 8 10 12 13 14 12 15 19 21 22 22 22 20
14 12 9 10 13 15 12 14 14 18 21 12 20 20 25 27 22 20 20 15 20 19 18 19 17 16 16 14 9 9 8 7 8 9 12 14 15 17 17 17 17 16 17 15 16
19 15 14 14 18 18 21 19 17 24 25 24 20 17 21 29 24 27 26 14 16 17 18 18 18 15 13 12 10 9 8 7 7 8 12 16 17 11 12 12 14 14 12 13 16
23 19 17 16 17 19 23 24 22 21 15 12 17 18 15 27 25 30 26 25 18 15 16 9 15 13 12 11 10 9 7 5 6 7 4 9 6 12 17 16 13 11 11 17 21
27 22 20 22 22 23 26 18 9 6 5 6 9 15 19 9 29 26 20 21 19 18 8 10 13 13 12 11 10 7 5 4 6 8 9 6 5 5 8 8 8 12 16 20 23
18 18 18 16 15 18 11 9 9 6 7 7 9 16 11 19 21 21 20 18 15 10 10 14 14 10 9 9 8 4 2 1 5 5 2 1 2 6 5 6 9 13 17 21 25
21 18 14 11 9 4 5 8 8 10 6 8 14 12 18 21 21 19 18 17 10 9 13 14 9 7 6 4 4 4 4 2 3 3 3 2 6 9 6 8 12 15 18 20 21
24 19 18 15 10 8 8 13 13 11 14 17 17 20 24 22 20 14 10 11 10 6 12 5 5 7 5 3 4 4 4 2 5 0 4 5 8 2 5 8 10 13 13 14 14
30 29 24 22 18 14 20 22 13 18 25 25 22 15 11 10 12 9 8 8 7 12 3 6 6 7 7 4 4 3 3 4 1 3 3 6 9 13 7 5 7 9 10 10 10
27 29 27 25 25 22 30 32 21 19 12 9 7 8 16 14 8 6 4 9 7 8 6 8 8 8 6 5 6 5 5 3 3 2 4 6 9 14 6 5 7 7 7 7 7
18 23 20 18 16 18 30 26 19 14 10 7 8 15 11 7 7 3 4 7 8 8 7 9 3 8 5 6 7 9 7 6 5 4 3 3 6 8 9 8 11 11 10 9 8
18 19 17 15 16 23 21 16 15 14 12 11 9 12 9 7 4 1 4 3 6 6 10 6 5 5 4 4 7 9 7 10 5 5 7 3 11 10 12 9 14 11 12 12 12
17 17 15 14 16 19 18 15 13 9 7 6 7 6 9 5 2 4 4 7 6 6 6 5 5 3 2 8 15 18 17 17 15 10 12 5 7 8 9 14 19 14 14 15 15
10 10 12 12 14 15 15 13 12 11 9 8 9 7 5 4 3 4 4 3 4 5 5 6 8 9 8 3 5 11 13 18 23 13 16 32 32 28 25 21 17 17 19 18 17
10 12 13 12 13 12 12 10 9 8 7 6 5 5 4 3 4 2 1 2 4 5 5 5 7 11 15 16 20 22 23 22 29 31 29 31 33 24 25 27 24 23 20 19 17
6 7 9 9 10 10 10 10 9 8 7 6 6 5 5 3 3 4 5 5 5 4 6 9 9 15 22 18 22 29 30 33 37 37 42 40 38 19 14 18 18 19 22 22 18
1 2 3 4 5 5 6 6 6 7 6 6 5 5 4 5 7 9 11 11 12 11 12 13 9 12 7 7 17 25 18 25 29 32 31 40 14 23 21 22 21 20 21 21 19

GFSSW_700_spd_117.txt.gz
Wind_Speed
10 8 9 13 19 26 30 26 29 24 22 30 28 40 28 17 25 27 26 25 23 22 25 26 27 27 27 27 27 26 19 19 21 24 20 19 17 13 13 14 12 11 12 10 8
8 8 8 5 10 15 29 18 23 23 19 22 23 29 34 31 28 25 29 27 25 23 24 26 26 27 28 27 28 27 24 21 20 22 19 18 14 12 14 14 12 8 8 7 7
9 8 5 3 1 7 7 10 14 21 16 18 20 20 33 20 26 26 30 30 27 26 24 25 26 26 26 28 28 27 20 17 18 19 18 15 12 10 11 11 9 8 9 9 10
10 8 8 5 2 3 4 0 8 18 15 16 18 18 20 32 22 33 29 31 29 27 27 26 26 26 26 27 26 23 18 18 19 19 16 13 12 11 10 10 9 10 10 11 13
9 8 7 7 6 6 5 10 6 8 14 12 14 19 28 27 27 21 30 28 29 29 28 27 27 26 26 25 23 19 20 20 18 16 15 13 11 10 10 10 11 13 12 13 14
10 10 9 9 9 4 5 8 10 12 13 12 9 20 21 21 20 21 29 27 29 29 27 26 25 22 22 24 24 19 19 18 17 15 14 12 11 11 11 11 13 13 13 13 15
12 11 12 12 11 5 4 7 8 11 14 13 11 13 23 19 23 13 33 29 28 27 27 25 24 21 22 24 22 22 20 18 16 14 13 12 13 13 13 14 14 15 16 17 17
14 13 12 11 9 7 1 8 11 13 14 14 11 11 13 18 25 30 30 30 28 25 24 24 23 21 26 20 21 22 20 19 17 16 14 12 10 12 13 14 16 17 18 18 18
13 14 14 10 9 14 12 12 13 15 16 15 12 12 10 16 22 19 26 29 28 25 25 23 22 21 22 19 21 20 15 19 16 16 15 13 11 14 14 14 17 18 18 18 18
12 14 14 11 9 10 10 13 16 15 15 16 13 12 10 15 18 19 22 31 30 26 25 22 20 19 20 20 19 20 13 17 14 13 15 14 13 15 16 18 18 19 20 19 20
13 13 12 12 12 9 10 14 14 16 11 12 15 8 15 16 15 17 31 28 27 25 24 20 18 17 18 18 14 14 15 11 13 12 11 14 15 14 17 18 17 19 21 21 20
16 16 15 16 15 16 17 14 11 15 13 10 13 10 10 18 12 17 21 26 23 20 20 20 17 17 17 15 12 13 13 12 10 10 11 12 14 13 16 18 20 20 19 17 17
18 17 16 15 16 20 23 18 17 17 25 17 15 14 18 17 14 14 20 23 21 18 17 19 17 17 15 14 11 11 10 9 7 6 10 13 17 13 14 15 15 14 15 14 15
19 16 14 13 18 22 23 23 18 17 14 12 13 14 19 13 19 16 16 17 18 18 16 9 15 15 13 12 11 8 8 6 5 4 4 6 6 12 18 18 15 10 10 13 16
21 20 19 18 22 23 20 10 7 5 5 6 11 9 22 14 24 20 13 12 17 19 9 11 14 13 12 11 10 6 6 4 5 6 8 8 6 8 9 7 4 7 10 13 15
16 18 16 13 14 7 7 7 6 5 6 6 8 16 18 25 24 20 22 18 15 11 9 16 15 11 10 10 8 6 4 3 6 6 2 4 4 6 5 4 4 6 9 11 13
12 10 10 8 3 4 5 4 6 10 5 9 11 20 23 27 25 22 23 23 11 10 15 15 11 8 8 8 7 6 5 1 3 2 4 3 7 12 7 5 5 6 8 10 12
15 13 9 7 7 7 11 14 12 9 11 14 19 23 24 21 19 15 16 11 12 5 16 7 6 9 8 6 5 7 6 2 5 1 4 6 8 3 8 7 6 7 7 7 9
23 20 17 19 16 14 17 16 12 18 22 22 25 20 15 11 13 9 10 10 8 13 2 6 6 9 8 5 6 5 5 6 1 1 3 6 10 12 13 9 6 7 8 9 9
21 23 24 22 18 18 27 28 19 16 13 11 7 7 14 12 6 5 3 8 6 8 5 6 7 9 6 6 8 5 7 3 4 2 4 6 11 16 8 9 6 8 10 10 10
16 19 18 15 15 17 30 25 18 15 12 9 11 15 10 7 7 4 3 6 7 6 4 7 4 8 7 6 6 8 6 6 4 3 3 3 6 5 15 11 8 12 13 11 10
16 18 17 15 13 22 21 19 18 15 14 13 11 9 7 7 5 4 5 3 6 8 6 3 2 4 4 4 6 11 8 9 5 4 5 3 11 9 11 12 11 15 14 13 13
14 15 16 14 15 17 18 16 14 9 7 8 7 7 8 5 3 5 4 6 5 6 7 4 4 2 2 8 13 16 18 16 15 9 12 4 7 3 7 9 15 17 15 16 17
6 7 9 11 14 14 15 13 12 11 10 10 9 7 5 5 5 5 5 3 4 5 5 5 7 9 7 3 7 11 11 18 20 11 12 29 33 25 25 22 23 20 21 24 20
7 7 7 7 10 11 11 11 10 10 8 7 7 7 6 5 5 4 2 3 4 5 6 6 7 11 14 17 22 24 23 19 27 31 27 31 33 22 25 26 25 27 27 25 21
5 5 5 5 6 7 6 8 8 8 7 7 6 6 5 3 2 1 3 4 6 7 9 10 8 14 21 16 21 29 29 31 36 36 41 41 36 20 11 15 16 17 21 24 23
6 5 5 4 4 3 2 2 3 3 2 2 2 1 1 1 4 6 8 9 10 9 10 11 8 10 6 7 18 21 7 10 24 32 32 39 20 25 20 18 17 20 22 21 20